     2              OBSERVATION DATA    GPS                 RINEX VERSION / TYPE
ASHTORIN MIT 05 - JUN - 97 20:50                            PGM / RUN BY / DATE
                                                            COMMENT
China Lake 97 #1 Ashtech Z12                                COMMENT
Original Marker Name: GS17                                  COMMENT
Campaign Name: China Lake May 1997                          COMMENT
4-Character Station Name: GS17                              COMMENT
6-Character Antenna Code: ASHGD3                            COMMENT
Vertical Measurement Point: TGP                             COMMENT
Vertical Offset to Rinex Ref. Point: 0.0640                 COMMENT
Radial Measurement Point: RRP                               COMMENT
Radial Offset to Rinex Ref. Point: 0.0000                   COMMENT
Antenna Height from Field Measurement: 0.2500 m             COMMENT
Additional Antenna Identification Info.:                    COMMENT
The Whopper (700718AB)                                      COMMENT
Original XYZ: -2435897.9000 -4555584.6800 3731282.9400      COMMENT
New XYZ position is based on association with SCEC monument COMMENT
E1F4B5O1+0011. Position of that monument is believed to be  COMMENT
valid to within 1 m horizontally; vertical accuracy         COMMENT
should be no worse than 3-times this value.                 COMMENT
                                                            COMMENT
Revised Rinex header created by UCSD GPS archive for        COMMENT
GSAC on 01-Aug-2000 (2000:214) 02:26:55 GMT                 COMMENT
For assistance contact dagnew@ucsd.edu                      COMMENT
or anderson@python.ucsd.edu                                 COMMENT
                                                            COMMENT
GO17 BLM CA 065-94-66                                       MARKER NAME
gs17                                                        MARKER NUMBER
WAP US DEFENSE MAPPING AGENCY                               OBSERVER / AGENCY
414 ASHTECH Z-XII3 1G001C7                                  REC # / TYPE / VERS
784 ASHTECH GEODETIC III                                    ANT # / TYPE
 -2403216.4365 -4605389.7530  3689990.3122                  APPROX POSITION XYZ
        0.1860        0.0000        0.0000                  ANTENNA: DELTA H/E/N
     1     1     0                                          WAVELENGTH FACT L1/2
     7    L1    L2    C1    P1    P2    D1    D2            # / TYPES OF OBSERV
    30                                                      INTERVAL
  1997     4    29    15    30   30.000000                  TIME OF FIRST OBS
  1997     4    29    21    29   60.000000                  TIME OF LAST OBS
                                                            END OF HEADER
 97  4 29 15 30 30.0000000  0  8 31 26 27  2  7 19 10 18             0.000297689
     41963.04119     22434.48457  17946190.060           0.0005   17946197.1815
     -2012.496       -1568.179
    -81145.42119    -42803.68152  19911667.679           0.0005          0.0005
      3836.206        2989.251
    -33379.24719    -18354.68158  15400808.893           0.0005   15400815.6855
      1641.893        1279.397
    -39339.09919    -20217.67859  16579310.672           0.0005   16579319.1745
      1808.911        1409.541
    -72208.83319    -27129.39752  18428922.387           0.0005          0.0005
      4191.256        3265.914
     17231.80119      9122.20558  16312946.273           0.0005   16312953.7755
      -818.719        -637.963
     28250.47319     16764.23554  19479737.516           0.0005          0.0005
     -1058.120        -824.509
     63475.96319     32769.03055  18351464.347           0.0005          0.0005
     -2935.348       -2287.284
 97  4 29 15 31  0.0000000  0  8 31 26 27  2  7 19 10 18             0.000283902
    102508.972 9     69613.10247  17957712.370    17957714.1935   17957718.9864
     -2024.285       -1577.365
   -196161.252 9   -132426.38455  19889780.326           0.0005   19889788.9375
      3831.157        2985.317
    -82522.921 9    -56648.46548  15391456.902    15391459.0195   15391464.1064
      1634.040        1273.278
    -93501.433 9    -62422.08949  16569004.171    16569006.8155   16569012.5494
      1801.597        1403.842
   -197906.786 9   -125075.55057  18405003.345           0.0005   18405013.0955
      4188.325        3263.630
     41913.455 9     28354.63448  16317641.714    16317645.0405   16317650.8114
      -827.124        -644.512
     60112.850 9     41591.87056  19485801.580    19485803.4765   19485810.3545
     -1066.458        -831.006
    151584.964 9    101434.50153  18368229.986           0.0005          0.0005
     -2938.876       -2290.033
 97  4 29 15 31 30.0000000  0  8 31 26 27  2  7 19 10 18             0.000492972
    163395.872 9    117057.40847  23065769.622    23065772.3974   23065777.1734
     -2036.702       -1587.041
   -310935.535 8   -221860.89945  24964406.212    24964413.9085   24964420.6624
      3825.132        2980.622
   -131379.052 9    -94718.18148  20478632.151    20478633.6944   20478638.8754
      1625.178        1266.372
   -147383.937 9   -104408.44849  21655222.074    21655225.0664   21655230.8234
      1793.031        1397.167
   -323418.141 9   -222876.57747  23477592.723    23477594.5955   23477601.2104
      4184.202        3260.417
     66854.789 9     47789.42348  21418859.760    21418862.9654   21418868.7974
      -836.214        -651.595
     92235.933 9     66622.86946  24588382.335    24588388.5354   24588394.3784
     -1075.894        -838.359
    239765.063 9    170155.45454  23481481.264           0.0005          0.0005
     -2942.817       -2293.104
 97  4 29 15 32  0.0000000  0  8 31 26 27  2  7 19 10 18             0.000479152
    224693.356 9    164821.64957  23077435.556    23077436.9125   23077441.7495
     -2049.839       -1597.277
   -425580.585 8   -311194.64355  24942592.812    24942598.4395   24942604.2765
      3817.838        2974.939
   -179973.935 9   -132584.32958  20469385.019    20469386.4405   20469391.6175
      1614.493        1258.046
   -201020.774 9   -146203.37759  21645014.756    21645018.3325   21645024.0755
      1782.893        1389.267
   -448867.205 9   -320629.06457  23453717.109    23453722.4455   23453729.1785
      4179.134        3256.468
     92103.795 9     67463.95258  21423664.719    21423667.7635   21423673.5955
      -846.822        -659.861
    124678.334 9     91902.55056  24594559.916    24594560.3865   24594568.2665
     -1086.710        -846.787
    328130.508 9      8691.45452  23498298.509           0.0005          0.0005
     -2948.175       -2297.279
 97  4 29 15 32 30.0000000  0  8 31 26 27  2  7 19 10 18             0.000465370
    286393.371 9    212899.54247  23089175.756    23089178.0254   23089182.9364
     -2063.867       -1608.208
   -540002.926 9   -400354.85546  24920819.202    24920824.8044   24920830.5514
      3810.130        2968.932
   -228247.634 9   -170200.20248  20460198.313    20460200.2974   20460205.4714
      1603.518        1249.495
   -254371.147 9   -187775.08549  21634862.808    21634866.1084   21634871.8554
      1773.917        1382.273
   -574168.442 9   -418266.38047  23429871.917    23429878.3574   23429885.1464
      4174.002        3252.469
    117667.666 9     87383.83348  21428529.998    21428532.4604   21428538.2774
      -857.576        -668.241
    157446.962 9    117436.50346  24600796.396    24600796.6734   24600804.0314
     -1098.087        -855.652
    416664.047 9     77679.01557  23515144.936           0.0005   23515153.7065
     -2954.199       -2301.973
 97  4 29 15 33  0.0000000  0  8 31 26 27  2  7 19 10 18             0.000451600
    348508.993 9    261301.29447  23100995.987    23100998.2304   23101003.1804
     -2076.934       -1618.390
   -654200.520 9   -489339.97746  24899089.454    24899093.7924   24899099.4964
      3803.352        2963.651
   -276203.268 9   -207568.23148  20451072.155    20451074.6514   20451079.8354
      1593.793        1241.917
   -307479.510 9   -229158.21749  21624756.962    21624759.9634   21624765.6814
      1766.865        1376.778
   -699325.659 9   -515791.48047  23406057.046    23406061.7654   23406068.5414
      4170.152        3249.469
    143539.660 9    107543.80348  21433453.435    21433455.8004   21433461.5204
      -866.967        -675.559
    190547.473 9    143229.06046  24607094.329    24607095.5054   24607102.6314
     -1108.136        -863.483
    505361.111 9    146793.57547  23532022.777    23532025.8315   23532032.4254
     -2958.490       -2305.317
 97  4 29 15 33 30.0000000  0  8 31 26 27  2  7 19 10 18             0.000437846
    411038.231 9    310025.33547  23112894.567    23112897.1764   23112902.1434
     -2091.567       -1629.792
   -768167.875 9   -578145.69046  24877402.525    24877406.5244   24877412.2694
      3794.666        2956.883
   -323835.176 9   -244684.00548  20442008.013    20442010.6244   20442015.8214
      1581.720        1232.509
   -360347.135 9   -270353.75349  21614696.774    21614699.5894   21614705.3114
      1757.818        1369.728
   -824343.542 9   -613208.01447  23382267.244    23382271.6674   23382278.4744
      4164.426        3245.007
    169721.231 9    127945.00448  21438435.653    21438438.0674   21438443.7214
      -878.280        -684.374
    223963.222 9    169267.27446  24613453.036    24613454.4734   24613461.6554
     -1119.380        -872.244
    594208.280 9    216025.08146  23548929.780    23548932.9694   23548939.5144
     -2964.593       -2310.072
 97  4 29 15 34  0.0000000  0  8 31 26 27  2  7 19 10 18             0.000424120
    474011.217 9    359095.15647  23124877.853    23124880.5314   23124885.5034
     -2106.665       -1641.557
   -881871.444 9   -666745.87546  24855765.583    24855769.5874   24855775.1514
      3785.658        2949.863
   -371092.125 9   -281507.60548  20433015.346    20433017.9774   20433023.1584
      1568.935        1222.547
   -412946.589 9   -311340.33049  21604687.446    21604690.2284   21604695.9754
      1748.983        1362.844
   -949190.047 9   -710491.01247  23358510.561    23358514.2234   23358521.0194
      4158.729        3240.568
    196250.803 9    148617.37448  21443483.860    21443486.5404   21443492.1754
      -890.206        -693.667
    257720.227 9    195571.40146  24619876.982    24619878.1424   24619885.5714
     -1130.769        -881.119
    683241.424 9    285401.52347  23565872.478    23565875.4234   23565881.9754
     -2970.710       -2314.839
 97  4 29 15 34 30.0000000  0  8 31 26 27  2  7 19 10 18             0.000410425
    537430.488 9    408512.73347  23136945.971    23136948.8584   23136953.8484
     -2121.498       -1653.115
   -995317.343 9   -755145.27746  24834177.964    24834181.5974   24834187.1914
      3777.032        2943.142
   -417981.777 9   -318045.00348  20424092.473    20424095.2144   20424100.3774
      1556.649        1212.973
   -465297.953 9   -352133.59049  21594725.373    21594728.0904   21594733.8374
      1740.651        1356.351
  -1073868.800 9   -807643.27947  23334785.665    23334788.6604   23334795.4654
      4152.720        3235.886
    223134.139 9    169565.40248  21448599.596    21448602.2924   21448607.9534
      -902.453        -703.210
    291801.178 9    222127.93446  24626361.864    24626363.6224   24626371.0404
     -1141.591        -889.551
    772444.660 9    354910.49047  23582847.439    23582850.2294   23582856.7634
     -2976.484       -2319.338
 97  4 29 15 35  0.0000000  0  8 31 26 27  2  7 19 10 18             0.000396758
    601288.809 9    458272.43047  23149097.943    23149100.7064   23149105.7624
     -2136.347       -1664.686
  -1108497.876 9   -843337.91545  24812640.745    24812644.0184   24812649.4804
      3767.548        2935.752
   -464495.062 9   -354289.11848  20415241.301    20415244.0704   20415249.2404
      1543.620        1202.821
   -517380.082 9   -392717.05849  21584814.493    21584817.2394   21584822.9564
      1730.658        1348.565
  -1198359.772 9   -904649.22147  23311095.800    23311098.7474   23311105.6154
      4146.010        3230.657
    250392.242 9    190805.46548  21453786.458    21453789.3414   21453795.0854
      -915.383        -713.285
    326198.143 9    248930.72546  24632907.387    24632909.1494   24632916.6094
     -1152.018        -897.676
    861816.897 9    424551.16046  23599854.160    23599857.1714   23599863.7234
     -2982.262       -2323.841
 97  4 29 15 35 30.0000000  0  9 31 26 27  2  7 19 10 18 15          0.000383116
    665587.468 9    508375.24147  23161333.737    23161336.3164   23161341.4604
     -2149.801       -1675.170
  -1221391.736 8   -931307.19045  24791157.817    24791161.0314   24791166.3324
      3759.237        2929.276
   -510611.876 9   -390224.30348  20406465.554    20406468.3444   20406473.5424
      1531.350        1193.260
   -569156.708 9   -433062.47049  21574961.815    21574964.5064   21574970.2094
      1721.562        1341.477
  -1322646.738 9  -1001496.19647  23287444.580    23287447.6854   23287454.5424
      4139.939        3225.926
    278033.445 9    212344.04648  21459046.352    21459049.3244   21459055.0944
      -926.725        -722.123
    360894.788 9    275967.02246  24639509.346    24639511.7824   24639519.2264
     -1160.688        -904.432
    951365.010 9    494328.86046  23616894.174    23616897.5614   23616904.2534
     -2987.254       -2327.730
   -203316.91719   -148251.17255  25031178.194           0.0005   25031183.8495
      3048.878        2375.749
 97  4 29 15 36  0.0000000  0  9 31 26 27  2  7 19 10 18 15          0.000369492
    730310.444 9    558808.69047  23173649.690    23173652.7144   23173657.9274
     -2164.979       -1686.997
  -1334021.981 8  -1019071.01245  24769723.804    24769728.1934   24769733.5904
      3749.676        2921.825
   -556342.995 9   -425858.94248  20397763.206    20397766.0194   20397771.2074
      1517.752        1182.664
   -620641.728 9   -473180.65549  21565164.518    21565167.2094   21565172.9414
      1710.974        1333.226
  -1446722.120 9  -1098178.29947  23263833.947    23263836.9104   23263843.7534
      4131.817        3219.598
    306025.994 9    234156.40548  21464373.268    21464376.1714   21464381.9784
      -939.194        -731.839
    395871.899 8    303221.89246  24646165.193    24646167.7524   24646175.2604
     -1170.974        -912.447
   1041086.407 9    564241.59346  23633967.822    23633970.9224   23633977.5914
     -2994.063       -2333.036
   -294665.866 9   -219432.17156  25013794.908    25013794.5195   25013802.1545
      3041.230        2369.790
 97  4 29 15 36 30.0000000  0  9 31 26 27  2  7 19 10 18 15          0.000355900
    795468.297 9    609581.00047  23186049.136    23186051.9544   23186057.1574
     -2178.831       -1697.790
  -1446390.318 9  -1106630.72946  24748340.603    24748345.1144   24748350.6664
      3741.505        2915.458
   -601695.046 9   -461198.20548  20389133.013    20389135.8384   20389141.0324
      1505.598        1173.193
   -671817.135 9   -513057.58449  21555426.274    21555428.8274   21555434.6244
      1700.698        1325.219
  -1570558.355 9  -1194674.04847  23240268.472    23240271.6774   23240278.5024
      4123.941        3213.461
    334364.937 9    256238.68248  21469766.041    21469768.9384   21469774.7214
      -949.996        -740.257
    431141.208 9    330704.42146  24652876.641    24652879.1394   24652886.6914
     -1180.361        -919.762
   1131005.178 9    634308.13346  23651078.894    23651081.8604   23651088.6074
     -3000.537       -2338.081
   -385800.681 9   -290446.32246  24996451.891    24996452.1955   24996459.5594
      3034.387        2364.457
 97  4 29 15 37  0.0000000  0  9 31 26 27  2  7 19 10 18 15          0.000342333
    861040.606 9    660676.27547  23198527.254    23198530.0344   23198535.2324
     -2193.779       -1709.438
  -1558505.425 9  -1193993.13146  24727006.471    24727010.2234   24727015.8874
      3731.764        2907.868
   -646675.532 9   -496247.93748  20380573.478    20380576.3744   20380581.5624
      1492.143        1162.709
   -722677.459 9   -552688.99249  21545747.795    21545750.4254   21545756.2244
      1689.084        1316.169
  -1694152.438 9  -1290981.10247  23216749.147    23216752.5354   23216759.2954
      4114.667        3206.234
    363025.145 9    278571.29148  21475219.875    21475222.8074   21475228.5564
      -961.689        -749.368
    466698.944 9    358411.71746  24659643.510    24659645.7934   24659653.2364
     -1191.295        -928.282
   1221121.825 9    704528.87646  23668227.494    23668230.5614   23668237.2514
     -3008.289       -2344.121
   -476725.486 9   -361296.80446  24979147.905    24979149.3284   24979157.0404
      3026.080        2357.984
 97  4 29 15 37 30.0000000  0  9 31 26 27  2  7 19 10 18 15          0.000328820
    927057.779 9    712118.17747  23211089.834    23211092.7564   23211097.9784
     -2207.832       -1720.389
  -1670334.862 9  -1281132.92546  24705726.063    24705729.8754   24705735.5814
      3722.998        2901.037
   -691259.937 9   -530989.03848  20372089.402    20372092.2714   20372097.4754
      1479.786        1153.080
   -773203.715 9   -592060.08949  21536132.954    21536135.6294   21536141.4034
      1678.909        1308.241
  -1817461.242 9  -1387065.85747  23193284.328    23193287.6664   23193294.3694
      4105.409        3199.020
    392040.038 9    301180.27748  21480741.139    21480744.1594   21480749.9304
      -973.142        -758.292
    502596.361 9    386383.68846  24666474.676    24666476.8614   24666484.0564
     -1202.318        -936.871
   1311478.600 9    774936.71246  23685421.963    23685424.8874   23685431.6344
     -3015.983       -2350.117
   -567393.571 9   -431947.24246  24961894.149    24961895.9544   24961903.5244
      3017.942        2351.643
 97  4 29 15 38  0.0000000  0  9 31 26 27  2  7 19 10 18 15          0.000315357
    993492.449 9    763885.42247  23223731.901    23223734.9514   23223740.1084
     -2221.191       -1730.798
  -1781902.173 9  -1368068.47447  24684495.327    24684499.4074   24684505.1554
      3714.602        2894.495
   -735488.869 9   -565453.14548  20363672.937    20363675.8144   20363680.9924
      1468.691        1144.435
   -823431.562 9   -631198.65849  21526574.959    21526577.6124   21526583.3454
      1669.559        1300.955
  -1940499.989 9  -1482940.18147  23169871.128    23169874.1484   23169880.8554
      4097.344        3192.736
    421400.619 9    324058.63648  21486328.338    21486331.2874   21486337.0744
      -984.354        -767.029
    538825.186 9    414613.91746  24673369.034    24673371.3434   24673378.3164
     -1212.969        -945.171
   1402058.160 9    845518.13546  23702658.802    23702661.6084   23702668.4394
     -3022.507       -2355.200
   -657816.556 9   -502406.66746  24944686.734    24944689.0644   24944696.6214
      3010.230        2345.634
 97  4 29 15 38 30.0000000  0  9 31 26 27  2  7 19 10 18 15          0.000301924
   1060308.113 9    815949.53547  23236446.636    23236449.6624   23236454.7514
     -2233.894       -1740.697
  -1893223.439 9  -1454812.29446  24663312.084    24663315.8154   24663321.5644
      3706.018        2887.806
   -779398.934 9   -599668.78448  20355317.194    20355320.0594   20355325.2064
      1457.658        1135.837
   -873396.454 9   -670132.33449  21517066.954    21517069.6354   21517075.3614
      1660.866        1294.181
  -2063321.429 9  -1578645.17047  23146499.554    23146502.0474   23146508.6714
      4090.256        3187.212
    451088.052 9    347191.68448  21491977.602    21491980.6654   21491986.4604
      -995.461        -775.684
    575351.929 9    443076.24346  24680320.239    24680322.1624   24680329.2294
     -1222.621        -952.692
   1492805.994 9    916230.69346  23719927.260    23719930.4594   23719937.2584
     -3027.888       -2359.393
   -748028.025 8   -572701.23046  24927519.712    24927522.3764   24927529.9374
      3003.148        2340.115
 97  4 29 15 39  0.0000000  0  9 31 26 27  2  7 19 10 18 15          0.000288520
   1127514.769 9    868318.31447  23249235.112    23249238.7304   23249243.7844
     -2246.734       -1750.702
  -2004262.711 9  -1541336.38746  24642182.295    24642185.8014   24642191.6044
      3696.517        2880.403
   -822951.988 9   -633606.23848  20347029.301    20347032.2044   20347037.3444
      1445.867        1126.650
   -923106.316 9   -708867.28449  21507607.527    21507610.1594   21507615.8794
      1653.216        1288.220
  -2185933.519 9  -1674187.02547  23123167.227    23123169.7104   23123176.3014
      4083.938        3182.289
    481121.117 9    370594.05348  21497692.654    21497695.8194   21497701.6134
     -1006.705        -784.445
    612171.978 9    471767.12846  24687327.082    24687328.9554   24687335.9594
     -1232.010        -960.008
   1583713.404 9    987067.59746  23737226.784    23737229.6254   23737236.4614
     -3032.548       -2363.024
   -838015.309 8   -642821.16446  24910394.890    24910398.1794   24910405.9754
      2995.956        2334.511
 97  4 29 15 39 30.0000000  0  9 31 26 27  2  7 19 10 18 15          0.000275163
   1195143.061 9    921015.64747  23262104.341    23262107.9804   23262113.0954
     -2260.684       -1761.572
  -2114979.362 8  -1627609.06845  24621112.785    24621117.0654   24621122.9354
      3685.736        2872.002
   -866117.851 9   -667241.98048  20338815.199    20338818.0124   20338823.1554
      1432.918        1116.559
   -972558.792 9   -747401.68049  21498197.072    21498199.6534   21498205.3824
      1644.744        1281.619
  -2308329.292 9  -1769560.33347  23099875.801    23099878.5444   23099885.1594
      4076.904        3176.808
    511523.176 9    394283.94648  21503478.223    21503481.2104   21503487.0114
     -1018.821        -793.886
    649299.049 9    500697.21546  24694391.776    24694393.6474   24694401.0634
     -1241.851        -967.676
   1674791.901 9   1058037.80746  23754558.482    23754561.4494   23754568.2444
     -3037.971       -2367.250
   -927755.468 8   -712748.50046  24893317.844    24893321.0584   24893329.0244
      2988.003        2328.314
 97  4 29 15 40  0.0000000  0  9 31 26 27  2  7 19 10 18 15          0.000261840
   1263184.545 9    974034.94247  23275052.506    23275055.8554   23275060.9784
     -2275.427       -1773.060
  -2225382.127 9  -1713637.18446  24600103.868    24600108.0164   24600114.0484
      3674.609        2863.332
   -908894.870 9   -700574.73048  20330674.933    20330677.8224   20330682.9714
      1418.734        1105.507
  -1021755.807 9   -785737.00949  21488835.192    21488837.7644   21488843.5354
      1635.036        1274.054
  -2430527.666 9  -1864779.80947  23076621.796    23076624.9214   23076631.5674
      4069.662        3171.165
    542274.481 9    418245.98648  21509330.016    21509333.0244   21509338.8554
     -1031.194        -803.528
    686707.807 9    529846.88046  24701510.719    24701512.4844   24701519.5544
     -1252.153        -975.704
   1766003.602 9   1129111.81646  23771915.647    23771918.5554   23771925.3484
     -3042.850       -2371.052
  -1017269.197 8   -782499.33146  24876284.256    24876287.1614   24876295.1394
      2979.625        2321.786
 97  4 29 15 40 30.0000000  0  9 31 26 27  2  7 19 10 18 15          0.000248553
   1331660.755 9   1027392.98547  23288083.049    23288086.4964   23288091.6684
     -2289.234       -1783.819
  -2335457.549 9  -1799410.29446  24579157.921    24579161.4534   24579167.2474
      3664.490        2855.447
   -951244.965 9   -733574.81048  20322616.011    20322618.8904   20322623.9974
      1405.265        1095.012
  -1070670.775 9   -823852.56549  21479526.968    21479529.6064   21479535.3574
      1626.556        1267.446
  -2552507.613 9  -1959829.11347  23053409.964    23053412.9084   23053419.4974
      4062.840        3165.849
    573389.005 9    442491.04748  21515250.856    21515253.9094   21515259.7424
     -1042.444        -812.294
    724413.353 9    559227.84446  24708685.835    24708687.7244   24708694.4614
     -1261.093        -982.670
   1857357.714 9   1200296.78346  23789299.133    23789302.7834   23789309.5384
     -3046.896       -2374.205
  -1106541.484 8   -852062.13545  24859296.501    24859299.2534   24859307.0144
      2972.298        2316.076
 97  4 29 15 41  0.0000000  0  9 31 26 27  2  7 19 10 18 15          0.000235306
   1400573.256 9   1081090.99047  23301196.555    23301200.1784   23301205.3034
     -2303.882       -1795.233
  -2445213.072 9  -1884934.10946  24558272.279    24558275.7514   24558281.4164
      3653.758        2847.084
   -993175.193 9   -766247.71948  20314636.991    20314639.8694   20314644.9264
      1391.538        1084.315
  -1119307.762 9   -861751.51649  21470271.642    21470274.3204   21470280.0564
      1617.002        1260.002
  -2674256.217 9  -2054698.14847  23030241.925    23030244.9164   23030251.4604
      4054.783        3159.571
    604862.125 9    467015.53948  21521239.893    21521243.0564   21521248.8654
     -1054.676        -821.825
    762416.791 9    588840.88846  24715917.693    24715919.6274   24715926.3234
     -1271.379        -990.685
   1948858.177 9   1271595.80246  23806710.860    23806714.8944   23806721.5414
     -3051.920       -2378.119
  -1195568.173 8   -921433.41946  24842354.680    24842357.8224   24842365.5154
      2963.848        2309.492
 97  4 29 15 41 30.0000000  0  9 31 26 27  2  7 19 10 18 15          0.000222110
   1469924.850 9   1135131.14747  23314393.872    23314397.4204   23314402.4934
     -2319.355       -1807.290
  -2554653.631 9  -1970212.47147  24537446.550    24537449.9514   24537455.5684
      3642.643        2838.423
  -1034706.568 9   -798609.82748  20306733.802    20306736.7424   20306741.7864
      1377.409        1073.306
  -1167645.523 9   -899417.29949  21461073.259    21461075.9534   21461081.6904
      1605.624        1251.136
  -2795751.741 9  -2149369.96847  23007122.099    23007125.0734   23007131.6134
      4045.026        3151.968
    636708.981 9    491831.25148  21527300.209    21527303.3464   21527309.1354
     -1068.161        -832.333
    800727.956 9    618693.66346  24723207.918    24723209.8714   24723217.0614
     -1282.451        -999.312
   2040505.002 9   1343008.86146  23824151.565    23824154.7834   23824161.5054
     -3057.605       -2382.549
  -1284337.870 8   -990604.54246  24825462.674    24825465.6824   24825473.3244
      2954.301        2302.053
 97  4 29 15 42  0.0000000  0  9 31 26 27  2  7 19 10 18 15          0.000208952
   1539708.988 9   1189508.34547  23327673.808    23327676.9304   23327681.9654
     -2332.902       -1817.846
  -2663801.325 9  -2055262.60946  24516676.185    24516679.8374   24516685.5584
      3633.862        2831.581
  -1075843.139 9   -830664.30948  20298905.754    20298908.7424   20298913.7594
      1365.094        1063.710
  -1215663.079 9   -936833.58049  21451935.797    21451938.5344   21451944.2704
      1595.714        1243.414
  -2916985.542 9  -2243837.85347  22984052.091    22984055.0404   22984061.5694
      4037.353        3145.989
    668926.806 9    516936.02448  21533431.145    21533434.2564   21533439.9824
     -1079.498        -841.167
    839332.755 9    648775.21246  24730554.028    24730556.3554   24730563.4644
     -1291.163       -1006.101
   2132284.115 9   1414525.01546  23841617.113    23841619.8584   23841626.5874
     -3061.083       -2385.259
  -1372853.104 8  -1059577.38245  24808618.534    24808621.6314   24808629.2864
      2946.752        2296.170
 97  4 29 15 42 30.0000000  0  9 31 26 27  2  7 19 10 18 15          0.000195831
   1609925.208 9   1244222.23547  23341035.598    23341038.5714   23341043.7414
     -2347.633       -1829.324
  -2772649.770 9  -2140079.53546  24495963.774    24495966.7574   24495972.4754
      3623.331        2823.375
  -1116587.536 9   -862413.19648  20291152.336    20291155.3944   20291160.3914
      1351.824        1053.369
  -1263375.048 9   -974011.73449  21442856.496    21442859.2814   21442864.9884
      1585.673        1235.589
  -3037965.486 9  -2338107.93947  22961030.801    22961033.3954   22961039.8624
      4028.521        3139.107
    701500.525 9    542318.11948  21539629.631    21539632.8894   21539638.6024
     -1091.526        -850.540
    878208.525 9    679067.96346  24737951.639    24737954.2004   24737961.5414
     -1300.006       -1012.992
   2224192.668 9   1486142.01946  23859107.146    23859109.4784   23859116.2824
     -3065.623       -2388.797
  -1461110.343 9  -1128349.21046  24791824.113    24791826.7344   24791834.5684
      2937.747        2289.153
 97  4 29 15 43  0.0000000  0  9 31 26 27  2  7 19 10 18 15          0.000182740
   1680556.745 9   1299259.74947  23354476.594    23354479.3264   23354484.4664
     -2361.562       -1840.178
  -2881201.516 9  -2224665.25446  24475306.291    24475310.0334   24475315.8054
      3613.091        2815.396
  -1156953.160 9   -893866.92748  20283471.047    20283474.0654   20283479.0804
      1338.742        1043.176
  -1310800.316 9  -1010966.48549  21433831.714    21433834.5464   21433840.2904
      1575.718        1227.832
  -3158701.791 9  -2432188.16347  22938055.185    22938058.0514   22938064.4814
      4020.076        3132.527
    734421.089 9    567970.48848  21545894.417    21545897.5234   21545903.2294
     -1103.537        -859.899
    917330.608 9    709552.68446  24745396.779    24745398.7964   24745406.2404
     -1308.455       -1019.575
   2316216.252 9   1557848.66446  23876618.620    23876620.9924   23876627.7694
     -3069.825       -2392.071
  -1549111.516 9  -1196921.51246  24775077.483    24775080.6574   24775088.3504
      2928.692        2282.098
 97  4 29 15 43 30.0000000  0  9 31 26 27  2  7 19 10 18 15          0.000169681
   1751599.199 9   1354617.46147  23367995.949    23367998.2884   23368003.3964
     -2374.673       -1850.395
  -2989449.529 9  -2309014.34546  24454707.565    24454711.1544   24454716.8064
      3603.431        2807.868
  -1196919.252 9   -925009.33848  20275865.750    20275868.8044   20275873.8044
      1325.517        1032.870
  -1357928.501 9  -1047689.74549  21424863.416    21424866.3174   21424872.0664
      1566.139        1220.368
  -3279175.484 9  -2526063.76047  22915129.480    22915132.6584   22915139.0904
      4011.397        3125.764
    767695.703 9    593898.73548  21552226.288    21552229.4784   21552235.1794
     -1114.656        -868.563
    956703.812 9    740233.12746  24752888.911    24752891.2494   24752898.5524
     -1316.643       -1025.956
   2408365.651 9   1629653.35046  23894154.262    23894156.5394   23894163.2274
     -3073.721       -2395.107
  -1636846.094 9  -1265286.04846  24758381.870    24758385.3404   24758392.8654
      2920.229        2275.503
 97  4 29 15 44  0.0000000  0  9 31 26 27  2  7 19 10 18 15          0.000156649
   1823037.073 9   1410283.29747  23381590.332    23381592.5474   23381597.6644
     -2387.720       -1860.561
  -3097392.312 9  -2393125.65146  24434166.827    24434170.2784   24434175.9224
      3592.916        2799.675
  -1236475.013 9   -955832.00748  20268338.538    20268341.5734   20268346.6034
      1312.009        1022.345
  -1404766.158 9  -1084186.62149  21415950.486    21415953.4014   21415959.1554
      1556.897        1213.166
  -3399379.491 9  -2619729.20147  22892255.346    22892258.5514   22892265.0314
      4002.367        3118.727
    801305.549 9    620088.20648  21558622.021    21558625.2514   21558630.9374
     -1125.802        -877.248
    996339.202 9    771117.75546  24760430.869    24760433.5964   24760440.8354
     -1325.573       -1032.914
   2500649.670 9   1701562.93146  23911715.363    23911717.6554   23911724.3484
     -3078.566       -2398.883
  -1724314.643 9  -1333443.31646  24741737.309    24741740.5624   24741748.0794
      2911.233        2268.493
 97  4 29 15 44 30.0000000  0  9 31 26 27  2  7 19 10 18 15          0.000143657
   1894848.920 9   1466240.53547  23395255.821    23395257.9264   23395263.0554
     -2399.585       -1869.806
  -3205024.636 9  -2476995.02346  24413684.918    24413688.4304   24413694.0814
      3582.892        2791.864
  -1275645.926 9   -986354.79448  20260884.498    20260887.5794   20260892.6354
      1299.604        1012.678
  -1451352.781 9  -1120487.88649  21407085.260    21407088.2474   21407094.0004
      1549.025        1207.032
  -3519312.187 9  -2713183.23647  22869432.347    22869436.0234   22869442.5154
      3993.321        3111.679
    835250.195 9    646538.55448  21565081.458    21565084.7204   21565090.3574
     -1137.197        -886.128
   1036240.970 9    802210.01846  24768023.889    24768026.7734   24768034.0554
     -1334.376       -1039.774
   2593088.647 9   1773593.25146  23929305.729    23929308.2544   23929314.9174
     -3083.943       -2403.072
  -1811518.583 9  -1401394.43946  24725142.946    24725146.1794   24725153.7514
      2902.577        2261.748
 97  4 29 15 45  0.0000000  0  9 31 26 27  2  7 19 10 18 15          0.000130704
   1967004.519 9   1522465.62547  23408986.626    23408988.6994   23408993.8154
     -2410.301       -1878.157
  -3312364.382 9  -2560636.38446  24393258.640    24393262.3244   24393267.9274
      3573.638        2784.653
  -1314452.215 9  -1016593.46448  20253499.801    20253502.9644   20253508.0534
      1287.983        1003.623
  -1497700.891 9  -1156603.28949  21398265.506    21398268.5334   21398274.2464
      1541.495        1201.165
  -3638974.858 9  -2806426.85347  22846661.101    22846664.8674   22846671.3894
      3984.845        3105.074
    869540.929 9    673258.57848  21571606.704    21571610.0854   21571615.7104
     -1148.123        -894.641
   1076409.001 9    833509.67246  24775667.779    24775670.3804   24775678.0334
     -1342.894       -1046.411
   2685698.235 9   1845756.52946  23946929.227    23946931.3544   23946937.9594
     -3089.378       -2407.307
  -1898467.030 8  -1469146.35045  24708597.489    24708600.2724   24708607.9494
      2894.565        2255.505
 97  4 29 15 45 30.0000000  0  9 31 26 27  2  7 19 10 18 15          0.000117800
   2039518.477 9   1578969.98447  23422784.938    23422787.6024   23422792.8364
     -2423.943       -1888.787
  -3419382.531 9  -2644027.11746  24372893.739    24372897.4014   24372903.1604
      3561.112        2774.892
  -1352871.767 9  -1046530.77748  20246188.739    20246191.9614   20246197.0774
      1273.373         992.239
  -1543789.226 9  -1192516.26549  21389495.247    21389498.2564   21389503.9524
      1531.173        1193.122
  -3758346.109 9  -2899443.37347  22823945.259    22823949.2924   22823955.7744
      3973.548        3096.271
    904186.831 9    700255.36348  21578199.756    21578203.0224   21578208.6734
     -1161.478        -905.048
   1116862.669 9    865032.00246  24783365.939    24783368.5724   24783376.1154
     -1353.752       -1054.872
   2778504.978 9   1918073.44546  23964589.490    23964591.9434   23964598.4544
     -3097.437       -2413.587
  -1985141.166 9  -1536684.64045  24692104.383    24692106.9164   24692114.2544
      2883.846        2247.153
 97  4 29 15 46  0.0000000  0  9 31 26 27  2  7 19 10 18 15          0.000104980
   2112405.335 9   1635764.88347  23436653.800    23436657.4594   23436662.8374
     -2435.746       -1897.984
  -3526055.283 9  -2727148.69446  24352594.859    24352598.1894   24352604.0474
      3549.957        2766.200
  -1390893.106 9  -1076157.79648  20238953.540    20238956.7944   20238961.8714
      1260.899         982.519
  -1589613.383 9  -1228223.39749  21380775.271    21380778.1914   21380783.9164
      1523.285        1186.975
  -3877433.714 9  -2992238.88147  22801283.933    22801287.6744   22801294.1394
      3965.189        3089.758
    939201.593 9    727539.57048  21584862.550    21584866.0854   21584871.8084
     -1173.431        -914.362
   1157590.871 9    896768.16445  24791115.610    24791118.5944   24791126.4574
     -1361.729       -1061.088
   2871502.372 9   1990538.90046  23982286.243    23982288.7304   23982295.2694
     -3102.741       -2417.720
  -2071529.015 8  -1603999.82545  24675665.044    24675667.8524   24675675.0574
      2874.891        2240.175
 97  4 29 15 46 30.0000000  0  9 31 26 27  2  7 19 10 18 15          0.000092180
   2185651.017 9   1692839.41047  23450592.241    23450595.6864   23450601.0714
     -2447.453       -1907.106
  -3632397.820 9  -2810012.95146  24332357.849    24332361.7864   24332367.8014
      3539.347        2757.933
  -1428534.035 9  -1105488.39748  20231790.745    20231793.9924   20231799.0474
      1248.022         972.485
  -1635199.451 9  -1263745.00449  21372100.440    21372103.4454   21372109.1704
      1515.345        1180.788
  -3996276.890 9  -3084843.90847  22778668.835    22778672.5514   22778679.0624
      3957.562        3083.814
    974582.877 9    755109.37748  21591595.227    21591598.8924   21591604.7054
     -1185.320        -923.626
   1198547.602 9    928682.57445  24798909.762    24798912.6034   24798920.0834
     -1368.959       -1066.721
   2964651.899 9   2063122.91746  24000012.289    24000014.4964   24000020.9924
     -3107.097       -2421.115
  -2157646.633 8  -1671104.30645  24659276.424    24659280.1204   24659287.4234
      2866.071        2233.302
 97  4 29 15 47  0.0000000  0  9 31 26 27  2  7 19 10 18 15          0.000079402
   2259252.289 9   1750191.01047  23464598.491    23464601.5944   23464607.0664
     -2459.846       -1916.763
  -3738416.672 9  -2892625.00146  24312183.326    24312187.0784   24312193.0704
      3528.024        2749.110
  -1465776.716 9  -1134508.67048  20224703.629    20224706.9644   20224711.9864
      1234.271         961.770
  -1680528.495 9  -1299066.33049  21363474.515    21363477.5834   21363483.3304
      1506.169        1173.638
  -4114890.106 9  -3177269.74247  22756097.893    22756101.1994   22756107.7584
      3949.493        3077.527
   1010310.671 9    782949.19648  21598394.098    21598397.6474   21598403.5044
     -1196.774        -932.551
   1239726.526 9    960769.97146  24806746.236    24806748.8534   24806756.3954
     -1376.897       -1072.907
   3057906.098 9   2135788.46746  24017757.400    24017760.1544   24017766.6294
     -3110.210       -2423.540
  -2243496.663 8  -1738000.40445  24642939.733    24642943.4484   24642950.5264
      2856.750        2226.039
 97  4 29 15 47 30.0000000  0  9 31 26 27  2  7 19 10 18 15          0.000066651
   2333234.967 9   1807839.81947  23478676.725    23478680.0574   23478685.5424
     -2472.688       -1926.770
  -3844084.299 9  -2974963.39047  24292075.516    24292079.3124   24292085.2034
      3516.296        2739.971
  -1502594.296 9  -1163197.68948  20217697.530    20217700.8334   20217705.8454
      1219.997         950.647
  -1725568.748 9  -1334162.62249  21354903.575    21354906.6964   21354912.4364
      1496.227        1165.891
  -4233252.497 9  -3269500.12947  22733574.153    22733577.5744   22733584.1954
      3941.006        3070.914
   1046390.488 9    811063.31848  21605260.063    21605263.4154   21605269.2914
     -1208.920        -942.016
   1281158.631 9    993054.73946  24814630.152    24814633.2574   24814640.6784
     -1385.455       -1079.575
   3151246.925 9   2208521.54046  24035519.130    24035522.3394   24035528.7774
     -3112.777       -2425.541
  -2329054.419 8  -1804668.72845  24626658.791    24626662.3704   24626669.2994
      2846.685        2218.196
 97  4 29 15 48  0.0000000  0  9 31 26 27  2  7 19 10 18 15          0.000053941
   2407619.310 9   1865801.60647  23492832.066    23492835.0364   23492840.4874
     -2485.728       -1936.931
  -3949385.267 9  -3057016.10646  24272037.449    24272041.3224   24272047.0004
      3504.457        2730.746
  -1538976.959 9  -1191547.81648  20210774.216    20210777.4384   20210782.4874
      1206.030         939.764
  -1770295.849 9  -1369014.89949  21346392.309    21346395.4174   21346401.1514
      1486.097        1157.998
  -4351351.244 9  -3361525.07847  22711100.595    22711104.0974   22711110.7244
      3932.660        3064.410
   1082855.789 9    839477.82148  21612199.461    21612202.5614   21612208.3934
     -1221.455        -951.783
   1322870.524 9   1025557.46046  24822567.908    24822570.8154   24822578.3934
     -1394.861       -1086.905
   3244676.630 9   2281323.87646  24053298.541    24053301.4524   24053307.9294
     -3115.407       -2427.590
  -2414296.701 8  -1871091.17345  24610437.572    24610441.4214   24610448.4614
      2836.511        2210.268
 97  4 29 15 48 30.0000000  0  9 31 26 27  2  7 19 10 18 15          0.000041236
   2482348.149 9   1924031.82047  23507052.893    23507055.5554   23507060.9574
     -2497.252       -1945.911
  -4054380.811 9  -3138830.83146  24252057.552    24252061.2794   24252066.8534
      3494.249        2722.791
  -1574979.666 9  -1219601.87748  20203923.075    20203926.3714   20203931.4374
      1193.057         929.655
  -1814756.109 9  -1403659.24449  21337931.979    21337934.9364   21337940.6274
      1476.845        1150.788
  -4469228.732 9  -3453377.63247  22688669.615    22688672.7654   22688679.3754
      3924.819        3058.301
   1119640.577 9    868141.26548  21619199.244    21619202.5164   21619208.3454
     -1231.759        -959.812
   1364828.668 9   1058251.96146  24830552.012    24830555.1344   24830562.8524
     -1403.349       -1093.519
   3338150.624 9   2354160.71946  24071086.009    24071088.9574   24071095.3774
     -3117.278       -2429.048
  -2499274.822 8  -1937307.83545  24594267.982    24594270.6914   24594277.6804
      2827.588        2203.315
 97  4 29 15 49  0.0000000  0  9 31 26 27  2  7 19 10 18 15          0.000028558
   2557447.350 9   1982550.65047  23521343.914    23521346.4824   23521351.8194
     -2509.058       -1955.110
  -4159040.017 9  -3220383.44146  24232141.221    24232145.2354   24232150.7814
      3483.449        2714.376
  -1610568.994 9  -1247333.82648  20197150.778    20197153.9474   20197159.0244
      1180.064         919.530
  -1858905.815 9  -1438061.60049  21329530.491    21329533.5434   21329539.2364
      1466.962        1143.087
  -4586839.474 9  -3545022.32347  22666289.291    22666292.1754   22666298.7804
      3916.158        3051.552
   1156759.914 9    897065.40748  21626262.948    21626266.1654   21626271.9564
     -1242.555        -968.225
   1407063.283 9   1091161.98246  24838589.012    24838592.3084   24838599.8214
     -1411.778       -1100.087
   3431715.053 9   2427068.03146  24088890.659    24088893.6524   24088900.1054
     -3120.246       -2431.361
  -2583956.701 8  -2003293.62746  24578153.945    24578156.2364   24578163.0814
      2818.170        2195.977
 97  4 29 15 49 30.0000000  0  9 31 26 27  2  7 19 10 18 15          0.000015920
   2632915.253 9   2041356.75947  23535704.927    23535707.5604   23535712.8354
     -2521.665       -1964.934
  -4263354.516 9  -3301667.44346  24212290.679    24212294.7974   24212300.4024
      3471.536        2705.093
  -1645750.933 9  -1274748.33348  20190455.896    20190459.0644   20190464.1314
      1165.959         908.539
  -1902740.829 9  -1472218.74849  21321188.920    21321191.9944   21321197.6854
      1455.974        1134.525
  -4704174.139 9  -3636451.90247  22643961.326    22643964.1124   22643970.6854
      3906.594        3044.099
   1194236.404 9    926267.84648  21633394.600    21633397.7864   21633403.5154
     -1255.321        -978.172
   1449557.498 9   1124274.37346  24846675.695    24846678.8304   24846686.4114
     -1420.353       -1106.769
   3525402.013 9   2500070.81746  24106718.891    24106721.7954   24106728.2314
     -3125.082       -2435.129
  -2668333.600 8  -2069041.82646  24562097.438    24562099.7724   24562106.6954
      2807.415        2187.596
 97  4 29 15 50  0.0000000  0  9 31 26 27  2  7 19 10 18 15          0.000003301
   2708729.751 9   2100432.95147  23550132.045    23550134.6684   23550139.8804
     -2533.425       -1974.097
  -4367343.135 9  -3382697.49847  24192502.472    24192506.4104   24192512.0344
      3460.247        2696.296
  -1680537.011 9  -1301854.37748  20183836.380    20183839.5054   20183844.5714
      1152.078         897.723
  -1946283.134 9  -1506147.80949  21312903.220    21312906.1864   21312911.8514
      1446.047        1126.790
  -4821247.669 9  -3727678.00847  22621682.814    22621685.6964   22621692.2724
      3897.345        3036.892
   1232057.191 9    955738.56648  21640591.648    21640594.9294   21640600.5664
     -1266.726        -987.059
   1492267.177 9   1157554.62145  24854803.165    24854806.2664   24854813.6574
     -1427.804       -1112.574
   3619213.036 9   2573170.24346  24124571.102    24124573.5004   24124579.9404
     -3129.818       -2438.819
  -2752420.135 8  -2134563.76746  24546096.260    24546098.4624   24546105.5334
      2797.399        2179.791
 97  4 29 15 50 30.0000000  0  9 31 26 27  2  7 19 10 18 15         -0.000009264
   2784894.118 9   2159781.76047  23564625.780    23564628.3794   23564633.5024
     -2543.262       -1981.763
  -4470992.456 9  -3463463.20847  24172778.735    24172782.7244   24172788.3354
      3450.609        2688.786
  -1714893.880 9  -1328625.97248  20177298.517    20177301.6374   20177306.6694
      1139.428         887.866
  -1989521.123 9  -1539839.74049  21304675.256    21304678.2914   21304683.9144
      1437.603        1120.210
  -4938026.564 9  -3818674.52347  22599460.358    22599463.3484   22599469.9494
      3888.902        3030.313
   1270225.913 9    985480.40348  21647855.150    21647858.2314   21647863.8504
     -1276.982        -995.051
   1535198.252 9   1191007.53146  24862972.786    24862975.9314   24862983.3234
     -1433.215       -1116.791
   3713175.615 9   2646387.79946  24142451.591    24142454.1434   24142460.5774
     -3133.230       -2441.478
  -2836195.046 9  -2199842.89646  24530154.021    24530156.7864   24530163.6744
      2788.574        2172.915
 97  4 29 15 50 59.9990000  0  9 31 26 27  2  7 19 10 18 15         -0.000021807
   2861370.468 9   2219373.69147  23579178.638    23579181.4134   23579186.5824
     -2554.457       -1990.486
  -4574323.194 9  -3543980.66647  24153115.752    24153119.5974   24153125.2234
      3439.196        2679.893
  -1748849.669 9  -1355085.03448  20170837.010    20170840.0754   20170845.0924
      1125.335         876.884
  -2032485.674 9  -1573318.60049  21296499.351    21296502.4004   21296508.0124
      1427.879        1112.633
  -5054524.986 9  -3909452.49347  22577291.388    22577294.4674   22577301.0044
      3878.832        3022.466
   1308735.609 9   1015487.94148  21655183.222    21655186.3514   21655192.0334
     -1289.434       -1004.754
   1578304.218 9   1224596.48746  24871175.712    24871178.6664   24871186.2434
     -1439.780       -1121.906
   3807254.223 9   2719695.78946  24160353.708    24160356.7674   24160363.2544
     -3137.898       -2445.115
  -2919675.970 8  -2264892.96046  24514268.139    24514270.8204   24514277.6904
      2777.995        2164.671
 97  4 29 15 51 29.9990000  0  9 31 26 27  2  7 19 10 18 15         -0.000034328
   2938166.728 9   2279214.88247  23593792.721    23593795.3504   23593800.5714
     -2565.718       -1999.261
  -4677333.654 9  -3624248.53946  24133513.668    24133517.3134   24133522.9464
      3427.819        2671.028
  -1782397.010 9  -1381225.82648  20164453.124    20164456.2274   20164461.2334
      1110.815         865.570
  -2075188.810 9  -1606593.76649  21288373.240    21288376.2614   21288381.8554
      1418.847        1105.595
  -5170749.126 9  -4000016.74647  22555174.485    22555177.8044   22555184.2684
      3869.121        3014.899
   1347599.319 9   1045771.33248  21662578.805    21662581.8654   21662587.6174
     -1301.634       -1014.260
   1621600.185 7   1258333.51545  24879414.561    24879417.4234   24879425.3084
     -1446.869       -1127.430
   3901445.101 9   2793091.22546  24178277.859    24178280.7424   24178287.2664
     -3141.677       -2448.060
  -3002862.445 9  -2329713.55546  24498438.396    24498441.0304   24498447.7954
      2767.451        2156.455
 97  4 29 15 51 59.9990000  0  9 31 26 27  2  7 19 10 18 15         -0.000046815
   3015311.084 9   2339327.31447  23608472.691    23608475.4224   23608480.7664
     -2576.806       -2007.901
  -4779993.569 9  -3704243.25146  24113978.289    24113981.7584   24113987.3514
      3416.454        2662.172
  -1815503.219 9  -1407022.88048  20158153.203    20158156.3214   20158161.3494
      1096.726         854.592
  -2117630.629 9  -1639665.31349  21280296.914    21280299.8614   21280305.4534
      1410.959        1099.448
  -5286671.487 9  -4090345.85647  22533115.137    22533118.5374   22533124.9364
      3859.413        3007.335
   1386816.654 9   1076330.27548  21670041.629    21670044.6804   21670050.5044
     -1312.533       -1022.753
   1665119.062 8   1292244.22146  24887695.929    24887698.6674   24887706.5564
     -1454.089       -1133.056
   3995747.100 9   2866573.26946  24196223.727    24196225.8294   24196232.4194
     -3144.705       -2450.419
  -3085730.359 8  -2394285.94546  24482669.199    24482671.6444   24482678.5794
      2757.467        2148.676
 97  4 29 15 52 29.9990000  0  9 31 26 27  2  7 19 10 18 15         -0.000059272
   3092789.041 9   2399699.70447  23623216.103    23623218.9234   23623224.3814
     -2588.458       -2016.980
  -4882302.785 9  -3783964.71946  24094509.434    24094512.9444   24094518.4634
      3404.235        2652.651
  -1848190.100 9  -1432493.17748  20151933.198    20151936.2434   20151941.2574
      1082.652         843.625
  -2159826.797 9  -1672545.43349  21272267.197    21272270.2024   21272275.8044
      1402.493        1092.852
  -5402299.050 9  -4180445.23747  22511111.906    22511115.2974   22511121.6814
      3849.303        2999.457
   1426377.021 9   1107156.51948  21677569.624    21677572.7944   21677578.6224
     -1324.611       -1032.164
   1708864.467 9   1326331.49046  24896020.897    24896023.2564   24896031.1114
     -1461.986       -1139.210
   4090144.530 9   2940129.67246  24214187.148    24214189.0944   24214195.7624
     -3148.064       -2453.037
  -3168289.465 8  -2458617.64246  24466958.036    24466960.9124   24466967.9874
      2746.676        2140.267
 97  4 29 15 52 59.9990000  0  9 31 26 27  2  7 19 10 18 15         -0.000071687
   3170620.529 9   2460347.56946  23638026.888    23638029.7904   23638035.2904
     -2600.251       -2026.170
  -4984242.652 9  -3863398.37747  24075110.823    24075114.3944   24075119.8784
      3391.763        2642.932
  -1880459.603 9  -1457638.25448  20145792.536    20145795.5604   20145800.5774
      1068.608         832.682
  -2201786.933 9  -1705241.63749  21264282.515    21264285.4864   21264291.0994
      1394.856        1086.901
  -5517633.582 9  -4270316.28847  22489164.431    22489167.8524   22489174.2444
      3839.748        2992.011
   1466287.220 9   1138255.34848  21685164.077    21685167.4494   21685173.2844
     -1335.885       -1040.949
   1752841.285 9   1360599.09146  24904389.559    24904391.8594   24904399.8784
     -1469.868       -1145.352
   4184631.053 9   3013755.49046  24232167.368    24232169.2584   24232175.9624
     -3150.944       -2455.281
  -3250534.075 8  -2522704.28445  24451307.496    24451309.9834   24451317.2174
      2736.267        2132.156
 97  4 29 15 53 29.9990000  0  9 31 26 27  2  7 19 10 18 15         -0.000084070
   3248793.421 9   2521261.47146  23652902.114    23652905.5644   23652911.1124
     -2611.775       -2035.149
  -5085817.135 9  -3942547.29947  24055782.116    24055785.4294   24055790.9024
      3379.384        2633.286
  -1912317.918 9  -1482462.92348  20139730.183    20139733.1914   20139738.1834
      1054.813         821.932
  -2243530.971 9  -1737769.45449  21256338.969    21256341.8964   21256347.4724
      1387.532        1081.194
  -5632693.310 9  -4359973.21547  22467269.343    22467272.6734   22467279.1094
      3830.245        2984.606
   1506520.626 9   1169606.03848  21692820.367    21692823.5884   21692829.4614
     -1346.888       -1049.523
   1797043.505 9   1395042.43646  24912800.977    24912803.4614   24912811.0854
     -1477.374       -1151.201
   4279184.981 9   3087433.85046  24250160.245    24250162.2634   24250169.0164
     -3153.108       -2456.967
  -3332476.036 8  -2586555.07945  24435713.759    24435716.7714   24435724.0514
      2725.938        2124.108
 97  4 29 15 53 59.9990000  0  9 31 26 27  2  7 19 10 18 15         -0.000096413
   3327306.723 9   2582440.60346  23667842.313    23667846.1244   23667851.7714
     -2622.403       -2043.431
  -5187022.126 9  -4021408.30247  24036523.266    24036526.7954   24036532.2664
      3367.660        2624.151
  -1943771.987 9  -1506972.59548  20133744.698    20133747.7164   20133752.7044
      1042.070         812.003
  -2285051.430 9  -1770123.04949  21248437.928    21248440.8144   21248446.3444
      1380.360        1075.605
  -5747462.100 9  -4449403.42947  22445429.542    22445432.8354   22445439.3404
      3820.875        2977.305
   1547085.921 9   1201215.33348  21700539.738    21700542.9174   21700548.8044
     -1357.643       -1057.904
   1841467.293 8   1429658.45145  24921254.743    24921256.9544   24921264.6844
     -1484.263       -1156.569
   4373804.311 9   3161163.15546  24268165.744    24268167.8084   24268174.6134
     -3154.918       -2458.378
  -3414103.612 8  -2650160.86345  24420180.145    24420183.5364   24420190.7804
      2715.732        2116.155
 97  4 29 15 54 29.9990000  0  9 31 26 27  2  7 19 10 18 15         -0.000108709
   3406158.091 9   2643883.18946  23682847.256    23682851.1524   23682856.7854
     -2634.146       -2052.581
  -5287854.424 9  -4099978.90246  24017335.620    24017339.0394   24017344.5604
      3355.006        2614.290
  -1974816.450 9  -1531163.09148  20127837.170    20127840.1854   20127845.1704
      1027.921         800.977
  -2326321.017 9  -1802281.15849  21240584.592    21240587.4574   21240592.9574
      1371.429        1068.646
  -5861922.414 9  -4538593.27047  22423648.303    22423651.7454   22423658.2824
      3810.238        2969.017
   1588012.202 9   1233105.91648  21708327.986    21708330.9604   21708336.8814
     -1370.179       -1067.672
   1886118.352 8   1464451.51545  24929751.333    24929753.9794   24929761.4594
     -1491.986       -1162.586
   4468506.652 9   3234957.12946  24286186.476    24286188.9644   24286195.8334
     -3158.092       -2460.851
  -3495396.964 8  -2713506.22645  24404711.135    24404713.9154   24404720.8984
      2704.135        2107.118
 97  4 29 15 54 59.9990000  0  8 31 26 27  2  7 19 18 15            -0.000120975
   3485333.737 9   2705578.44946  23697913.686    23697917.7624   23697923.4154
     -2644.347       -2060.530
  -5388340.130 9  -4178279.43947  23998214.074    23998217.2734   23998222.7294
      3344.051        2605.754
  -2005459.153 9  -1555040.52848  20122006.044    20122009.0924   20122014.0774
      1014.682         790.661
  -2367351.304 9  -1834252.80049  21232776.718    21232779.6374   21232785.1354
      1363.521        1062.484
  -5976092.965 9  -4627557.31547  22401922.686    22401925.8484   22401932.3774
      3801.005        2961.822
   1629278.592 9   1265261.52348  21716180.744    21716183.7284   21716189.6914
     -1381.062       -1076.152
   4563275.108 9   3308802.67246  24304219.756    24304222.7414   24304229.6474
     -3160.071       -2462.393
  -3576367.513 8  -2776600.02545  24389302.139    24389305.7134   24389312.5314
      2693.772        2099.043
 97  4 29 15 55 29.9990000  0  8 31 26 27  2  7 19 18 15            -0.000133206
   3564840.133 9   2767531.45446  23713043.064    23713047.3344   23713053.0124
     -2655.622       -2069.316
  -5488473.373 9  -4256305.34547  23979159.234    23979162.5774   23979167.9804
      3332.284        2596.585
  -2035677.693 9  -1578587.44748  20116255.729    20116258.7024   20116263.6744
      1000.593         779.683
  -2408104.211 9  -1866008.30849  21225021.714    21225024.6424   21225030.1254
      1353.945        1055.022
  -6089957.131 9  -4716282.61547  22380255.291    22380258.2684   22380264.7474
      3790.513        2953.646
   1670903.927 9   1297696.82448  21724101.772    21724104.7854   21724110.7734
     -1393.246       -1085.646
   4658132.441 9   3382717.47046  24322270.551    24322273.5494   24322280.3724
     -3163.231       -2464.855
  -3656995.751 8  -2839427.10946  24373959.320    24373962.6094   24373969.6114
      2682.113        2089.958
 97  4 29 15 55 59.9990000  0  9 31 26 27  2  7 19 10 18 15         -0.000145405
   3644671.268 9   2829737.48246  23728234.676    23728238.7504   23728244.3414
     -2666.512       -2077.802
  -5588274.551 9  -4334072.48247  23960167.623    23960171.0874   23960176.4084
      3320.997        2587.790
  -2065494.997 9  -1601821.71748  20110581.707    20110584.6874   20110589.6244
       986.956         769.057
  -2448588.271 9  -1897554.32249  21217318.002    21217320.7884   21217326.2974
      1344.823        1047.914
  -6203524.720 9  -4804776.82947  22358644.226    22358647.1774   22358653.5364
      3780.579        2945.906
   1712865.192 9   1330393.88748  21732086.700    21732089.7994   21732095.7364
     -1404.214       -1094.193
     53212.60919     30879.46655  24955473.957           0.0005          0.0005
     -1512.235       -1178.365
   4753073.435 9   3456697.41146  24340337.165    24340340.2404   24340347.1104
     -3166.281       -2467.232
  -3737295.132 8  -2901997.95146  24358679.357    24358682.1614   24358689.0844
      2671.066        2081.350
 97  4 29 15 56 29.9990000  0  9 31 26 27  2  7 19 10 18 15         -0.000157570
   3724836.090 9   2892203.53546  23743489.508    23743493.5944   23743499.1824
     -2677.189       -2086.121
  -5687728.077 9  -4411568.71147  23941242.386    23941245.7594   23941251.0464
      3309.850        2579.104
  -2094882.421 9  -1624721.00848  20104989.413    20104992.4504   20104997.4064
       972.952         758.144
  -2488785.437 9  -1928876.78349  21209668.645    21209671.5264   21209677.0574
      1335.795        1040.879
  -6316787.827 9  -4893033.77247  22337091.108    22337093.9054   22337100.2304
      3771.073        2938.498
   1755160.644 9   1363351.35648  21740135.338    21740138.3934   21740144.2504
     -1414.660       -1102.332
     98686.130 9     66313.34946  24964128.188    24964130.7015   24964138.9984
     -1518.537       -1183.275
   4848114.804 9   3530755.60046  24358422.824    24358426.0534   24358432.8354
     -3168.896       -2469.270
  -3817255.223 8  -2964304.40846  24343464.502    24343466.2364   24343473.1394
      2660.332        2072.986
 97  4 29 15 56 59.9990000  0  9 31 26 27  2  7 19 10 18 15         -0.000169713
   3805327.729 9   2954924.24446  23758806.566    23758810.6964   23758816.3424
     -2688.367       -2094.831
  -5786831.548 9  -4488792.18447  23922384.004    23922387.0854   23922392.3494
      3297.492        2569.474
  -2123834.845 9  -1647281.34248  20099479.916    20099482.9864   20099487.9544
       957.679         746.243
  -2528706.317 9  -1959983.95749  21202071.937    21202074.8234   21202080.3794
      1326.095        1033.321
  -6429754.915 9  -4981060.04847  22315593.895    22315596.9584   22315603.3424
      3760.467        2930.234
   1797776.312 9   1396558.34248  21748244.928    21748247.9634   21748253.7394
     -1425.947       -1111.128
    144350.823 9    101896.18546  24972819.194    24972819.9504   24972828.3214
     -1525.225       -1188.487
   4943231.390 8   3604872.39946  24376523.012    24376526.1234   24376532.9994
     -3171.681       -2471.440
  -3896887.982 8  -3026355.79746  24328309.998    24328312.6154   24328319.5714
      2648.896        2064.075
 97  4 29 15 57 29.9990000  0  9 31 26 27  2  7 19 10 18 15         -0.000181827
   3886140.223 9   3017894.99446  23774185.121    23774188.8714   23774194.4864
     -2699.023       -2103.135
  -5885564.530 9  -4565726.95947  23903595.788    23903598.8194   23903604.0924
      3284.779        2559.568
  -2152336.877 9  -1669490.72348  20094056.181    20094059.2404   20094064.2044
       942.639         734.524
  -2568343.046 9  -1990869.71849  21194529.309    21194532.2084   21194537.7524
      1316.587        1025.912
  -6542404.476 9  -5068838.90447  22294157.304    22294160.4764   22294166.8444
      3749.445        2921.645
   1840727.335 9   1430026.64248  21756418.304    21756421.3364   21756427.0724
     -1437.296       -1119.971
    190216.071 8    137635.33455  24981542.418    24981548.6405   24981555.7815
     -1532.068       -1193.819
   5038424.321 9   3679048.66846  24394637.613    24394640.8534   24394647.7354
     -3174.299       -2473.480
  -3976181.169 8  -3088142.58946  24313220.325    24313223.6094   24313230.5464
      2637.365        2055.090
 97  4 29 15 57 59.9990000  0  9 31 26 27  2  7 19 10 18 15         -0.000193916
   3967245.882 9   3081094.13546  23789619.456    23789622.8094   23789628.4894
     -2707.605       -2109.822
  -5983923.365 9  -4642370.20147  23884878.687    23884881.6454   23884887.0314
      3272.839        2550.264
  -2180392.512 9  -1691352.25648  20088717.415    20088720.4484   20088725.3864
       928.124         723.214
  -2607709.637 9  -2021544.97949  21187038.155    21187041.0114   21187046.5214
      1308.271        1019.432
  -6654728.128 9  -5156363.80447  22272782.546    22272785.9784   22272792.3734
      3739.267        2913.715
   1884005.597 9   1463749.93448  21764653.755    21764656.9424   21764662.6894
     -1447.690       -1128.070
    236256.514 7    173510.96745  24990304.982    24990310.1664   24990317.1064
     -1536.809       -1197.514
   5133679.066 8   3753273.11046  24412764.297    24412767.2564   24412774.1674
     -3175.547       -2474.452
  -4055135.651 8  -3149665.47646  24298195.416    24298199.0074   24298205.8794
      2626.611        2046.710
 97  4 29 15 58 29.9990000  0  9 31 26 27  2  7 19 10 18 15         -0.000205995
   4048612.696 9   3144496.83346  23805102.901    23805106.4564   23805112.1284
     -2716.160       -2116.488
  -6081912.255 9  -4718725.17847  23866231.614    23866234.8714   23866240.3164
      3260.556        2540.693
  -2207999.220 9  -1712863.98148  20083464.072    20083467.0864   20083472.0324
       913.306         711.667
  -2646816.541 9  -2052017.89049  21179596.355    21179599.2304   21179604.7314
      1299.872        1012.887
  -6766734.934 9  -5243641.81447  22251468.469    22251471.7654   22251478.2054
      3728.769        2905.534
   1927621.637 9   1497736.43548  21772953.396    21772956.8024   21772962.5924
     -1459.144       -1136.995
    282436.101 8    209494.99855  24999091.813    24999098.1444   24999101.1305
     -1541.051       -1200.819
   5228973.183 9   3827528.24046  24430898.459    24430901.0954   24430907.9424
     -3176.493       -2475.189
  -4133754.083 9  -3210926.53246  24283235.154    24283238.3304   24283245.0674
      2615.438        2038.004
 97  4 29 15 58 59.9990000  0  9 31 26 27  2  7 19 10 18 15         -0.000218058
   4130233.792 9   3208097.59446  23820634.705    23820638.3854   23820644.2474
     -2724.712       -2123.152
  -6179528.302 9  -4794789.61547  23847656.016    23847659.1454   23847664.5874
      3247.886        2530.820
  -2235168.100 9  -1734034.54148  20078294.021    20078297.0274   20078301.9814
       898.567         700.182
  -2685672.048 9  -2082294.90149  21172202.363    21172205.2584   21172210.7884
      1291.226        1006.150
  -6878418.568 9  -5330667.99947  22230215.774    22230219.0524   22230225.5434
      3717.444        2896.710
   1971587.392 9   1531995.43848  21781319.773    21781323.2474   21781329.0204
     -1471.214       -1146.400
    328748.633 9    245582.66945  25007905.796    25007910.7204   25007916.0494
     -1545.913       -1204.608
   5324302.174 9   3901810.54946  24449038.785    24449041.6544   24449048.5004
     -3178.285       -2476.586
  -4212031.431 8  -3271921.79046  24268339.401    24268342.7104   24268349.2274
      2603.639        2028.810
 97  4 29 15 59 29.9990000  0  9 31 26 27  2  7 19 10 18 15         -0.000230107
   4212089.730 9   3271881.43946  23836211.421    23836215.1644   23836220.9344
     -2732.908       -2129.539
  -6276788.784 9  -4870576.97647  23829147.909    23829151.1174   23829156.5644
      3235.660        2521.294
  -2261929.829 9  -1754887.84248  20073201.400    20073204.4364   20073209.3874
       885.129         689.711
  -2724298.476 9  -2112393.41249  21164852.007    21164854.8604   21164860.4244
      1283.394        1000.047
  -6989789.237 9  -5417450.32547  22209022.368    22209025.9044   22209032.4004
      3706.853        2888.457
   2015886.104 9   1566513.89248  21789749.429    21789753.0444   21789758.8024
     -1482.439       -1155.147
    375180.928 9    281763.70446  25016742.258    25016746.3884   25016752.3724
     -1550.051       -1207.832
   5419664.601 8   3976118.86245  24467185.967    24467188.3614   24467195.4224
     -3179.570       -2477.587
  -4289977.444 8  -3332658.89846  24253506.726    24253510.0844   24253516.5904
      2592.305        2019.978
 97  4 29 15 59 59.9990000  0  9 31 26 27  2  7 19 10 18 15         -0.000242124
   4294214.634 9   3335874.77946  23851838.949    23851843.0644   23851848.9184
     -2743.303       -2137.639
  -6373665.465 9  -4946065.29147  23810712.696    23810716.1204   23810721.5254
      3221.829        2510.516
  -2288274.663 9  -1775416.28848  20068188.185    20068191.2014   20068196.1514
       870.094         677.995
  -2762678.234 9  -2142299.71549  21157548.468    21157551.4254   21157557.0294
      1274.296         992.958
  -7100830.402 9  -5503975.89647  22187892.139    22187895.4434   22187901.9154
      3695.063        2879.270
   2060537.370 9   1601307.05648  21798246.360    21798249.9004   21798255.6794
     -1495.355       -1165.212
    421741.241 9    318044.42646  25025602.796    25025606.4864   25025613.0374
     -1555.241       -1211.876
   5515073.525 8   4050463.46345  24485341.775    24485344.0074   24485350.9574
     -3181.915       -2479.414
  -4367568.759 9  -3393119.61546  24238741.525    24238744.8654   24238751.3904
      2579.403        2009.924
 97  4 29 16  0 29.9990000  0  9 31 26 27  2  7 19 10 18 15         -0.000254112
   4376617.230 9   3400084.57646  23867519.691    23867523.8854   23867529.6384
     -2751.222       -2143.809
  -6470171.168 9  -5021264.52447  23792347.648    23792351.6664   23792357.0854
      3210.897        2501.998
  -2314215.505 9  -1795629.93348  20063251.696    20063254.8254   20063259.7754
       858.345         668.840
  -2800826.382 9  -2172025.54349  21150289.085    21150292.0514   21150297.6624
      1267.960         988.021
  -7211562.464 9  -5590260.60947  22166820.625    22166823.8324   22166830.2704
      3686.161        2872.333
   2105537.606 9   1636372.14348  21806809.499    21806813.1504   21806818.9794
     -1505.379       -1173.023
    468429.817 9    354425.08346  25034487.353    25034490.8394   25034497.8934
     -1558.306       -1214.264
   5610507.845 8   4124827.85046  24503502.557    24503504.7394   24503511.6314
     -3181.372       -2478.991
  -4444815.263 9  -3453311.69446  24224042.540    24224045.3334   24224051.7514
      2569.385        2002.118
 97  4 29 16  0 59.9990000  0  9 31 26 27  2  7 19 10 18 15         -0.000266087
   4459265.210 9   3464485.53846  23883247.626    23883251.2684   23883257.1114
     -2759.442       -2150.215
  -6566337.361 9  -5096199.21147  23774047.931    23774051.7944   23774057.2054
      3199.399        2493.038
  -2339801.668 9  -1815567.20848  20058382.847    20058385.9664   20058390.9054
       846.571         659.666
  -2838775.616 9  -2201596.36449  21143067.561    21143070.5354   21143076.1314
      1261.301         982.832
  -7322019.748 9  -5676331.20347  22145801.281    22145804.5044   22145810.9144
      3677.046        2865.231
   2150837.406 9   1671670.66248  21815429.844    21815433.4264   21815439.2634
     -1515.312       -1180.763
    515223.945 8    390888.03446  25043392.057    25043395.5054   25043402.6874
     -1561.867       -1217.039
   5705936.829 8   4199187.99645  24521662.378    24521664.3234   24521671.3304
     -3181.325       -2478.955
  -4521750.724 9  -3513261.38846  24209401.858    24209405.0244   24209411.3704
      2558.928        1993.970
 97  4 29 16  1 29.9990000  0  9 31 26 27  2  7 19 10 18 15         -0.000278023
   4542204.579 9   3529113.57846  23899030.949    23899034.2254   23899040.0674
     -2769.608       -2158.136
  -6662114.451 9  -5170830.69847  23755822.512    23755825.9924   23755831.4264
      3185.903        2482.522
  -2364987.214 9  -1835192.31248  20053590.111    20053593.3114   20053598.2934
       832.621         648.796
  -2876485.257 9  -2230980.49149  21135891.656    21135894.6574   21135900.2214
      1252.713         976.140
  -7432168.270 9  -5762161.20248  22124840.238    22124843.8914   22124850.2824
      3666.429        2856.958
   2196474.169 9   1707231.74648  21824114.019    21824117.7764   21824123.6844
     -1526.953       -1189.833
    562160.765 8    427462.02245  25052323.787    25052327.2224   25052334.5264
     -1567.072       -1221.095
   5801399.629 8   4273574.58745  24539828.233    24539830.4644   24539836.8584
     -3182.605       -2479.952
  -4598331.394 9  -3572934.64046  24194828.764    24194832.0804   24194838.6384
      2546.625        1984.383
 97  4 29 16  1 59.9990000  0  9 31 26 27  2  7 19 10 18 15         -0.000289929
   4625432.966 9   3593966.81946  23914868.681    23914872.0014   23914877.8714
     -2778.658       -2165.188
  -6757499.876 9  -5245156.99147  23737670.800    23737674.7114   23737680.1324
      3173.603        2472.937
  -2389755.370 9  -1854492.17748  20048876.804    20048880.1024   20048885.0784
       818.818         638.040
  -2913943.904 9  -2260169.03849  21128763.409    21128766.4664   21128772.0634
      1244.870         970.029
  -7542012.112 9  -5847753.78947  22103937.707    22103941.2534   22103947.6644
      3656.770        2849.431
   2242450.556 9   1743057.47848  21832863.145    21832866.8254   21832872.7674
     -1537.886       -1198.353
    609249.405 8    464154.46945  25061284.788    25061287.9714   25061295.2654
     -1572.020       -1224.951
   5896886.177 8   4347979.72745  24557997.809    24558001.1274   24558007.3884
     -3182.959       -2480.228
  -4674551.218 8  -3632326.68946  24180324.140    24180327.7954   24180334.2984
      2535.017        1975.338
 97  4 29 16  2 29.9990000  0  9 31 26 27  2  7 19 10 18 15         -0.000301804
   4708944.484 9   3659040.66146  23930760.858    23930763.8264   23930769.7524
     -2787.998       -2172.466
  -6852497.781 9  -5319181.33447  23719593.295    23719597.2264   23719602.5904
      3160.289        2462.563
  -2414087.437 9  -1873452.22948  20044246.566    20044249.8854   20044254.8464
       804.152         626.612
  -2951138.559 9  -2289151.87449  21121685.462    21121688.5514   21121694.1674
      1235.573         962.784
  -7651543.079 9  -5933102.57748  22083094.684    22083098.1984   22083104.5674
      3646.008        2841.045
   2288772.232 9   1779152.26648  21841677.646    21841681.5604   21841687.5114
     -1549.390       -1207.317
    656524.113 8    500991.68045  25070281.162    25070283.8104   25070291.6574
     -1578.586       -1230.067
   5992414.956 8   4422417.61745  24576175.841    24576179.5424   24576186.1164
     -3184.954       -2481.782
  -4750400.675 9  -3691430.16646  24165890.161    24165894.1184   24165900.7084
      2522.405        1965.510
 97  4 29 16  2 59.9990000  0  9 31 26 27  2  7 19 10 18 15         -0.000313658
   4792713.109 9   3724314.87646  23946701.464    23946704.5084   23946710.3824
     -2797.247       -2179.673
  -6947115.632 9  -5392909.51447  23701587.919    23701592.0954   23701597.4434
      3146.973        2452.187
  -2437998.737 9  -1892084.41248  20039696.331    20039699.7134   20039704.6994
       789.298         615.037
  -2988085.124 9  -2317941.39649  21114654.704    21114657.8344   21114663.4554
      1226.975         956.084
  -7760777.490 9  -6018220.28148  22062307.932    22062311.5394   22062317.9734
      3635.634        2832.962
   2335411.049 9   1815494.17748  21850552.617    21850556.6744   21850562.6054
     -1560.548       -1216.011
    703965.562 8    537959.15445  25079309.086    25079311.6034   25079319.3184
     -1584.669       -1234.807
   6087983.230 9   4496886.35346  24594362.450    24594365.7704   24594372.1294
     -3186.727       -2483.164
  -4825896.185 9  -3750257.84546  24151523.756    24151527.5394   24151534.2454
      2510.022        1955.861
 97  4 29 16  3 29.9990000  0  9 31 26 27  2  7 19 10 18 15         -0.000325492
   4876748.331 9   3789796.83446  23962692.486    23962695.9524   23962701.8204
     -2805.381       -2186.011
  -7041341.671 9  -5466332.38647  23683657.672    23683661.4464   23683666.8934
      3134.374        2442.369
  -2461463.083 9  -1910368.31948  20035231.119    20035234.5764   20035239.5964
       774.751         603.702
  -3024782.139 9  -2346536.46349  21107671.421    21107674.6324   21107680.2594
      1219.198         950.024
  -7869705.312 9  -6103099.08848  22041579.480    22041583.2404   22041589.6784
      3625.776        2825.280
   2382374.354 9   1852088.93448  21859489.689    21859493.5534   21859499.4724
     -1570.495       -1223.762
    751575.863 9    575057.97145  25088369.413    25088371.4344   25088379.9124
     -1589.674       -1238.707
   6183591.143 8   4571386.03645  24612556.312    24612559.3344   24612565.6514
     -3187.363       -2483.659
  -4901030.173 9  -3808803.81446  24137226.273    24137230.1384   24137236.5884
      2498.560        1946.930
 97  4 29 16  3 59.9990000  0  9 31 26 27  2  7 19 10 18 15         -0.000337315
   4961027.534 9   3855468.85446  23978730.428    23978733.8004   23978739.6674
     -2813.815       -2192.583
  -7135182.687 9  -5539455.24947  23665800.050    23665804.0504   23665809.5374
      3121.080        2432.010
  -2484491.120 9  -1928312.25148  20030849.070    20030852.4814   20030857.5304
       759.876         592.111
  -3061244.978 9  -2374949.06149  21100732.810    21100735.9774   21100741.6144
      1211.204         943.795
  -7978328.381 9  -6187740.42448  22020909.045    22020912.9364   22020919.3464
      3615.089        2816.952
   2429637.504 9   1888917.33748  21868483.717    21868487.4474   21868493.3704
     -1580.971       -1231.925
    799342.293 9    612278.68145  25097459.346    25097461.2714   25097468.8114
     -1595.027       -1242.878
   6279228.153 8   4645908.29845  24630754.469    24630758.4484   24630764.7324
     -3188.932       -2484.882
  -4975811.612 9  -3867075.09046  24122995.570    24122999.5444   24123006.3954
      2486.324        1937.395
 97  4 29 16  4 29.9990000  0  9 31 26 27  2  7 19 10 18 15         -0.000349109
   5045563.180 9   3921340.79146  23994817.432    23994820.5104   23994826.2614
     -2821.693       -2198.722
  -7228614.218 9  -5612259.03347  23648020.314    23648024.5884   23648030.0784
      3107.797        2421.660
  -2507070.120 9  -1945906.27648  20026552.449    20026555.8534   20026560.9014
       745.645         581.022
  -3097469.527 9  -2403175.97249  21093839.513    21093842.6554   21093848.3034
      1204.012         938.191
  -8086623.596 9  -6272126.28348  22000301.204    22000305.0924   22000311.4704
      3604.711        2808.866
   2477216.365 9   1925991.75248  21877537.705    21877541.3514   21877547.3534
     -1590.689       -1239.498
    847253.348 9    649612.03445  25106576.344    25106578.4574   25106586.0874
     -1598.621       -1245.679
   6374911.399 8   4720466.61646  24648961.982    24648966.6364   24648972.6814
     -3189.603       -2485.405
  -5050222.887 9  -3925057.89246  24108835.727    24108839.6064   24108846.5754
      2474.585        1928.248
 97  4 29 16  4 59.9990000  0  9 31 26 27  2  7 19 10 18 15         -0.000360877
   5130343.718 9   3987403.46846  24010950.522    24010953.7574   24010959.5954
     -2830.606       -2205.667
  -7321633.090 9  -5684741.27647  23630319.098    23630323.7244   23630329.0384
      3093.390        2410.434
  -2529211.923 9  -1963159.62748  20022338.996    20022342.4104   20022347.4524
       730.309         569.072
  -3133476.437 9  -2431233.29449  21086987.517    21086990.7204   21086996.4014
      1196.211         932.112
  -8194596.216 9  -6356260.77148  21979754.970    21979758.6394   21979764.9934
      3593.183        2799.883
   2525096.083 9   1963300.59948  21886648.818    21886652.5554   21886658.6454
     -1601.518       -1247.936
    895266.025 9    687024.41946  25115712.593    25115714.9804   25115722.7734
     -1602.366       -1248.597
   6470613.215 8   4795039.41246  24667173.478    24667178.1014   24667184.1924
     -3190.650       -2486.221
  -5124272.520 9  -3982758.92146  24094745.313    24094748.4834   24094755.3404
      2461.825        1918.305
 97  4 29 16  5 29.9990000  0  9 31 26 27  2  7 19 10 18 15         -0.000372622
   5215383.552 9   4053668.22646  24027133.115    24027136.3254   24027142.1024
     -2839.306       -2212.446
  -7414231.921 9  -5756896.21347  23612698.951    23612702.7994   23612708.0344
      3079.360        2399.501
  -2550899.874 9  -1980059.33048  20018211.907    20018215.3364   20018220.3854
       715.074         557.201
  -3169253.388 9  -2459111.42849  21080179.346    21080182.5594   21080188.2304
      1188.344         925.982
  -8302223.765 9  -6440126.36848  21959274.137    21959277.7724   21959284.1394
      3581.450        2790.740
   2573290.410 9   2000854.59048  21895820.115    21895823.6864   21895829.7334
     -1612.015       -1256.116
    943380.857 9    724516.51246  25124868.595    25124871.0094   25124878.5704
     -1605.901       -1251.351
   6566332.257 8   4869625.62545  24685388.936    24685392.8724   24685398.9884
     -3191.206       -2486.654
  -5197944.235 9  -4040165.44246  24080726.311    24080729.2754   24080735.9834
      2448.946        1908.270
 97  4 29 16  5 59.9990000  0  9 31 26 27  2  7 19 10 18 15         -0.000384345
   5300674.793 9   4120128.90246  24043363.333    24043366.7504   24043372.5494
     -2846.992       -2218.435
  -7506422.754 9  -5828733.21547  23595155.413    23595159.3964   23595164.6664
      3066.922        2389.809
  -2572143.907 9  -1996613.12348  20014169.257    20014172.7204   20014177.7704
       701.143         546.345
  -3204796.402 9  -2486807.27949  21073415.678    21073418.9154   21073424.5694
      1181.266         920.467
  -8409508.773 9  -6523725.05748  21938858.437    21938862.0614   21938868.4694
      3570.871        2782.497
   2621807.996 9   2038660.47748  21905052.522    21905056.3684   21905062.3504
     -1622.559       -1264.332
    991595.603 9    762086.37246  25134043.350    25134046.0434   25134053.6764
     -1608.365       -1253.271
   6662067.637 8   4944224.54745  24703607.007    24703610.7904   24703616.8314
     -3190.953       -2486.457
  -5271235.729 9  -4097275.69846  24066778.828    24066782.3634   24066788.9964
      2437.088        1899.030
 97  4 29 16  6 29.9990000  0  9 31 26 27  2  7 19 10 18 15         -0.000396037
   5386236.900 9   4186800.62346  24059645.051    24059648.7184   24059654.6104
     -2855.762       -2225.269
  -7598215.202 9  -5900259.79747  23577687.734    23577691.8194   23577697.0924
      3054.055        2379.783
  -2592930.856 9  -2012810.74448  20010213.627    20010217.1034   20010222.1534
       686.253         534.743
  -3240093.703 9  -2514311.66049  21066698.767    21066702.0444   21066707.6924
      1173.289         914.251
  -8516441.733 9  -6607049.42148  21918509.828    21918513.3404   21918519.8374
      3559.424        2773.577
   2670676.009 9   2076739.41748  21914352.083    21914355.7304   21914361.6524
     -1633.688       -1273.004
   1039921.306 9    799742.70946  25143239.781    25143242.1724   25143249.8894
     -1612.058       -1256.149
   6757816.893 8   5018834.35045  24721827.562    24721831.4134   24721837.4044
     -3190.734       -2486.286
  -5344140.505 9  -4154084.61446  24052905.920    24052908.8784   24052915.6484
      2424.575        1889.279
 97  4 29 16  6 59.9990000  0  9 31 26 27  2  7 19 10 18 15         -0.000407717
   5472050.761 9   4253668.49146  24075974.349    24075978.5814   24075984.4404
     -2865.237       -2232.652
  -7689636.747 9  -5971497.35447  23560290.569    23560294.8424   23560300.1364
      3040.813        2369.465
  -2613285.879 9  -2028671.79748  20006340.210    20006343.6494   20006348.7334
       670.639         522.576
  -3275154.734 9  -2541631.93249  21060026.889    21060030.1934   21060035.8094
      1164.131         907.115
  -8623040.450 9  -6690113.33648  21898224.334    21898228.2124   21898234.7984
      3547.132        2763.999
   2719866.103 9   2115069.33448  21923712.541    21923716.3254   21923722.2294
     -1645.768       -1282.417
   1088349.742 8    837479.07845  25152455.363    25152457.8494   25152465.4374
     -1616.568       -1259.663
   6853548.675 8   5093430.45945  24740044.546    24740048.5054   24740054.6714
     -3191.419       -2486.820
  -5416678.060 9  -4210607.39346  24039103.183    24039105.4754   24039112.2014
      2411.144        1878.814
 97  4 29 16  7 29.9990000  0  9 31 26 27  2  7 19 10 18 15         -0.000419378
   5558130.243 9   4320743.42946  24092354.945    24092359.0274   24092364.8464
     -2874.210       -2239.644
  -7780679.724 9  -6042439.91847  23542966.028    23542969.9784   23542975.3134
      3027.831        2359.349
  -2633180.757 9  -2044174.30248  20002554.389    20002557.7984   20002562.8764
       654.825         510.253
  -3309959.565 9  -2568752.57148  21053403.818    21053407.0624   21053412.6984
      1155.335         900.261
  -8729284.387 9  -6772900.81048  21878006.631    21878010.6764   21878017.2324
      3534.943        2754.501
   2769407.629 9   2153673.09448  21933139.591    21933143.6794   21933149.6644
     -1657.784       -1291.780
   1136908.739 8    875317.18646  25161695.451    25161698.3624   25161705.9144
     -1621.484       -1263.494
   6949281.437 8   5168027.31545  24758262.494    24758266.0844   24758272.0234
     -3191.768       -2487.092
  -5488823.506 9  -4266824.65046  24025374.370    24025376.7934   24025383.4354
      2397.623        1868.278
 97  4 29 16  7 59.9990000  0  8 31 26 27  2  7 19 18 15            -0.000431030
   5644449.169 9   4388004.82746  24108781.457    24108784.8994   24108790.8894
     -2880.832       -2244.804
  -7871356.042 9  -6113096.78347  23525710.921    23525714.9414   23525720.2884
      3016.706        2350.680
  -2652628.962 9  -2059328.75048  19998853.567    19998856.9524   19998862.0144
       641.261         499.684
  -3344527.115 9  -2595688.31148  21046825.793    21046829.0594   21046834.6994
      1148.793         895.163
  -8835186.910 9  -6855422.24048  21857854.475    21857858.1334   21857864.6634
      3524.652        2746.482
   2819286.242 9   2192539.52448  21942631.243    21942635.2754   21942641.2634
     -1667.733       -1299.532
   7045004.481 8   5242616.67845  24776478.905    24776481.7614   24776487.4084
     -3190.053       -2485.756
  -5560584.054 9  -4322741.97546  24011717.985    24011721.2634   24011727.9034
      2385.941        1859.175
 97  4 29 16  8 29.9990000  0  8 31 26 27  2  7 19 18 15            -0.000442666
   5731004.459 9   4455450.51446  24125252.379    24125255.9034   24125261.8314
     -2888.471       -2250.757
  -7961648.066 9  -6183454.19547  23508529.011    23508532.9974   23508538.3544
      3003.546        2340.425
  -2671622.995 9  -2074129.29548  19995239.156    19995242.5324   19995247.5764
       626.072         487.848
  -3378858.070 9  -2622439.69648  21040292.799    21040296.0874   21040301.7244
      1140.741         888.889
  -8940730.738 9  -6937664.17148  21837770.224    21837773.8244   21837780.3524
      3512.559        2737.059
   2869495.548 9   2231663.63748  21952185.852    21952189.8194   21952195.7854
     -1678.611       -1308.009
   7140712.145 8   5317194.09945  24794690.984    24794694.3954   24794699.9534
     -3189.604       -2485.406
  -5631947.248 9  -4378349.67446  23998137.730    23998141.3354   23998147.8904
      2372.391        1848.616
 97  4 29 16  8 59.9990000  0  8 31 26 27  2  7 19 18 15            -0.000454303
   5817738.192 8   4523035.24045  24141757.391    24141760.7614   24141766.7744
     -2894.146       -2255.179
  -8051577.156 9  -6253528.80247  23491415.967    23491420.0454   23491425.4254
      2991.463        2331.010
  -2690203.652 9  -2088607.73148  19991703.439    19991706.7384   19991711.7934
       612.197         477.037
  -3412986.797 9  -2649033.50248  21033798.358    21033801.5974   21033807.2064
      1134.245         883.827
  -9045952.027 9  -7019654.77448  21817747.110    21817750.8504   21817757.3604
      3501.859        2728.721
   2920000.160 9   2271017.85148  21961796.576    21961800.5804   21961806.5414
     -1688.701       -1315.871
   7236374.337 8   5391736.04145  24812894.585    24812898.1114   24812904.0904
     -3188.251       -2484.351
  -5702936.134 9  -4433665.70246  23984629.512    23984632.6244   23984639.1584
      2359.837        1838.834
 97  4 29 16  9 29.9990000  0  8 31 26 27  2  7 19 18 15            -0.000465934
   5904646.928 9   4590756.25146  24158295.714    24158298.9724   24158305.0804
     -2899.834       -2259.611
  -8141131.575 9  -6323311.45947  23474374.291    23474378.4024   23474383.7984
      2978.851        2321.182
  -2708362.366 9  -2102757.38748  19988247.903    19988251.2234   19988256.2904
       598.686         466.509
  -3446914.789 9  -2675470.89348  21027342.084    21027345.3004   21027350.9164
      1127.774         878.785
  -9150840.928 9  -7101386.38248  21797787.276    21797791.1114   21797797.6294
      3491.010        2720.267
   2970817.657 9   2310615.86648  21971466.912    21971470.8234   21971476.8124
     -1698.818       -1323.754
   7332009.584 8   5466256.90445  24831094.028    24831096.8224   24831103.0244
     -3187.329       -2483.633
  -5773539.550 9  -4488681.34746  23971194.694    23971197.2104   23971203.8474
      2347.160        1828.956
 97  4 29 16  9 59.9990000  0  8 31 26 27  2  7 19 18 15            -0.000477543
   5991744.684 8   4658624.62946  24174869.722    24174873.1604   24174879.2804
     -2906.002       -2264.417
  -8230292.368 9  -6392787.38847  23457407.579    23457411.6084   23457417.1004
      2965.859        2311.059
  -2726120.406 9  -2116594.81748  19984868.690    19984872.0054   19984877.0614
       585.858         456.513
  -3480633.112 9  -2701744.90248  21020925.656    21020928.8774   21020934.5114
      1120.817         873.364
  -9255399.561 9  -7182860.62848  21777890.368    21777894.2294   21777900.7694
      3480.198        2711.843
   3021950.052 9   2350459.26348  21981197.275    21981201.0034   21981207.0144
     -1709.287       -1331.912
   7427630.077 8   5540766.30546  24849289.708    24849292.7094   24849299.0874
     -3186.567       -2483.039
  -5843751.806 8  -4543392.20146  23957833.740    23957836.1574   23957842.8404
      2334.308        1818.941
 97  4 29 16 10 29.9990000  0  8 31 26 27  2  7 19 18 15            -0.000489119
   6079043.524 8   4726649.62045  24191481.158    24191485.4374   24191491.7194
     -2913.787       -2270.483
  -8319048.428 9  -6461947.94647  23440517.725    23440521.8634   23440527.3374
      2951.317        2299.727
  -2743481.062 9  -2130122.60648  19981565.100    19981568.3784   19981573.4604
       571.688         445.471
  -3514128.797 9  -2727845.42548  21014551.585    21014554.8344   21014560.4964
      1112.428         866.827
  -9359620.220 9  -7264071.52048  21758057.943    21758061.7184   21758068.1944
      3468.093        2702.410
   3073409.128 9   2390557.22248  21990989.756    21990993.3564   21990999.3984
     -1721.131       -1341.141
   7523235.906 8   5615264.34246  24867482.419    24867485.9264   24867492.2174
     -3187.101       -2483.455
  -5913565.071 9  -4597792.12346  23944547.548    23944551.0464   23944557.8034
      2319.998        1807.791
 97  4 29 16 10 59.9990000  0  8 31 26 27  2  7 19 18 15            -0.000500661
   6166537.931 9   4794827.06046  24208130.962    24208135.2484   24208141.3704
     -2920.332       -2275.583
  -8407394.999 9  -6530789.43847  23423705.781    23423710.0784   23423715.5114
      2937.536        2288.989
  -2760453.226 9  -2143347.67448  19978335.427    19978338.7224   19978343.7814
       558.529         435.217
  -3547417.779 9  -2753784.88848  21008216.816    21008220.1504   21008225.8064
      1105.793         861.657
  -9463517.073 9  -7345030.09648  21738287.283    21738290.8324   21738297.2474
      3457.306        2694.005
   3125182.538 9   2430900.11347  22000842.147    22000845.5004   22000851.5694
     -1731.242       -1349.020
   7618825.970 8   5689750.04845  24885672.540    24885675.8644   24885682.4834
     -3186.646       -2483.101
  -5982989.589 9  -4651889.13246  23931336.668    23931340.0074   23931346.8964
      2307.288        1797.887
 97  4 29 16 11 29.9990000  0  8 31 26 27  2  7 19 18 15            -0.000512161
   6254259.889 8   4863181.83446  24224823.843    24224828.3384   24224834.4214
     -2927.121       -2280.874
  -8495305.163 9  -6599290.86447  23406976.834    23406981.2804   23406986.7364
      2923.809        2278.293
  -2777008.021 9  -2156247.52048  19975185.103    19975188.4504   19975193.5204
       545.606         425.148
  -3580487.035 9  -2779553.13148  21001923.905    21001927.2914   21001932.9184
      1099.532         856.778
  -9567065.366 9  -7425717.06348  21718582.917    21718586.2944   21718592.6284
      3446.690        2685.732
   3177270.307 9   2471487.95348  22010753.776    22010757.4524   22010763.5294
     -1740.470       -1356.210
   7714421.212 8   5764239.76145  24903863.635    24903866.9994   24903873.8214
     -3185.716       -2482.376
  -6052011.513 9  -4705672.42746  23918202.367    23918205.4874   23918212.4154
      2294.802        1788.157
 97  4 29 16 11 59.9990000  0  8 31 26 27  2  7 19 18 15            -0.000523626
   6342203.731 8   4931709.44845  24241559.185    24241563.4084   24241569.6004
     -2935.159       -2287.137
  -8582773.732 9  -6667448.18747  23390332.214    23390336.6204   23390342.0284
      2908.003        2265.976
  -2793131.584 9  -2168811.33548  19972116.834    19972120.2234   19972125.3234
       529.643         412.709
  -3613345.606 9  -2805157.19948  20995671.205    20995674.5504   20995680.1314
      1091.562         850.568
  -9670268.870 9  -7506135.35648  21698943.855    21698947.3324   21698953.6424
      3433.963        2675.815
   3229656.990 9   2512308.71548  22020722.869    22020726.3814   22020732.3934
     -1751.388       -1364.718
   7810007.656 8   5838722.63946  24922053.134    24922056.5774   24922063.3324
     -3186.079       -2482.659
  -6120631.530 9  -4759142.54146  23905144.214    23905147.6034   23905154.4414
      2280.366        1776.909
 97  4 29 16 12 29.9990000  0  8 31 26 27  2  7 19 18 15            -0.000535074
   6430345.905 8   5000391.62246  24258331.376    24258336.1644   24258342.4764
     -2941.988       -2292.458
  -8669794.603 9  -6735256.65447  23373772.748    23373777.0954   23373782.5574
      2892.675        2254.032
  -2808786.188 9  -2181009.73248  19969137.915    19969141.2534   19969146.3574
       513.120         399.834
  -3645995.148 9  -2830598.38848  20989458.323    20989461.5594   20989467.0854
      1084.281         844.894
  -9773114.150 9  -7586274.51948  21679373.091    21679376.5094   21679382.8574
      3421.724        2666.278
   3282337.004 9   2553358.04448  22030747.815    22030751.1604   22030757.1254
     -1761.372       -1372.498
   7905569.513 8   5913186.38446  24940237.611    24940241.5014   24940248.3044
     -3185.586       -2482.275
  -6188847.366 9  -4812297.67846  23892163.080    23892166.4774   23892173.3044
      2266.579        1766.165
 97  4 29 16 12 59.9990000  0  8 31 26 27  2  7 19 18 15            -0.000546524
   6518675.533 8   5069219.87846  24275139.905    24275144.8154   24275151.1174
     -2947.290       -2296.590
  -8756376.598 9  -6802723.14047  23357296.792    23357301.0894   23357306.5764
      2879.297        2243.608
  -2823954.436 9  -2192829.14748  19966251.444    19966254.8554   19966259.9454
       497.675         387.799
  -3678438.742 9  -2855879.09948  20983284.606    20983287.7624   20983293.2604
      1078.172         840.134
  -9875614.776 9  -7666145.12148  21659867.668    21659871.2424   21659877.6304
      3411.233        2658.104
   3335298.248 9   2594626.51947  22040825.753    22040829.4424   22040835.3844
     -1769.858       -1379.110
   8001102.707 8   5987627.78746  24958416.922    24958420.9314   24958427.7104
     -3183.600       -2480.727
  -6256667.804 9  -4865144.72546  23879257.031    23879260.5444   23879267.6154
      2254.322        1756.615
 97  4 29 16 13 29.9990000  0  8 31 26 27  2  7 19 18 15            -0.000557981
   6607201.754 8   5138201.31045  24291985.854    24291990.7074   24291996.9904
     -2954.461       -2302.177
  -8842535.454 9  -6869859.90147  23340901.456    23340905.5364   23340911.1164
      2864.704        2232.237
  -2838629.288 9  -2204264.10148  19963459.004    19963462.3544   19963467.3984
       480.866         374.701
  -3710656.780 9  -2880984.05648  20977153.815    20977156.8944   20977162.3804
      1069.784         833.598
  -9977767.203 9  -7745744.39548  21640428.759    21640432.2504   21640438.7024
      3399.025        2648.591
   3388554.357 9   2636124.76047  22050960.268    22050963.7674   22050969.7134
     -1780.539       -1387.433
   8096601.122 8   6062042.06645  24976590.085    24976593.7864   24976600.6284
     -3182.733       -2480.052
  -6324083.907 9  -4917676.70746  23866428.289    23866431.6604   23866438.7474
      2240.080        1745.517
 97  4 29 16 13 59.9990000  0  8 31 26 27  2  7 19 18 15            -0.000569439
   6695929.674 8   5207339.88346  24308870.286    24308875.1084   24308881.2944
     -2960.325       -2306.747
  -8928266.176 9  -6936663.03747  23324587.423    23324591.5444   23324597.1084
      2851.277        2221.774
  -2852812.674 9  -2215316.09248  19960760.012    19960763.3564   19960768.4144
       465.502         362.729
  -3742629.548 9  -2905897.89148  20971069.542    20971072.7014   20971078.1794
      1062.207         827.694
 -10079565.236 9  -7825067.51948  21621057.174    21621060.7384   21621067.2124
      3387.952        2639.963
   3442122.680 9   2677866.28947  22061154.037    22061157.4354   22061163.4824
     -1790.153       -1394.924
   8192055.899 9   6136422.37045  24994754.544    24994758.4174   24994764.9434
     -3180.410       -2478.242
  -6391079.370 9  -4969880.92046  23853680.161    23853682.8384   23853689.8814
      2226.827        1735.190
 97  4 29 16 14 29.9990000  0  8 31 26 27  2  7 19 18 15            -0.000580887
   6784846.459 8   5276625.63046  24325792.110    24325795.5284   24325801.6374
     -2967.114       -2312.037
  -9013590.842 9  -7003149.77047  23308350.780    23308354.8544   23308360.3944
      2837.774        2211.252
  -2866538.895 9  -2226011.85148  19958147.985    19958151.3614   19958156.4044
       450.322         350.900
  -3774362.928 9  -2930625.19748  20965030.895    20965034.0364   20965039.5424
      1053.957         821.265
 -10181021.345 9  -7904124.20748  21601750.904    21601754.2564   21601760.7084
      3376.286        2630.872
   3495983.744 9   2719835.92647  22071403.180    22071406.7924   22071412.9944
     -1800.116       -1402.688
   8287453.132 9   6210757.88246  25012908.332    25012912.0064   25012918.5834
     -3178.925       -2477.084
  -6457667.404 9  -5021767.62746  23841008.743    23841011.5194   23841018.5804
      2212.910        1724.345
 97  4 29 16 14 59.9990000  0  8 31 26 27  2  7 19 18 15            -0.000592347
   6873968.123 8   5346071.06446  24342751.247    24342754.8444   24342760.9504
     -2974.006       -2317.407
  -9098522.086 9  -7069329.94947  23292188.759    23292192.9544   23292198.5634
      2824.385        2200.819
  -2879830.654 9  -2236369.07048  19955618.592    19955622.0084   19955627.0814
       435.939         339.693
  -3805858.419 9  -2955167.13548  20959037.465    20959040.6424   20959046.1434
      1046.065         815.115
 -10282126.546 9  -7982907.45948  21582511.116    21582514.5794   21582521.0124
      3364.100        2621.377
   3550143.128 9   2762038.02247  22081709.046    22081712.9934   22081719.1994
     -1810.279       -1410.607
   8382807.099 9   6285059.64946  25031053.656    25031057.3714   25031063.8994
     -3177.591       -2476.045
  -6523837.993 9  -5073329.09446  23828416.800    23828419.6834   23828426.7614
      2198.561        1713.164
 97  4 29 16 15 29.9990000  0  8 31 26 27  2  7 19 18 15            -0.000603789
   6963287.297 8   5415670.43345  24359747.290    24359751.5774   24359757.9524
     -2981.100       -2322.935
  -9183049.647 9  -7135195.56647  23276103.688    23276107.9084   23276113.4974
      2809.955        2189.575
  -2892702.641 9  -2246399.18648  19953169.087    19953172.5344   19953177.6274
       421.416         328.376
  -3837128.163 9  -2979533.16048  20953086.940    20953090.1874   20953095.6924
      1037.917         808.766
 -10382865.402 9  -8061405.25248  21563341.023    21563344.6404   21563351.0474
      3351.095        2611.243
   3604600.538 9   2804472.34147  22092071.977    22092075.9394   22092082.1164
     -1820.915       -1418.895
   8478104.848 9   6359317.60446  25049188.202    25049191.8704   25049198.5664
     -3176.371       -2475.094
  -6589584.374 9  -5124559.99546  23815905.465    23815908.3664   23815915.7094
      2183.712        1701.594
 97  4 29 16 15 59.9990000  0  8 31 26 27  2  7 19 18 15            -0.000615210
   7052782.286 8   5485406.71946  24376777.145    24376781.7454   24376788.4224
     -2985.859       -2326.643
  -9267164.636 9  -7200739.71347  23260097.357    23260101.3484   23260106.9084
      2797.044        2179.515
  -2905158.972 9  -2256105.41948  19950798.709    19950802.2064   19950807.2744
       408.268         318.131
  -3868186.621 9  -3003734.55548  20947176.698    20947179.9534   20947185.4214
      1032.097         804.231
 -10483240.909 9  -8139619.91748  21544240.102    21544243.7804   21544250.1934
      3339.884        2602.507
   3659350.166 9   2847134.36147  22102490.570    22102494.5184   22102500.6044
     -1829.715       -1425.752
   8573343.525 8   6433529.48846  25067311.245    25067315.1774   25067321.9124
     -3173.822       -2473.108
  -6654910.317 9  -5175463.29246  23803474.449    23803477.0604   23803484.5874
      2170.639        1691.407
 97  4 29 16 16 29.9990000  0  8 31 26 27  2  7 19 18 15            -0.000626611
   7142441.899 9   5555271.30746  24393837.980    24393843.3834   24393850.0554
     -2991.284       -2330.871
  -9350860.088 9  -7265956.94947  23244170.397    23244174.6084   23244180.1354
      2782.983        2168.558
  -2917186.254 9  -2265477.33448  19948510.088    19948513.5404   19948518.5894
       393.847         306.894
  -3899046.027 9  -3027780.83748  20941304.384    20941307.6034   20941313.0434
      1025.634         799.195
 -10583245.412 9  -8217545.48848  21525209.935    21525213.5414   21525219.9454
      3327.368        2592.754
   3714399.404 9   2890029.84347  22112965.813    22112970.0624   22112976.1094
     -1839.978       -1433.749
   8668529.316 9   6507700.16345  25085424.351    25085428.4884   25085435.1584
     -3171.652       -2471.417
  -6719815.490 9  -5226038.72746  23791123.279    23791126.1284   23791133.4184
      2156.641        1680.499
 97  4 29 16 16 59.9990000  0  8 31 26 27  2  7 19 18 15            -0.000637975
   7232270.990 9   5625267.98746  24410931.907    24410937.4104   24410944.0344
     -2996.628       -2335.035
  -9434113.964 9  -7330830.10147  23228327.824    23228331.9094   23228337.3884
      2767.877        2156.787
  -2928766.904 9  -2274501.21948  19946306.396    19946309.8434   19946314.8604
       378.892         295.240
  -3929709.635 9  -3051674.54748  20935469.282    20935472.4974   20935477.9334
      1019.196         794.179
 -10682867.447 9  -8295173.03148  21506252.587    21506256.0774   21506262.5014
      3314.943        2583.072
   3769776.819 9   2933181.04847  22123503.630    22123508.0784   22123514.1024
     -1850.971       -1442.315
   8763663.612 9   6581830.79845  25103527.868    25103532.0074   25103538.5874
     -3169.811       -2469.983
  -6784290.106 9  -5276278.65346  23778854.582    23778857.2194   23778864.1774
      2142.345        1669.360
 97  4 29 16 17 29.9990000  0  8 31 26 27  2  7 19 18 15            -0.000649298
   7322273.386 8   5695399.68846  24428059.397    24428064.3144   24428070.9814
     -3003.140       -2340.109
  -9516902.345 9  -7395340.51447  23212573.474    23212577.7414   23212583.2494
      2751.928        2144.359
  -2939890.481 9  -2283168.94748  19944189.624    19944193.0984   19944198.1284
       363.266         283.064
  -3960160.113 9  -3075402.18848  20929674.756    20929677.9784   20929683.4054
      1011.368         788.079
 -10782116.563 9  -8372509.98848  21487365.957    21487369.6134   21487376.0404
      3302.204        2573.146
   3825494.641 9   2976597.50647  22134106.526    22134110.7884   22134116.9294
     -1862.947       -1451.647
   8858751.230 9   6655925.03446  25121622.687    25121626.6244   25121633.3594
     -3168.972       -2469.329
  -6848326.399 9  -5326177.02546  23766669.190    23766671.5734   23766678.2434
      2127.167        1657.533
 97  4 29 16 17 59.9990000  0  8 31 26 27  2  7 19 18 15            -0.000660587
   7412434.107 8   5765654.73446  24445216.814    24445221.2324   24445227.9744
     -3008.376       -2344.189
  -9599240.672 9  -7459500.24547  23196905.219    23196909.2864   23196914.8254
      2736.971        2132.705
  -2950577.501 9  -2291496.49448  19942155.932    19942159.4244   19942164.4754
       348.671         271.692
  -3990409.865 9  -3098973.41348  20923918.364    20923921.6334   20923927.0504
      1004.723         782.901
 -10881014.964 9  -8449573.65948  21468546.366    21468549.8774   21468556.2554
      3290.342        2563.903
   3881540.349 9   3020269.45947  22144771.791    22144775.9254   22144782.1264
     -1873.842       -1460.137
   8953788.945 9   6729980.38246  25139708.667    25139711.9004   25139718.3714
     -3167.422       -2468.121
  -6911938.125 9  -5375744.57946  23754564.298    23754566.7714   23754573.1714
      2112.998        1646.492
 97  4 29 16 18 29.9990000  0  7 31 26 27  2  7 19 15               -0.000671857
   7502747.894 9   5836029.12046  24462403.585    24462407.5424   24462414.0144
     -3013.318       -2348.040
  -9681151.182 9  -7523326.60547  23181318.313    23181322.2474   23181327.7514
      2723.017        2121.831
  -2960849.291 9  -2299500.49148  19940201.314    19940204.7894   19940209.8244
       335.303         261.275
  -4020470.217 9  -3122397.06048  20918198.103    20918201.3334   20918206.7614
       998.417         777.987
 -10979569.993 9  -8526369.76948  21449791.973    21449795.4494   21449801.7744
      3279.203        2555.223
   3937890.148 9   3064178.36247  22155495.252    22155498.9984   22155505.2144
     -1883.568       -1467.715
  -6975139.213 9  -5424992.13646  23742537.397    23742539.8634   23742546.3224
      2099.544        1636.008
 97  4 29 16 18 59.9990000  0  7 31 26 27  2  7 19 15               -0.000683096
   7593242.948 9   5906544.73647  24479625.644    24479628.3764   24479634.7644
     -3018.880       -2352.374
  -9762606.811 9  -7586798.52747  23165818.039    23165821.8394   23165827.2324
      2708.135        2110.235
  -2970679.715 9  -2307160.57048  19938330.727    19938334.1454   19938339.1684
       320.719         249.911
  -4050296.847 9  -3145638.58948  20912522.234    20912525.5244   20912530.9334
       990.639         771.926
 -11077758.142 9  -8602880.00348  21431107.221    21431110.9094   21431117.1914
      3267.473        2546.083
   3994562.672 9   3108338.73447  22166279.610    22166283.5274   22166289.6494
     -1893.609       -1475.539
  -7037898.805 9  -5473895.67846  23730594.579    23730597.0154   23730603.5974
      2085.123        1624.771
 97  4 29 16 19 29.9990000  0  7 31 26 27  2  7 19 15               -0.000694336
   7683886.656 9   5977176.14846  24496875.333    24496877.3304   24496883.8434
     -3025.128       -2357.243
  -9843637.434 9  -7649939.27247  23150398.383    23150402.2514   23150407.5504
      2692.840        2098.317
  -2980079.834 9  -2314485.33848  19936542.013    19936545.3874   19936550.4094
       304.832         237.531
  -4079894.346 9  -3168701.56948  20906890.090    20906893.3384   20906898.6944
       981.860         765.086
 -11175598.761 9  -8679119.42148  21412488.711    21412492.4544   21412498.7454
      3254.054        2535.626
   4051509.850 9   3152713.12447  22177116.686    22177120.3144   22177126.3264
     -1903.755       -1483.445
  -7100234.255 9  -5522468.72046  23718731.876    23718734.8864   23718741.6464
      2069.593        1612.670
 97  4 29 16 19 59.9990000  0  7 31 26 27  2  7 19 15               -0.000705575
   7774683.626 9   6047926.94046  24514153.364    24514155.4534   24514161.9564
     -3029.155       -2360.381
  -9924228.914 9  -7712737.82147  23135062.310    23135066.1874   23135071.4724
      2679.109        2087.617
  -2989016.025 9  -2321448.60948  19934841.579    19934844.8914   19934849.9024
       289.777         225.800
  -4109266.716 9  -3191589.12348  20901300.754    20901303.9594   20901309.2934
       975.284         759.962
 -11273052.830 9  -8755057.63548  21393943.779    21393947.5844   21393953.8774
      3241.829        2526.101
   4108727.308 9   3197298.11847  22188004.724    22188008.4834   22188014.4114
     -1911.776       -1489.696
  -7162133.629 9  -5570701.95346  23706952.982    23706955.8484   23706962.5134
      2055.960        1602.047
 97  4 29 16 20 29.9990000  0  7 31 26 27  2  7 19 15               -0.000716823
   7865628.821 9   6118793.27046  24531459.631    24531461.7644   24531468.1864
     -3034.499       -2364.545
 -10004383.879 9  -7775196.23547  23119809.504    23119813.1684   23119818.4564
      2663.814        2075.699
  -2997463.357 9  -2328030.94848  19933234.252    19933237.4364   19933242.4194
       272.702         212.495
  -4138411.016 9  -3214298.96148  20895754.851    20895757.9854   20895763.3134
       967.141         753.616
 -11370108.111 9  -8830685.10248  21375475.273    21375478.5694   21375484.8324
      3227.908        2515.253
   4166215.688 9   3242094.23247  22198944.279    22198948.1364   22198954.0924
     -1921.499       -1497.272
  -7223592.986 9  -5618592.29946  23695257.962    23695260.5804   23695267.1384
      2040.617        1590.091
 97  4 29 16 20 59.9990000  0  7 31 26 27  2  7 19 15               -0.000728082
   7956709.262 9   6189765.06746  24548791.773    24548793.8534   24548800.1984
     -3038.456       -2367.628
 -10084095.989 9  -7837309.55047  23104640.738    23104644.4354   23104649.7304
      2649.727        2064.722
  -3005409.994 9  -2334223.13548  19931722.206    19931725.2584   19931730.2344
       256.497         199.868
  -4167341.740 9  -3236842.37748  20890249.645    20890252.6544   20890257.9834
       961.053         748.872
 -11466762.198 9  -8905999.95048  21357082.594    21357085.9364   21357092.1334
      3215.018        2505.209
   4223980.714 9   3287105.91647  22209936.768    22209940.4294   22209946.4524
     -1930.107       -1503.979
  -7284608.214 9  -5666136.59846  23683646.955    23683649.6914   23683656.2884
      2026.340        1578.966
 97  4 29 16 21 29.9990000  0  7 31 26 27  2  7 19 15               -0.000739359
   8047918.399 9   6260837.12846  24566148.058    24566150.3844   24566156.7994
     -3043.158       -2371.292
 -10163394.805 9  -7899100.82947  23089550.525    23089554.3594   23089559.6824
      2635.906        2053.953
  -3012879.279 9  -2340043.36548  19930300.863    19930303.9054   19930308.8984
       240.716         187.571
  -4196097.795 9  -3259249.69248  20884777.567    20884780.5694   20884785.9094
       955.382         744.454
 -11563025.165 9  -8981010.03148  21338764.362    21338767.6984   21338773.9084
      3201.627        2494.774
   4282009.395 9   3332323.03647  22220979.208    22220982.9254   22220989.0184
     -1939.421       -1511.237
  -7345191.961 9  -5713344.68546  23672118.074    23672120.9264   23672127.5274
      2011.712        1567.568
 97  4 29 16 21 59.9990000  0  7 31 26 27  2  7 19 15               -0.000750632
   8139281.930 9   6332029.45046  24583533.651    24583536.2974   24583542.7434
     -3047.918       -2375.001
 -10242269.456 9  -7960561.58147  23074541.305    23074545.0384   23074550.3624
      2622.193        2043.267
  -3019874.266 9  -2345494.01148  19928969.603    19928972.8024   19928977.8184
       225.461         175.684
  -4224680.105 9  -3281521.61548  20879338.460    20879341.5464   20879346.9004
       949.701         740.027
 -11658887.095 9  -9055707.61148  21320522.245    21320525.7594   21320531.9624
      3189.049        2484.973
   4340336.662 9   3377772.82647  22232078.465    22232082.2954   22232088.3804
     -1949.392       -1519.007
  -7405327.664 9  -5760203.64546  23660674.480    23660677.3984   23660684.0194
      1997.011        1556.112
 97  4 29 16 22 29.9990000  0  7 31 26 27  2  7 19 15               -0.000761905
   8230782.060 9   6403328.19446  24600945.601    24600948.2034   24600954.6464
     -3051.186       -2377.548
 -10320737.041 9  -8021705.15047  23059609.606    23059613.2154   23059618.4794
      2609.582        2033.441
  -3026424.518 9  -2350598.10448  19927723.042    19927726.3194   19927731.3704
       212.152         165.313
  -4253088.484 9  -3303658.01548  20873932.448    20873935.5764   20873940.9654
       944.979         736.347
 -11754375.641 9  -9130114.24348  21302351.247    21302354.8184   21302361.0594
      3177.860        2476.255
   4398960.643 9   3423453.81647  22243234.421    22243238.1374   22243244.2394
     -1957.900       -1525.636
  -7465021.531 9  -5806718.35146  23649314.760    23649318.0554   23649324.6194
      1983.429        1545.529
 97  4 29 16 22 59.9990000  0  7 31 26 27  2  7 19 15               -0.000773171
   8322417.319 9   6474732.20746  24618383.418    24618385.7604   24618392.3644
     -3056.698       -2381.843
 -10398779.582 9  -8082517.51947  23044758.394    23044762.2054   23044767.4384
      2594.290        2021.525
  -3032542.425 9  -2355365.30848  19926558.683    19926562.1064   19926567.1644
       196.724         153.291
  -4281319.946 9  -3325656.55048  20868560.174    20868563.2914   20868568.6814
       938.107         730.992
 -11849500.512 9  -9204237.49448  21284249.215    21284253.1484   21284259.3954
      3164.890        2466.148
   4457873.644 9   3469360.02347  22254445.071    22254448.9254   22254455.0604
     -1968.439       -1533.849
  -7524269.716 9  -5852885.76546  23638040.210    23638043.3874   23638050.0654
      1967.492        1533.111
 97  4 29 16 23 29.9990000  0  7 31 26 27  2  7 19 15               -0.000784422
   8414185.891 9   6546240.14846  24635846.733    24635848.7914   24635855.3344
     -3060.529       -2384.828
 -10476381.761 9  -8142986.73747  23029991.274    23029994.9834   23030000.1784
      2579.589        2010.069
  -3038228.053 9  -2359795.67148  19925476.731    19925480.1834   19925485.2304
       182.838         142.471
  -4309361.598 9  -3347507.18948  20863223.969    20863227.1244   20863232.5284
       932.020         726.249
 -11944269.050 9  -9278083.07748  21266215.672    21266219.2984   21266225.5354
      3153.516        2457.285
   4517069.431 9   3515486.58147  22265709.468    22265713.5104   22265719.6364
     -1977.352       -1540.794
  -7583064.887 9  -5898700.19946  23626851.999    23626855.1294   23626861.7314
      1952.822        1521.679
 97  4 29 16 23 59.9990000  0  7 31 26 27  2  7 19 15               -0.000795650
   8506078.622 9   6617844.86046  24653333.196    24653335.4764   24653341.9534
     -3064.321       -2387.783
 -10553509.771 9  -8203086.47347  23015314.051    23015317.9824   23015323.1994
      2563.636        1997.638
  -3043469.406 9  -2363879.84548  19924479.349    19924482.8234   19924487.8074
       167.826         130.774
  -4337200.514 9  -3369199.84948  20857926.353    20857929.5474   20857934.9504
       925.184         720.923
 -12038673.966 9  -9351645.32148  21248251.050    21248254.6204   21248260.8994
      3141.516        2447.935
   4576552.637 9   3561837.10347  22277028.813    22277032.7664   22277038.8974
     -1986.708       -1548.084
  -7641399.326 9  -5944155.61746  23615751.568    23615754.4484   23615761.0264
      1937.530        1509.764
 97  4 29 16 24 29.9990000  0  7 31 26 27  2  7 19 15               -0.000806865
   8598077.518 9   6689532.29746  24670839.665    24670842.2864   24670848.7654
     -3068.726       -2391.215
 -10630160.398 9  -8262814.22847  23000727.883    23000731.7844   23000737.0864
      2546.877        1984.579
  -3048265.305 9  -2367616.91048  19923566.636    19923570.1834   19923575.1864
       152.299         118.675
  -4364838.724 9  -3390736.11348  20852666.863    20852670.1364   20852675.5934
       917.814         715.180
 -12132720.735 9  -9424928.49048  21230354.469    21230358.0914   21230364.3814
      3128.638        2437.900
   4636297.316 9   3608391.37147  22288397.900    22288401.7654   22288407.9524
     -1995.938       -1555.276
  -7699284.635 9  -5989261.06046  23604736.388    23604739.2534   23604745.9534
      1921.799        1497.506
 97  4 29 16 24 59.9990000  0  7 31 26 27  2  7 19 15               -0.000818059
   8690200.297 9   6761316.29846  24688370.037    24688372.6434   24688379.1494
     -3073.064       -2394.595
 -10706331.022 9  -8322167.94547  22986233.259    22986237.0374   22986242.3424
      2531.174        1972.343
  -3052610.953 9  -2371003.13648  19922739.774    19922743.2674   19922748.2664
       137.130         106.855
  -4392280.808 9  -3412119.55348  20847444.750    20847448.0574   20847453.5204
       911.472         710.238
 -12226393.776 9  -9497920.44948  21212528.875    21212532.6534   21212538.9494
      3115.829        2427.919
   4696314.736 9   3655158.16247  22299819.051    22299822.7654   22299828.8754
     -2005.449       -1562.688
  -7756712.669 9  -6034010.19046  23593807.824    23593810.9734   23593817.8454
      1906.479        1485.568
 97  4 29 16 25 29.9990000  0  7 31 26 27  2  7 19 15               -0.000829233
   8782460.993 9   6833207.73846  24705927.123    24705929.1514   24705935.7224
     -3078.056       -2398.485
 -10782038.601 9  -8381160.86447  22971826.413    22971830.3974   22971835.6884
      2515.619        1960.223
  -3056503.902 9  -2374036.60849  19921999.013    19922002.4704   19922007.4904
       121.863          94.958
  -4419523.819 9  -3433347.87548  20842260.588    20842263.8834   20842269.3384
       904.308         704.656
 -12319668.889 9  -9570602.33648  21194779.396    21194782.9834   21194789.2754
      3101.973        2417.122
   4756625.457 9   3702153.50847  22311295.882    22311299.5934   22311305.6104
     -2015.773       -1570.732
  -7813677.812 9  -6078398.60946  23582967.699    23582970.8044   23582977.7104
      1890.734        1473.299
 97  4 29 16 25 59.9990000  0  7 31 26 27  2  7 19 15               -0.000840378
   8874880.301 9   6905222.74246  24723514.477    24723515.8334   24723522.5384
     -3082.923       -2402.278
 -10857281.210 9  -8439791.46947  22957508.146    22957512.2774   22957517.4934
      2501.063        1948.880
  -3059921.459 9  -2376699.64449  19921348.653    19921352.1434   19921357.1644
       106.391          82.902
  -4446538.691 9  -3454398.42248  20837119.876    20837123.1084   20837128.5634
       897.046         698.997
 -12412508.802 9  -9642945.10648  21177112.528    21177116.1454   21177122.4034
      3087.860        2406.125
   4817263.969 9   3749404.26647  22322835.056    22322838.7754   22322844.7674
     -2026.198       -1578.856
  -7870162.070 9  -6122412.30546  23572218.882    23572222.1804   23572229.0964
      1875.187        1461.185
 97  4 29 16 26 29.9990000  0  7 31 26 27  2  7 19 15               -0.000851508
   8967454.885 9   6977358.74046  24741130.503    24741132.1944   24741138.9774
     -3087.829       -2406.101
 -10932079.667 9  -8498075.96247  22943274.618    22943278.6024   22943283.8464
      2486.392        1937.448
  -3062864.453 9  -2378992.89449  19920788.619    19920792.1284   19920797.1284
        90.761          70.723
  -4473327.603 9  -3475272.89648  20832022.041    20832025.3454   20832030.7864
       889.835         693.378
 -12504912.758 9  -9714948.16648  21159528.413    21159532.2364   21159538.5004
      3073.279        2394.763
   4878223.475 9   3796905.15247  22334435.177    22334439.0104   22334445.0844
     -2036.900       -1587.195
  -7926161.414 9  -6166048.12446  23561562.170    23561565.8534   23561572.6884
      1858.910        1448.501
 97  4 29 16 26 59.9990000  0  7 31 26 27  2  7 19 15               -0.000862639
   9060134.444 9   7049576.54446  24758766.580    24758768.6354   24758775.3984
     -3091.053       -2408.613
 -11006471.126 9  -8556043.32847  22929118.481    22929122.3624   22929127.5964
      2472.559        1926.669
  -3065377.041 9  -2380950.76049  19920310.442    19920314.0104   19920319.0064
        76.307          59.460
  -4499947.059 9  -3496015.33348  20826956.574    20826959.8394   20826965.2514
       884.383         689.130
 -12596919.574 9  -9786641.76948  21142020.085    21142023.9004   21142030.1604
      3060.211        2384.580
   4939465.269 9   3844625.99647  22346088.773    22346092.9514   22346099.0674
     -2046.113       -1594.374
  -7981709.056 9  -6209331.94446  23550992.026    23550995.5654   23551002.3304
      1843.904        1436.808
 97  4 29 16 27 29.9990000  0  7 31 26 27  2  7 19 15               -0.000873766
   9152916.215 9   7121873.98646  24776422.146    24776424.5214   24776431.2894
     -3094.650       -2411.416
 -11080417.210 9  -8613663.64347  22915046.727    22915050.8094   22915056.1834
      2456.828        1914.411
  -3067429.980 9  -2382550.45948  19919919.873    19919923.3254   19919928.3234
        60.254          46.951
  -4526371.840 9  -3516606.07148  20821928.050    20821931.3754   20821936.7784
       877.092         683.448
 -12688518.525 9  -9858017.55748  21124589.320    21124593.1444   21124599.4084
      3046.268        2373.715
   5000992.150 9   3892568.99147  22357796.898    22357801.1054   22357807.3244
     -2055.751       -1601.884
  -8036787.370 9  -6252250.05446  23540510.953    23540514.5074   23540521.3454
      1827.704        1424.185
 97  4 29 16 27 59.9990000  0  6 26 27  2  7 19 15                  -0.000884885
 -11153891.386 9  -8670916.23847  22901065.073    22901069.1584   22901074.5274
      2440.765        1901.895
  -3069010.504 9  -2383782.03949  19919619.051    19919622.5524   19919627.5844
        44.518          34.689
  -4552600.666 9  -3537044.11548  20816936.845    20816940.1964   20816945.5674
       870.908         678.630
 -12779719.804 9  -9929083.46548  21107234.295    21107238.1294   21107244.3804
      3033.287        2363.600
   5062788.134 9   3940721.67847  22369556.516    22369560.5184   22369566.7554
     -2064.525       -1608.721
  -8091387.672 9  -6294795.68846  23530120.550    23530124.3874   23530131.2744
      1811.695        1411.710
 97  4 29 16 28 29.9990000  0  6 26 27  2  7 19 15                  -0.000895994
 -11226879.670 9  -8727790.21547  22887175.781    22887179.9844   22887185.2904
      2425.044        1889.645
  -3070126.114 9  -2384651.35649  19919406.807    19919410.2684   19919415.3044
        29.745          23.178
  -4578657.917 9  -3557348.46348  20811978.338    20811981.6634   20811987.0064
       866.036         674.833
 -12870543.870 9  -9999855.44348  21089951.138    21089954.8954   21089961.1664
      3021.576        2354.475
   5124834.367 9   3989069.35847  22381363.755    22381367.5814   22381373.8344
     -2072.092       -1614.617
  -8145516.520 9  -6336973.97046  23519819.701    23519823.8984   23519830.8124
      1796.879        1400.165
 97  4 29 16 28 59.9990000  0  6 26 27  2  7 19 15                  -0.000907091
 -11299365.529 9  -8784272.70047  22873382.210    22873386.4384   22873391.6754
      2407.609        1876.059
  -3070764.419 9  -2385148.74649  19919285.174    19919288.8084   19919293.8604
        12.899          10.051
  -4604526.476 9  -3577505.78148  20807055.716    20807059.0464   20807064.3674
       858.673         669.096
 -12960988.528 9 -10070331.78248  21072740.155    21072743.8634   21072750.1304
      3008.180        2344.036
   5187143.179 9   4037621.65147  22393220.508    22393224.5944   22393230.8354
     -2081.719       -1622.119
  -8199172.051 9  -6378783.40646  23509609.710    23509613.5864   23509620.3954
      1780.346        1387.283
 97  4 29 16 29 29.9990000  0  6 26 27  2  7 19 15                  -0.000918182
 -11371352.281 9  -8840366.26247  22859683.802    22859687.7974   22859693.0404
      2391.359        1863.397
  -3070907.532 9  -2385260.27749  19919258.015    19919261.6104   19919266.6454
        -3.309          -2.578
  -4630179.497 9  -3597495.14448  20802174.168    20802177.4274   20802182.7744
       851.470         663.483
 -13051042.547 9 -10140503.72548  21055603.452    21055607.1494   21055613.4224
      2995.209        2333.929
   5249732.929 9   4086392.85247  22405131.169    22405135.1184   22405141.3114
     -2091.094       -1629.424
  -8252343.739 9  -6420215.81246  23499491.859    23499495.3334   23499501.9954
      1764.229        1374.724
 97  4 29 16 29 59.9990000  0  6 26 27  2  7 19 15                  -0.000929262
 -11442852.487 9  -8896080.69047  22846077.930    22846081.7124   22846086.9974
      2374.739        1850.446
  -3070576.257 9  -2385002.15549  19919321.181    19919324.6534   19919329.7084
       -19.297         -15.037
  -4655626.320 9  -3617323.83448  20797331.759    20797335.0594   20797340.4214
       844.279         657.880
 -13140703.296 9 -10210369.21548  21038541.506    21038545.2524   21038551.5484
      2981.409        2323.176
   5312607.881 9   4135386.28047  22417096.008    22417099.8894   22417105.9974
     -2101.376       -1637.436
  -8305034.768 9  -6461273.67346  23489465.348    23489468.5414   23489475.1544
      1747.791        1361.915
 97  4 29 16 30 29.9990000  0  6 26 27  2  7 19 15                  -0.000940322
 -11513867.592 9  -8951417.13247  22832564.086    22832567.9274   22832573.2814
      2359.399        1838.493
  -3069774.483 9  -2384377.40749  19919473.859    19919477.2564   19919482.2824
       -34.264         -26.699
  -4680863.547 9  -3636989.20348  20792529.248    20792532.5864   20792537.9464
       837.971         652.964
 -13229951.428 9 -10279913.19548  21021558.363    21021561.8814   21021568.1374
      2968.209        2312.890
   5375784.921 9   4184615.10347  22429118.570    22429122.0804   22429128.1864
     -2110.623       -1644.641
  -8357237.022 9  -6501950.69046  23479531.554    23479534.6564   23479541.4024
      1732.079        1349.672
 97  4 29 16 30 59.9990000  0  6 26 27  2  7 19 15                  -0.000951361
 -11584413.791 9  -9006388.19047  22819139.544    22819143.4664   22819148.8144
      2343.466        1826.077
  -3068532.138 9  -2383409.35449  19919710.184    19919713.6644   19919718.7144
       -48.714         -37.959
  -4705903.927 9  -3656501.18648  20787764.227    20787767.5694   20787772.9404
       831.448         647.882
 -13318789.522 9 -10349137.66248  21004652.862    21004656.5134   21004662.7574
      2954.092        2301.890
   5439246.554 9   4234065.68147  22441194.738    22441198.3874   22441204.5834
     -2120.283       -1652.168
  -8408957.480 9  -6542252.30247  23469689.612    23469692.5304   23469699.3874
      1715.715        1336.921
 97  4 29 16 31 29.9990000  0  6 26 27  2  7 19 15                  -0.000962355
 -11654473.981 9  -9060980.54647  22805807.671    22805811.4984   22805816.7904
      2327.094        1813.320
  -3066865.585 9  -2382110.75249  19920027.270    19920030.7864   19920035.8544
       -62.376         -48.605
  -4730758.036 9  -3675868.02248  20783034.601    20783037.9984   20783043.3694
       825.459         643.215
 -13407204.614 9 -10418032.51248  20987828.079    20987831.6464   20987837.9014
      2940.221        2291.081
   5502999.534 9   4283743.30447  22453326.330    22453330.1774   22453336.4344
     -2129.782       -1659.570
  -8460185.331 9  -6582170.05247  23459940.823    23459944.1424   23459951.1254
      1699.433        1324.234
 97  4 29 16 31 59.9990000  0  6 26 27  2  7 19 15                  -0.000973299
 -11724044.842 9  -9115191.59947  22792568.794    22792572.6294   22792577.8694
      2310.831        1800.648
  -3064792.479 9  -2380495.35349  19920421.819    19920425.2754   19920430.3664
       -76.284         -59.442
  -4755444.071 9  -3695103.89348  20778337.081    20778340.3884   20778345.7764
       819.881         638.868
 -13495207.527 9 -10486606.18548  20971081.590    20971085.2444   20971091.4864
      2926.442        2280.344
   5567030.112 9   4333637.23247  22465510.753    22465514.8014   22465521.1294
     -2139.129       -1666.854
  -8510931.386 9  -6621712.37247  23450284.213    23450287.5144   23450294.4054
      1683.312        1311.672
 97  4 29 16 32 29.9990000  0  6 26 27  2  7 19 15                  -0.000984215
 -11793142.320 9  -9169033.78347  22779420.056    22779423.7764   22779429.0484
      2295.552        1788.742
  -3062303.651 9  -2378556.01749  19920895.380    19920898.9034   19920903.9594
       -89.873         -70.031
  -4779966.178 9  -3714212.02948  20773670.612    20773673.9644   20773679.3564
       814.819         634.924
 -13582810.849 9 -10554868.49048  20954411.160    20954414.8804   20954421.1224
      2913.713        2270.426
   5631324.121 9   4383736.41947  22477745.460    22477749.5514   22477755.9274
     -2147.271       -1673.198
  -8561198.796 9  -6660881.72647  23440718.284    23440722.0404   23440728.7374
      1667.773        1299.563
 97  4 29 16 32 59.9990000  0  6 26 27  2  7 19 15                  -0.000995101
 -11861751.466 9  -9222495.45247  22766364.068    22766367.8174   22766373.2014
      2279.054        1775.886
  -3059370.362 9  -2376270.35049  19921453.596    19921457.0964   19921462.1524
      -105.407         -82.135
  -4804303.544 9  -3733176.21148  20769039.358    20769042.6744   20769048.0834
       808.239         629.797
 -13670005.438 9 -10622812.29948  20937818.585    20937822.2774   20937828.5204
      2899.822        2259.602
   5695901.258 9   4434056.23147  22490034.101    22490038.1784   22490044.5724
     -2157.272       -1680.991
  -8610974.034 9  -6699667.58446  23431247.135    23431250.0584   23431256.7244
      1651.111        1286.580
 97  4 29 16 33 29.9990000  0  6 26 27  2  7 19 15                  -0.001005975
 -11929872.037 9  -9275576.41147  22753400.979    22753404.8934   22753410.2714
      2262.889        1763.290
  -3055944.326 9  -2373600.72049  19922105.488    19922109.0594   19922114.0974
      -122.754         -95.652
  -4828431.268 9  -3751977.03248  20764448.072    20764451.3284   20764456.7334
       800.621         623.861
 -13756771.883 9 -10690422.49248  20921307.554    20921311.1614   20921317.3664
      2885.087        2248.120
   5760782.596 9   4484613.06947  22502380.754    22502384.6954   22502391.0964
     -2167.509       -1688.968
  -8660241.014 9  -6738057.40646  23421871.536    23421874.7064   23421881.4444
      1633.778        1273.074
 97  4 29 16 33 59.9980000  0  6 26 27  2  7 19 15                  -0.001016869
 -11997530.985 9  -9328297.66047  22740526.031    22740529.8434   22740535.1704
      2247.685        1751.443
  -3051994.487 9  -2370522.93249  19922857.074    19922860.6604   19922865.7314
      -140.645        -109.594
  -4852343.906 9  -3770610.25248  20759897.557    20759900.8864   20759906.2984
       793.426         618.254
 -13843104.971 9 -10757695.00548  20904878.868    20904882.4894   20904888.6844
      2870.545        2236.788
   5825948.956 9   4535392.01347  22514781.552    22514785.4844   22514791.8644
     -2177.052       -1696.404
  -8708998.144 9  -6776049.96247  23412593.109    23412596.5164   23412603.1344
      1616.661        1259.736
 97  4 29 16 34 29.9980000  0  6 26 27  2  7 19 15                  -0.001027810
 -12064751.463 9  -9380677.26347  22727734.323    22727738.2684   22727743.4814
      2232.877        1739.904
  -3047522.392 9  -2367038.19249  19923708.107    19923711.7024   19923716.7574
      -158.192        -123.266
  -4876052.605 9  -3789084.56148  20755385.916    20755389.2714   20755394.6814
       786.575         612.916
 -13929022.530 9 -10824643.72948  20888529.156    20888532.9264   20888539.0734
      2856.430        2225.790
   5891378.770 9   4586376.24147  22527232.402    22527236.4174   22527242.8364
     -2185.616       -1703.077
  -8757259.455 9  -6813656.15247  23403409.065    23403412.7124   23403419.2924
      1600.079        1246.815
 97  4 29 16 34 59.9980000  0  6 26 27  2  7 19 15                  -0.001038792
 -12131520.708 9  -9432705.25047  22715028.509    22715032.5264   22715037.7094
      2218.182        1728.454
  -3042522.811 9  -2363142.42849  19924659.531    19924663.1154   19924668.1454
      -175.172        -136.498
  -4899558.336 9  -3807400.71148  20750913.021    20750916.2454   20750921.6754
       780.253         607.989
 -14014508.513 9 -10891256.16248  20872261.839    20872265.4674   20872271.5924
      2842.416        2214.870
   5957064.762 9   4637560.08347  22539732.070    22539736.0814   22539742.5484
     -2193.577       -1709.281
  -8805022.492 9  -6850874.08247  23394320.078    23394323.6884   23394330.2654
      1583.870        1234.184
 97  4 29 16 35 29.9980000  0  6 26 27  2  7 19 15                  -0.001049816
 -12197839.345 9  -9484382.10947  22702408.492    22702412.4584   22702417.6604
      2202.334        1716.104
  -3037011.208 9  -2358847.68549  19925708.535    19925711.9754   19925716.9904
      -192.604        -150.081
  -4922872.772 9  -3825567.80048  20746476.455    20746479.6454   20746485.0494
       773.501         602.728
 -14099569.064 9 -10957537.08848  20856075.432    20856078.9534   20856085.0424
      2827.870        2203.535
   6022986.522 9   4688927.65847  22552276.640    22552280.5744   22552287.0324
     -2201.835       -1715.716
  -8852289.905 9  -6887705.82747  23385325.506    23385328.9334   23385335.5484
      1566.746        1220.841
 97  4 29 16 35 59.9980000  0  6 26 27  2  7 19 15                  -0.001060848
 -12263666.637 9  -9535676.10147  22689881.884    22689885.9244   22689891.1614
      2186.786        1703.989
  -3030998.553 9  -2354162.51349  19926852.802    19926856.1814   19926861.1744
      -207.219        -161.469
  -4945995.059 9  -3843585.16348  20742076.331    20742079.6274   20742085.0274
       768.785         599.053
 -14184204.474 9 -11023486.73748  20839969.888    20839973.3944   20839979.4664
      2815.316        2193.753
   6089153.904 9   4740486.61747  22564868.083    22564871.8234   22564878.2984
     -2208.673       -1721.044
  -8899046.476 9  -6924139.53047  23376427.952    23376431.3724   23376438.0534
      1551.130        1208.673
 97  4 29 16 36 29.9980000  0  6 26 27  2  7 19 15                  -0.001071856
 -12328969.227 9  -9586561.22747  22677455.116    22677459.2054   22677464.4564
      2167.678        1689.100
  -3024511.589 9  -2349107.75249  19928087.250    19928090.6204   19928095.6204
      -224.237        -174.730
  -4968927.200 9  -3861454.36548  20737712.457    20737715.7874   20737721.1854
       761.092         593.059
 -14268417.700 9 -11089107.40848  20823944.604    20823948.1484   20823954.2034
      2799.709        2181.591
   6155580.219 9   4792247.32647  22577508.879    22577512.3364   22577518.8564
     -2218.960       -1729.060
  -8945286.826 9  -6960170.98047  23367628.532    23367632.0804   23367638.7304
      1532.359        1194.046
 97  4 29 16 36 59.9980000  0  6 26 27  2  7 19 15                  -0.001082827
 -12393759.267 9  -9637046.96647  22665125.973    22665130.0774   22665135.3614
      2150.780        1675.932
  -3017592.547 9  -2343716.30449  19929403.798    19929407.2534   19929412.2954
      -237.902        -185.378
  -4991703.826 9  -3879202.38248  20733378.140    20733381.4824   20733386.9304
       756.371         589.380
 -14352229.513 9 -11154415.29448  20807995.700    20807999.2884   20808005.3314
      2786.871        2171.588
   6222260.434 9   4844205.90647  22590197.175    22590201.1894   22590207.7694
     -2227.407       -1735.642
  -8991025.997 9  -6995811.89447  23358924.893    23358928.2964   23358934.8264
      1515.961        1181.268
 97  4 29 16 37 29.9980000  0  6 26 27  2  7 19 15                  -0.001093750
 -12458036.496 9  -9687133.11247  22652894.397    22652898.5274   22652903.8274
      2134.009        1662.864
  -3010256.410 9  -2337999.84649  19930799.819    19930803.3064   19930808.3424
      -251.613        -196.062
  -5014322.878 9  -3896827.61348  20729073.798    20729077.2134   20729082.6944
       751.181         585.336
 -14435648.023 9 -11219416.70748  20792121.522    20792125.2314   20792131.3034
      2773.946        2161.516
   6289203.887 9   4896369.58447  22602936.230    22602940.0524   22602946.7624
     -2235.924       -1742.278
  -9036259.554 9  -7031058.82347  23350317.582    23350320.6984   23350327.1874
      1499.261        1168.255
 97  4 29 16 37 59.9980000  0  6 26 27  2  7 19 15                  -0.001104621
 -12521782.634 9  -9736805.42347  22640764.033    22640768.0464   22640773.2904
      2116.443        1649.176
  -3002481.146 9  -2331941.21249  19932279.404    19932282.9034   19932287.9524
      -266.277        -207.489
  -5036749.741 9  -3914303.08448  20724806.113    20724809.5294   20724815.0234
       744.490         580.122
 -14518644.945 9 -11284089.61548  20776327.748    20776331.4444   20776337.5204
      2759.674        2150.395
   6356433.789 9   4948756.48347  22615729.950    22615733.4584   22615740.2464
     -2245.501       -1749.741
  -9080963.446 9  -7065893.02947  23341810.880    23341813.8424   23341820.3474
      1481.514        1154.426
 97  4 29 16 38 29.9980000  0  6 26 27  2  7 19 15                  -0.001115469
 -12585032.393 9  -9786090.94847  22628727.902    22628731.9444   22628737.1474
      2100.016        1636.376
  -2994278.512 9  -2325549.56149  19933840.298    19933843.8004   19933848.9024
      -281.061        -219.008
  -5058992.780 9  -3931635.32048  20720573.384    20720576.8254   20720582.3124
       738.140         575.174
 -14601233.699 9 -11348444.46748  20760611.554    20760615.3024   20760621.3834
      2745.768        2139.559
   6423921.651 9   5001344.38747  22628572.662    22628576.0184   22628582.8004
     -2254.016       -1756.376
  -9125157.151 9  -7100329.70847  23333401.209    23333404.0024   23333410.6294
      1464.386        1141.080
 97  4 29 16 38 59.9980000  0  6 26 27  2  7 19 15                  -0.001126306
 -12647786.348 9  -9834990.12747  22616786.116    22616790.2294   22616795.4804
      2083.387        1623.418
  -2985619.900 9  -2318802.60449  19935488.053    19935491.4644   19935496.6204
      -296.484        -231.026
  -5081038.022 9  -3948813.43048  20716378.429    20716381.7654   20716387.2544
       731.220         569.782
 -14683395.400 9 -11412466.54848  20744976.717    20744980.3924   20744986.4744
      2731.524        2128.460
   6491667.412 9   5054133.24147  22641464.225    22641467.6744   22641474.3844
     -2262.492       -1762.981
  -9168832.274 9  -7134362.29647  23325090.496    23325092.8514   23325099.5274
      1447.128        1127.632
 97  4 29 16 39 29.9980000  0  6 26 27  2  7 19 15                  -0.001137143
 -12710036.116 9  -9883496.43547  22604940.611    22604944.5164   22604949.7634
      2066.902        1610.573
  -2976476.379 9  -2311677.79249  19937227.935    19937231.4414   19937236.5884
      -312.781        -243.725
  -5102858.680 9  -3965816.53748  20712226.208    20712229.4444   20712234.9204
       723.993         564.150
 -14765113.951 9 -11476143.32848  20729426.279    20729429.8494   20729435.8894
      2716.750        2116.948
   6559671.541 9   5107123.42147  22654404.643    22654408.5114   22654415.1144
     -2270.786       -1769.444
  -9211978.827 9  -7167983.00147  23316879.533    23316882.3474   23316889.0674
      1429.651        1114.014
 97  4 29 16 39 59.9980000  0  6 26 27  2  7 19 15                  -0.001147988
 -12771794.345 9  -9931619.72847  22593188.423    22593192.3354   22593197.6054
      2050.649        1597.908
  -2966859.280 9  -2304183.96349  19939057.952    19939061.5184   19939066.6564
      -328.129        -255.685
  -5124490.822 9  -3982672.75248  20708109.766    20708113.0204   20708118.4584
       718.514         559.881
 -14846401.462 9 -11539484.22848  20713957.783    20713961.3354   20713967.3924
      2702.648        2105.959
   6627910.229 9   5160296.37347  22667389.936    22667393.8664   22667400.4704
     -2278.242       -1775.254
  -9254615.018 9  -7201206.01047  23308766.041    23308768.9224   23308775.6614
      1412.992        1101.033
 97  4 29 16 40 29.9980000  0  6 26 27  2  7 19 15                  -0.001158830
 -12833049.852 9  -9979351.28647  22581531.878    22581535.8604   22581541.1154
      2033.298        1584.388
  -2956759.697 9  -2296314.16849  19940979.713    19940983.4264   19940988.5414
      -345.097        -268.907
  -5145953.029 9  -3999396.54548  20704025.718    20704028.9104   20704034.3324
       712.502         555.196
 -14927248.871 9 -11602482.19348  20698573.017    20698576.5614   20698582.6174
      2687.282        2093.986
   6696390.872 9   5213657.86647  22680421.045    22680425.2504   22680431.9494
     -2287.149       -1782.194
  -9296735.561 9  -7234027.21247  23300750.764    23300753.6474   23300760.2884
      1395.102        1087.092
 97  4 29 16 40 59.9980000  0  6 26 27  2  7 19 15                  -0.001169657
 -12893797.413 9 -10026687.05147  22569972.036    22569975.9654   22569981.2514
      2016.174        1571.045
  -2946162.689 9  -2288056.77449  19942996.353    19943000.0004   19943005.0974
      -361.813        -281.932
  -5167247.388 9  -4015989.55048  20699973.429    20699976.7004   20699982.1264
       706.710         550.683
 -15007643.733 9 -11665127.52148  20683274.273    20683277.8894   20683283.9804
      2672.016        2082.090
   6765140.169 9   5267228.69647  22693503.725    22693507.7764   22693514.6064
     -2296.452       -1789.443
  -9338329.352 9  -7266437.95447  23292836.002    23292838.6464   23292845.1994
      1377.356        1073.264
 97  4 29 16 41 29.9980000  0  6 26 27  2  7 19 15                  -0.001180469
 -12954036.477 9 -10073626.58047  22558508.867    22558512.8004   22558518.0964
      1999.166        1557.792
  -2935062.427 9  -2279407.23049  19945108.733    19945112.3354   19945117.4354
      -378.671        -295.068
  -5188372.223 9  -4032450.45648  20695953.481    20695956.7384   20695962.1754
       701.094         546.307
 -15087581.283 9 -11727416.50248  20668062.686    20668066.2934   20668072.3534
      2656.638        2070.108
   6834164.514 9   5321013.84147  22706639.008    22706642.7514   22706649.5984
     -2305.669       -1796.625
  -9379390.162 9  -7298433.39047  23285021.725    23285024.9854   23285031.5574
      1359.472        1059.329
 97  4 29 16 41 59.9980000  0  6 26 27  2  7 19 15                  -0.001191251
 -13013752.480 9 -10120158.53647  22547145.320    22547149.2294   22547154.4774
      1981.820        1544.275
  -2923454.019 9  -2270361.72849  19947317.875    19947321.3804   19947326.4734
      -395.513        -308.192
  -5209326.622 9  -4048778.55648  20691965.952    20691969.2834   20691974.6924
       695.387         541.860
 -15167052.923 9 -11789342.43848  20652939.545    20652943.3034   20652949.3864
      2641.239        2058.108
   6903474.769 9   5375021.78947  22719828.517    22719832.1944   22719838.9784
     -2315.160       -1804.021
  -9419909.739 9  -7330007.07947  23277311.463    23277314.3454   23277320.9594
      1341.568        1045.378
 97  4 29 16 42 29.9980000  0  6 26 27  2  7 19 15                  -0.001202025
 -13072964.845 9 -10166298.04247  22535877.685    22535881.5284   22535886.7464
      1965.343        1531.436
  -2911337.744 9  -2260920.49249  19949623.645    19949627.0494   19949632.1194
      -412.450        -321.390
  -5230102.089 9  -4064967.22948  20688012.445    20688015.8144   20688021.2594
       689.251         537.079
 -15246070.943 9 -11850914.90448  20637902.986    20637906.6824   20637912.7434
      2626.381        2046.531
   6973065.968 9   5429248.63947  22733071.764    22733075.0844   22733081.8754
     -2324.408       -1811.227
  -9459897.154 9  -7361166.10647  23269702.255    23269705.0544   23269711.6984
      1323.964        1031.660
 97  4 29 16 42 59.9980000  0  6 26 27  2  7 19 15                  -0.001212802
 -13131676.603 9 -10212047.46747  22524705.235    22524709.0444   22524714.2794
      1949.180        1518.841
  -2898722.953 9  -2251090.80449  19952024.047    19952027.5574   19952032.6184
      -428.027        -333.528
  -5250683.209 9  -4081004.46448  20684096.075    20684099.3604   20684104.7984
       683.283         532.428
 -15324644.002 9 -11912140.64848  20622951.055    20622954.7004   20622960.7424
      2612.268        2035.534
   7042923.800 9   5483683.24747  22746365.090    22746368.6304   22746375.4814
     -2332.131       -1817.245
  -9499357.191 9  -7391914.16747  23262193.396    23262196.0884   23262202.7314
      1307.119        1018.534
 97  4 29 16 43 29.9980000  0  6 26 27  2  7 19 15                  -0.001223582
 -13189877.872 9 -10257399.10147  22513629.826    22513633.7264   22513639.0214
      1931.523        1505.083
  -2885619.126 9  -2240880.04549  19954517.506    19954521.1404   19954526.1814
      -444.855        -346.640
  -5271064.548 9  -4096886.02948  20680217.639    20680220.9174   20680226.3684
       676.022         526.770
 -15402775.453 9 -11973022.27548  20608083.170    20608086.8004   20608092.7784
      2597.184        2023.780
   7113028.377 9   5538310.13447  22759705.522    22759709.0804   22759716.0444
     -2340.927       -1824.099
  -9538287.472 9  -7422249.42247  23254785.317    23254787.9144   23254794.4654
      1288.763        1004.231
 97  4 29 16 43 59.9980000  0  6 26 27  2  7 19 15                  -0.001234365
 -13247571.625 9 -10302355.27348  22502651.099    22502654.9904   22502660.3074
      1915.239        1492.394
  -2872037.632 9  -2230297.07849  19957102.017    19957105.6234   19957110.6944
      -460.231        -358.622
  -5291249.633 9  -4112614.66748  20676376.579    20676379.8244   20676385.2704
       669.952         522.041
 -15480479.129 9 -12033570.58048  20593296.534    20593300.3014   20593306.2714
      2583.413        2013.049
   7183375.259 9   5593125.82447  22773092.024    22773095.6584   22773102.6484
     -2348.395       -1829.918
  -9576685.997 9  -7452170.33347  23247478.263    23247480.8674   23247487.4104
      1271.460         990.748
 97  4 29 16 44 29.9980000  0  6 26 27  2  7 19 15                  -0.001245160
 -13304763.751 9 -10346920.56347  22491767.763    22491771.7154   22491777.0344
      1898.255        1479.160
  -2857981.077 9  -2219343.93049  19959776.814    19959780.4994   19959785.6014
      -476.044        -370.943
  -5311232.225 9  -4128185.51448  20672574.019    20672577.2624   20672582.6974
       663.069         516.677
 -15557756.609 9 -12093786.78148  20578591.109    20578594.8984   20578600.8724
      2569.179        2001.958
   7253953.772 9   5648122.01947  22786522.350    22786526.2534   22786533.2154
     -2355.977       -1835.826
  -9614546.670 9  -7481672.12247  23240273.576    23240276.1754   23240282.7484
      1253.339         976.628
 97  4 29 16 44 59.9980000  0  6 26 27  2  7 19 15                  -0.001255958
 -13361445.972 9 -10391088.52647  22480981.403    22480985.4174   22480990.7634
      1880.875        1465.617
  -2843457.512 9  -2208026.88149  19962540.669    19962544.2524   19962549.3754
      -492.125        -383.474
  -5331018.868 9  -4143603.67848  20668808.602    20668811.9664   20668817.4264
       656.377         511.463
 -15634608.996 9 -12153671.73748  20563966.628    20563970.3724   20563976.3204
      2554.518        1990.534
   7324757.021 9   5703293.31947  22799995.422    22799999.6844   22800006.5594
     -2364.067       -1842.130
  -9651866.317 9  -7510752.35747  23233171.596    23233174.4614   23233181.0754
      1234.781         962.167
 97  4 29 16 45 29.9980000  0  6 26 27  2  7 19 15                  -0.001266764
 -13417637.158 9 -10434873.86547  22470288.555    22470292.5464   22470297.9244
      1864.921        1453.185
  -2828469.294 9  -2196347.77049  19965392.894    19965396.4504   19965401.5544
      -507.280        -395.283
  -5350637.490 9  -4158890.91648  20665075.312    20665078.6444   20665084.0904
       651.222         507.446
 -15711047.204 9 -12213233.96248  20549420.956    20549424.6464   20549430.6014
      2541.028        1980.022
   7395784.788 9   5758639.58047  22813511.901    22813515.9674   22813522.6814
     -2371.340       -1847.797
  -9688653.167 9  -7539417.41047  23226171.005    23226174.1704   23226180.8154
      1217.377         948.605
 97  4 29 16 45 59.9980000  0  6 26 27  2  7 19 15                  -0.001277566
 -13473325.103 9 -10478267.07047  22459691.416    22459695.5254   22459700.8424
      1847.860        1439.891
  -2813011.013 9  -2184302.37149  19968334.560    19968338.0684   19968343.1834
      -523.063        -407.582
  -5370081.232 9  -4174041.88748  20661375.341    20661378.6364   20661384.0914
       645.336         502.859
 -15787055.499 9 -12272461.18748  20534957.032    20534960.7514   20534966.6504
      2526.386        1968.612
   7467052.532 9   5814172.83347  22827074.176    22827077.9664   22827084.5094
     -2379.457       -1854.122
  -9724899.171 9  -7567661.02147  23219273.726    23219276.8044   23219283.4274
      1199.314         934.530
 97  4 29 16 46 29.9980000  0  6 26 27  2  7 19 15                  -0.001288361
 -13528500.443 9 -10521260.83848  22449192.063    22449195.9924   22449201.3334
      1830.229        1426.152
  -2797077.435 9  -2171886.61249  19971366.650    19971370.1234   19971375.2624
      -539.381        -420.297
  -5389348.950 9  -4189055.69448  20657708.866    20657712.1594   20657717.6084
       639.074         497.980
 -15862618.734 9 -12331341.61348  20520577.783    20520581.4784   20520587.3934
      2510.926        1956.566
   7538563.665 9   5869895.73047  22840682.361    22840686.2344   22840692.6884
     -2388.213       -1860.945
  -9760605.246 9  -7595483.91147  23212479.086    23212482.1924   23212488.8124
      1180.889         920.173
 97  4 29 16 46 59.9980000  0  6 26 27  2  7 19 15                  -0.001299132
 -13583150.007 9 -10563844.90847  22438792.639    22438796.5294   22438801.9324
      1813.196        1412.880
  -2780660.084 9  -2159093.88249  19974490.748    19974494.2704   19974499.4094
      -554.981        -432.453
  -5408437.698 9  -4203930.04248  20654076.440    20654079.7194   20654085.1314
       633.641         493.746
 -15937715.867 9 -12389858.84648  20506287.352    20506291.0024   20506296.8714
      2495.717        1944.715
   7610341.844 9   5925826.70147  22854341.451    22854345.2784   22854351.7924
     -2396.843       -1867.670
  -9795762.878 9  -7622879.43047  23205788.719    23205791.9294   23205798.4534
      1163.049         906.272
 97  4 29 16 47 29.9980000  0  6 26 27  2  7 19 15                  -0.001309886
 -13637284.924 9 -10606027.95548  22428491.104    22428494.9564   22428500.3764
      1795.560        1399.138
  -2763776.738 9  -2145938.04149  19977703.636    19977707.1064   19977712.2234
      -570.661        -444.671
  -5427352.038 9  -4218668.48848  20650477.244    20650480.4574   20650485.8584
       627.073         488.628
 -16012354.000 9 -12448018.40948  20492084.333    20492087.8674   20492093.7064
      2479.939        1932.420
   7682374.827 9   5981956.27147  22868049.179    22868052.7514   22868059.3784
     -2405.510       -1874.423
  -9830381.454 9  -7649854.90347  23199200.751    23199204.2174   23199210.7554
      1144.621         891.912
 97  4 29 16 47 59.9980000  0  6 26 27  2  7 19 15                  -0.001320619
 -13690893.729 9 -10647801.04648  22418289.707    22418293.5314   22418298.9124
      1778.269        1385.664
  -2746429.181 9  -2132420.48149  19981004.779    19981008.2634   19981013.3474
      -586.055        -456.666
  -5446073.371 9  -4233256.54048  20646914.721    20646917.8954   20646923.3114
       621.046         483.932
 -16086526.002 9 -12505814.76148  20477969.889    20477973.4134   20477979.2044
      2464.714        1920.556
   7754664.099 9   6038285.52447  22881805.033    22881808.8824   22881815.7354
     -2413.864       -1880.933
  -9864449.626 9  -7676401.51047  23192717.749    23192721.2874   23192727.7264
      1126.462         877.763
 97  4 29 16 48 29.9980000  0  6 26 27  2  7 19 15                  -0.001331331
 -13743984.071 9 -10689170.13647  22408186.979    22408190.7974   22408196.1124
      1761.098        1372.284
  -2728615.178 9  -2118539.45449  19984394.721    19984398.1714   19984403.2344
      -601.453        -468.665
  -5464616.782 9  -4247705.95348  20643385.935    20643389.2034   20643394.6044
       615.318         479.469
 -16160231.684 9 -12563247.74348  20463944.189    20463947.6534   20463953.4424
      2449.207        1908.473
   7827209.024 9   6094813.97947  22895610.023    22895613.7184   22895620.6304
     -2422.373       -1887.563
  -9897969.556 9  -7702520.90647  23186339.451    23186342.6784   23186349.0034
      1108.238         863.562
 97  4 29 16 48 59.9980000  0  6 26 27  2  7 19 15                  -0.001342027
 -13796559.520 9 -10730138.01048  22398182.182    22398186.0384   22398191.2884
      1743.376        1358.475
  -2710341.351 9  -2104300.12449  19987872.245    19987875.5724   19987880.6264
      -617.368        -481.066
  -5482993.356 9  -4262025.36048  20639889.084    20639892.2524   20639897.6254
       609.172         474.679
 -16233485.274 9 -12620328.45048  20450004.561    20450007.9494   20450013.7324
      2433.861        1896.515
   7900001.032 9   6151534.97347  22909462.147    22909465.6024   22909472.4924
     -2430.802       -1894.131
  -9930942.984 9  -7728214.45347  23180064.776    23180067.9854   23180074.4094
      1089.478         848.944
 97  4 29 16 49 29.9980000  0  6 26 27  2  7 19 15                  -0.001352707
 -13848599.889 9 -10770688.94548  22388279.388    22388283.1034   22388288.3234
      1725.433        1344.493
  -2691587.160 9  -2089686.48449  19991441.016    19991444.4004   19991449.4284
      -633.460        -493.605
  -5501178.832 9  -4276195.86248  20636428.532    20636431.6394   20636437.0114
       602.849         469.752
 -16306280.896 9 -12677052.29448  20436151.879    20436155.3534   20436161.1994
      2418.607        1884.629
   7973035.694 9   6208445.04047  22923360.185    22923363.6464   22923370.4674
     -2438.684       -1900.273
  -9963352.042 9  -7753468.23747  23173897.264    23173900.6904   23173907.1544
      1070.664         834.284
 97  4 29 16 49 59.9980000  0  6 26 27  2  7 19 15                  -0.001363365
 -13900091.282 9 -10810812.09948  22378480.816    22378484.5954   22378489.8754
      1707.079        1330.191
  -2672343.812 9  -2074691.68249  19995102.946    19995106.3094   19995111.3304
      -649.795        -506.334
  -5519183.811 9  -4290225.71348  20633002.267    20633005.3714   20633010.7404
       597.190         465.343
 -16378613.762 9 -12733415.55248  20422387.340    20422390.8424   20422396.7284
      2403.185        1872.612
   8046311.213 9   6265542.78947  22937303.587    22937307.5734   22937314.2804
     -2446.568       -1906.417
  -9995198.966 9  -7778284.00347  23167836.702    23167840.3304   23167846.8754
      1052.155         819.861
 97  4 29 16 50 29.9980000  0  6 26 27  2  7 19 15                  -0.001374002
 -13951032.738 9 -10850506.73548  22368787.075    22368790.7464   22368796.0744
      1688.773        1315.927
  -2652606.871 9  -2059312.26649  19998858.609    19998862.1104   19998867.1774
      -666.298        -519.193
  -5537011.728 9  -4304117.59448  20629609.612    20629612.7814   20629618.1734
       590.955         460.484
 -16450475.962 9 -12789412.05548  20408712.462    20408715.8964   20408721.7944
      2387.508        1860.396
   8119822.149 9   6322823.98647  22951292.093    22951296.2944   22951303.0034
     -2454.380       -1912.504
 -10026489.423 9  -7802666.14747  23161882.455    23161885.8954   23161892.4674
      1033.550         805.364
 97  4 29 16 50 59.9980000  0  6 26 27  2  7 19 15                  -0.001384627
 -14001425.871 9 -10889774.10548  22359197.353    22359201.2294   22359206.5984
      1670.205        1301.458
  -2632370.252 9  -2043543.48549  20002709.442    20002712.9724   20002718.1174
      -683.422        -532.537
  -5554648.994 9  -4317860.91848  20626253.282    20626256.5254   20626261.8904
       584.235         455.248
 -16521877.395 9 -12845049.52348  20395125.019    20395128.6254   20395134.5494
      2371.917        1848.247
   8193567.451 9   6380287.79447  22965325.929    22965329.5734   22965336.3284
     -2462.592       -1918.903
 -10057221.324 9  -7826613.03847  23156034.437    23156037.7294   23156044.3554
      1014.631         790.622
 97  4 29 16 51 29.9980000  0  6 26 27  2  7 19 15                  -0.001395234
 -14051259.876 9 -10928605.79548  22349714.171    22349718.1534   22349723.5154
      1651.419        1286.820
  -2611616.150 9  -2027371.47349  20006658.749    20006662.2984   20006667.4894
      -701.047        -546.270
  -5572087.581 9  -4331449.42848  20622934.868    20622938.1184   20622943.4464
       577.756         450.199
 -16592802.943 9 -12900316.16948  20381628.317    20381631.9604   20381637.8684
      2355.614        1835.543
   8267569.566 9   6437951.72846  22979408.122    22979411.7414   22979418.5054
     -2471.651       -1925.962
 -10087386.458 9  -7850118.29347  23150294.379    23150297.4454   23150304.0324
       995.567         775.766
 97  4 29 16 51 59.9980000  0  6 26 27  2  7 19 15                  -0.001405826
 -14100562.299 9 -10967023.28148  22340332.258    22340336.2244   22340341.5364
      1634.548        1273.674
  -2590356.117 9  -2010805.23549  20010704.390    20010707.9824   20010713.1544
      -717.331        -558.959
  -5589361.608 9  -4344909.71748  20619647.734    20619650.9654   20619656.3164
       572.748         446.297
 -16663260.341 9 -12955218.02348  20368220.754    20368224.3644   20368230.2484
      2340.536        1823.794
   8341828.974 9   6495816.14946  22993539.198    22993542.8954   22993549.6034
     -2479.768       -1932.287
 -10117000.495 9  -7873194.13047  23144658.788    23144662.0974   23144668.6374
       977.641         761.798
 97  4 29 16 52 29.9980000  0  6 26 27  2  7 19 15                  -0.001416406
 -14149342.072 9 -11005033.49048  22331049.865    22331053.7534   22331059.0004
      1617.374        1260.291
  -2568581.206 9  -1993837.78949  20014848.059    20014851.6324   20014856.8104
      -734.205        -572.108
  -5606458.052 9  -4358231.62248  20616394.267    20616397.6154   20616402.9814
       567.006         441.823
 -16733244.458 9 -13009751.08748  20354903.176    20354906.7874   20354912.6484
      2325.227        1811.865
   8416355.869 9   6553888.98547  23007720.850    23007724.9384   23007731.7464
     -2488.548       -1939.128
 -10146046.503 9  -7895827.32947  23139131.454    23139134.8114   23139141.3574
       958.803         747.119
 97  4 29 16 52 59.9980000  0  6 26 27  2  7 19 15                  -0.001426974
 -14197604.826 9 -11042640.83748  22321865.809    22321869.6604   22321874.8824
      1600.346        1247.023
  -2546307.195 9  -1976481.43648  20019086.740    20019090.2694   20019095.4424
      -750.476        -584.786
  -5623386.695 9  -4371422.77548  20613172.782    20613176.2034   20613181.5714
       561.798         437.765
 -16802773.536 9 -13063929.57048  20341672.075    20341675.7964   20341681.6864
      2310.173        1800.135
   8491142.028 9   6612163.86647  23021952.389    23021956.3494   23021963.2634
     -2496.768       -1945.534
 -10174528.837 9  -7918021.31047  23133711.701    23133714.7924   23133721.2694
       940.282         732.687
 97  4 29 16 53 29.9980000  0  6 26 27  2  7 19 15                  -0.001437543
 -14245359.224 9 -11079852.06048  22312778.291    22312782.2834   22312787.5034
      1582.643        1233.228
  -2523553.479 9  -1958751.28649  20023416.664    20023420.1704   20023425.3614
      -767.062        -597.711
  -5640158.498 9  -4384491.71648  20609981.389    20609984.6684   20609990.0404
       555.640         432.966
 -16871847.666 9 -13117753.55548  20328527.820    20328531.4424   20328537.3174
      2293.999        1787.532
   8566158.034 9   6670617.83847  23036227.064    23036231.4874   23036238.4224
     -2504.936       -1951.898
 -10202458.004 9  -7939784.25847  23128397.371    23128400.0924   23128406.5294
       920.884         717.572
 97  4 29 16 53 59.9980000  0  6 26 27  2  7 19 15                  -0.001448104
 -14292596.094 9 -11116660.01248  22303789.471    22303793.3794   22303798.6894
      1565.885        1220.170
  -2500324.302 9  -1940650.64649  20027837.035    20027840.5724   20027845.7554
      -781.968        -609.326
  -5656750.993 9  -4397420.93348  20606824.005    20606827.2514   20606832.5964
       549.962         428.542
 -16940450.612 9 -13171210.37748  20315473.147    20315476.7474   20315482.5924
      2279.078        1775.905
   8641402.806 9   6729250.06746  23050546.147    23050550.1014   23050557.0534
     -2511.767       -1957.221
 -10229815.516 9  -7961101.75747  23123191.213    23123194.1064   23123200.5434
       902.455         703.212
 97  4 29 16 54 29.9980000  0  6 26 27  2  7 19 15                  -0.001458661
 -14339305.775 9 -11153057.16048  22294901.008    22294904.8594   22294910.1864
      1547.929        1206.178
  -2476641.478 9  -1922196.51348  20032343.755    20032347.3134   20032352.4804
      -797.058        -621.084
  -5673160.424 9  -4410207.49948  20603701.283    20603704.5914   20603709.9564
       543.743         423.696
 -17008596.456 9 -13224311.01548  20302505.410    20302509.0474   20302514.8854
      2263.851        1764.040
   8716859.953 9   6788047.77747  23064905.308    23064909.1604   23064916.2284
     -2518.898       -1962.778
 -10256609.453 9  -7981980.09247  23118092.464    23118095.3944   23118101.7734
       883.637         688.548
 97  4 29 16 54 59.9980000  0  6 26 27  2  7 19 15                  -0.001469204
 -14385470.037 9 -11189029.31348  22286116.094    22286120.0584   22286125.3854
      1529.432        1191.765
  -2452503.422 9  -1903387.65749  20036937.117    20036940.6874   20036945.8224
      -812.587        -633.185
  -5689376.078 9  -4422843.07148  20600615.444    20600618.8264   20600624.2404
       537.031         418.466
 -17076281.185 9 -13277052.34648  20289625.414    20289629.0844   20289634.9314
      2248.019        1751.703
   8792533.318 9   6847013.97246  23079305.697    23079309.3444   23079316.4274
     -2526.379       -1968.607
 -10282835.732 9  -8002416.13047  23113101.481    23113104.6234   23113111.0284
       864.373         673.537
 97  4 29 16 55 29.9980000  0  6 26 27  2  7 19 15                  -0.001479737
 -14431092.308 9 -11224579.13348  22277434.351    22277438.4294   22277443.6614
      1511.643        1177.904
  -2427910.967 9  -1884224.72848  20041617.006    20041620.5004   20041625.6314
      -827.425        -644.747
  -5705404.850 9  -4435333.02248  20597565.361    20597568.6674   20597574.0864
       531.116         413.857
 -17143503.527 9 -13329433.37549  20276833.480    20276837.1054   20276842.9524
      2233.009        1740.007
   8868417.828 9   6906144.68547  23093745.752    23093749.7444   23093756.7714
     -2533.154       -1973.886
 -10308495.305 9  -8022410.55347  23108218.661    23108221.6984   23108228.1014
       845.698         658.985
 97  4 29 16 55 59.9980000  0  6 26 27  2  7 19 15                  -0.001490262
 -14476182.944 9 -11259714.69848  22268853.916    22268857.9604   22268863.1344
      1493.872        1164.056
  -2402873.031 9  -1864714.66548  20046381.478    20046385.0334   20046390.2024
      -842.347        -656.374
  -5721258.012 9  -4447686.13548  20594548.576    20594551.9054   20594557.3344
       525.238         409.276
 -17210277.561 9 -13381465.07548  20264126.829    20264130.4114   20264136.2584
      2218.057        1728.356
   8944509.984 9   6965437.20046  23108226.026    23108229.7464   23108236.6034
     -2540.061       -1979.268
 -10333593.709 9  -8041967.73347  23103442.157    23103445.6374   23103452.0024
       827.041         644.447
 97  4 29 16 56 29.9980000  0  6 26 27  2  7 19 15                  -0.001500777
 -14520731.248 9 -11294427.66548  22260376.617    22260380.6384   22260385.9004
      1476.649        1150.636
  -2377372.326 9  -1844844.00748  20051234.148    20051237.6214   20051242.8514
      -857.228        -667.970
  -5736928.553 9  -4459896.94448  20591566.551    20591569.8814   20591575.3264
       520.074         405.252
 -17276593.372 9 -13433139.71748  20251507.328    20251510.9624   20251516.7894
      2203.543        1717.046
   9020813.976 9   7024894.77646  23122746.282    23122750.0864   23122756.8294
     -2546.300       -1984.130
 -10358124.507 9  -8061082.61147  23098774.065    23098777.4934   23098783.8834
       808.832         630.259
 97  4 29 16 56 59.9980000  0  6 26 27  2  7 19 15                  -0.001511290
 -14564747.739 9 -11328726.22048  22252000.364    22252004.5354   22252009.8854
      1457.363        1135.608
  -2351392.140 9  -1824599.71748  20056178.010    20056181.4744   20056186.7354
      -875.144        -681.930
  -5752425.349 9  -4471972.36348  20588617.731    20588620.9474   20588626.3804
       512.830         399.608
 -17342444.320 9 -13484452.12348  20238976.180    20238979.8854   20238985.7584
      2186.042        1703.409
   9097332.132 9   7084519.24846  23137306.493    23137311.0544   23137317.7554
     -2555.210       -1991.073
 -10382083.956 9  -8079752.29647  23094214.586    23094218.1634   23094224.5464
       788.082         614.090
 97  4 29 16 57 29.9980000  0  6 26 27  2  7 19 15                  -0.001521796
 -14608234.833 9 -11362612.26948  22243724.926    22243729.2094   22243734.5664
      1441.023        1122.875
  -2324923.138 9  -1803974.54048  20061214.831    20061218.3824   20061223.6644
      -890.198        -693.661
  -5767758.146 9  -4483920.00048  20585699.931    20585703.2094   20585708.6324
       508.588         396.302
 -17407819.867 9 -13535394.09748  20226535.485    20226539.3114   20226545.1894
      2171.572        1692.134
   9174067.128 9   7144312.69046  23151908.711    23151913.1744   23151919.9874
     -2561.138       -1995.692
 -10405468.734 9  -8097974.19947  23089764.843    23089768.2094   23089774.5294
       770.186         600.145
 97  4 29 16 57 59.9980000  0  6 26 27  2  7 19 15                  -0.001532299
 -14651193.092 9 -11396086.23448  22235550.288    22235554.5614   22235559.9524
      1423.321        1109.081
  -2297962.535 9  -1782966.29548  20066345.367    20066348.8314   20066354.1114
      -906.643        -706.475
  -5782929.046 9  -4495741.48048  20582813.037    20582816.2794   20582821.7314
       503.302         392.183
 -17472723.942 9 -13585968.68248  20214184.722    20214188.4594   20214194.3964
      2155.999        1679.999
   9251012.716 9   7204270.22546  23166551.257    23166555.4604   23166562.2404
     -2568.073       -2001.096
 -10428283.920 9  -8115752.27147  23085423.191    23085426.6054   23085432.8944
       751.332         585.454
 97  4 29 16 58 29.9980000  0  6 26 27  2  7 19 15                  -0.001542797
 -14693610.047 9 -11429138.41848  22227478.674    22227482.8894   22227488.2834
      1404.468        1094.391
  -2270500.099 9  -1761567.01448  20071571.178    20071574.7624   20071580.0374
      -924.226        -720.176
  -5797940.127 9  -4507438.43048  20579956.537    20579959.7554   20579965.2144
       497.408         387.591
 -17537163.216 9 -13636181.09149  20201922.316    20201926.0854   20201932.0064
      2139.925        1667.474
   9328169.408 9   7264392.25146  23181233.820    23181237.8664   23181244.6784
     -2575.780       -2007.101
 -10450532.148 9  -8133088.56447  23081189.807    23081192.8674   23081199.1504
       731.786         570.223
 97  4 29 16 58 59.9980000  0  6 26 27  2  7 19 15                  -0.001553289
 -14735480.770 9 -11461764.95548  22219510.880    22219515.1234   22219520.5304
      1385.908        1079.928
  -2242525.244 9  -1739768.43848  20076894.494    20076898.1564   20076903.4724
      -941.705        -733.796
  -5812787.035 9  -4519007.44748  20577131.134    20577134.4714   20577139.9544
       491.285         382.819
 -17601136.821 9 -13686030.63749  20189748.496    20189752.2734   20189758.1864
      2124.011        1655.073
   9405536.310 9   7324678.08646  23195956.118    23195960.3004   23195967.1774
     -2583.109       -2012.812
 -10472209.720 9  -8149980.17747  23077064.961    23077067.8724   23077073.9884
       712.341         555.071
 97  4 29 16 59 29.9980000  0  6 26 27  2  7 19 15                  -0.001563775
 -14776797.077 9 -11493959.48248  22211648.844    22211652.8994   22211658.2964
      1367.603        1065.665
  -2214036.445 9  -1717569.39048  20082315.841    20082319.4144   20082324.7274
      -958.467        -746.857
  -5827443.094 9  -4530427.75148  20574342.205    20574345.4974   20574350.9574
       484.722         377.705
 -17664641.729 9 -13735514.96348  20177663.878    20177667.6504   20177673.5494
      2108.605        1643.069
   9483116.681 9   7385130.25646  23210719.578    23210723.4954   23210730.3774
     -2589.936       -2018.132
 -10493309.044 9  -8166421.23047  23073050.114    23073052.8444   23073058.8894
       693.295         540.230
 97  4 29 16 59 59.9980000  0  6 26 27  2  7 19 15                  -0.001574255
 -14817550.197 9 -11525715.16148  22203893.950    22203897.8694   22203903.2704
      1349.439        1051.511
  -2185033.306 9  -1694969.56548  20087835.009    20087838.5734   20087843.8224
      -974.824        -759.603
  -5841880.207 9  -4541677.45248  20571595.037    20571598.2424   20571603.6364
       477.984         372.455
 -17727663.326 9 -13784622.69148  20165671.253    20165675.0374   20165680.9124
      2093.025        1630.928
   9560924.214 9   7445759.43146  23225525.993    23225529.9014   23225536.9194
     -2597.084       -2023.702
 -10513819.803 9  -8182403.66247  23069147.040    23069149.7384   23069155.8924
       674.250         525.390
 97  4 29 17  0 29.9980000  0  6 26 27  2  7 19 15                  -0.001584740
 -14857768.405 9 -11557054.02548  22196240.704    22196244.6494   22196250.0434
      1332.227        1038.099
  -2155547.919 9  -1671993.96148  20093445.955    20093449.5184   20093454.7384
      -990.350        -771.701
  -5856118.404 9  -4552772.14448  20568885.531    20568888.8024   20568894.1814
       471.584         367.468
 -17790219.911 9 -13833368.06849  20153767.275    20153770.9404   20153776.7914
      2077.611        1618.918
   9638945.479 9   7506555.16046  23240372.882    23240376.9264   23240383.9824
     -2604.075       -2029.149
 -10533759.459 9  -8197941.07047  23065352.651    23065355.3304   23065361.5094
       655.392         510.695
 97  4 29 17  0 59.9980000  0  6 26 27  2  7 19 15                  -0.001595223
 -14897459.445 9 -11587982.11048  22188687.736    22188691.7284   22188697.0864
      1315.124        1024.772
  -2125593.121 9  -1648652.58248  20099146.201    20099149.7704   20099154.9774
     -1005.288        -783.341
  -5870147.061 9  -4563703.56748  20566215.949    20566219.2464   20566224.6114
       465.101         362.416
 -17852293.962 9 -13881737.44148  20141955.108    20141958.6814   20141964.4894
      2061.918        1606.689
   9717201.833 9   7567534.07946  23255264.658    23255268.7254   23255275.7964
     -2611.774       -2035.149
 -10553115.432 9  -8213023.68147  23061669.125    23061671.9534   23061678.1204
       636.370         495.873
 97  4 29 17  1 29.9980000  0  6 26 27  2  7 19 15                  -0.001605710
 -14936649.881 9 -11618520.11048  22181230.126    22181233.9974   22181239.4084
      1297.412        1010.970
  -2095211.323 9  -1624978.47148  20104927.757    20104931.2434   20104936.4794
     -1020.372        -795.095
  -5884004.904 9  -4574501.88848  20563579.013    20563582.2154   20563587.5594
       458.731         357.453
 -17913906.843 9 -13929747.46048  20130230.593    20130234.1474   20130239.9344
      2045.440        1593.849
   9795682.989 9   7628688.15846  23270199.591    23270203.2454   23270210.3754
     -2620.257       -2041.759
 -10571915.236 9  -8227672.89647  23058090.801    23058094.3674   23058100.6284
       616.831         480.648
 97  4 29 17  1 59.9980000  0  6 26 27  2  7 19 15                  -0.001616173
 -14975308.109 9 -11648643.40648  22173873.589    22173877.5774   22173882.9694
      1279.983         997.389
  -2064378.879 9  -1600953.21048  20110794.984    20110798.4514   20110803.7204
     -1035.041        -806.525
  -5897688.368 9  -4585164.32448  20560975.211    20560978.3534   20560983.6524
       453.849         353.649
 -17975030.264 9 -13977376.08748  20118599.227    20118602.7264   20118608.5344
      2029.762        1581.633
   9874410.834 9   7690034.48646  23285181.002    23285184.6974   23285191.7674
     -2627.939       -2047.745
 -10590131.251 9  -8241867.20047  23054624.480    23054628.0424   23054634.2884
       597.779         465.802
 97  4 29 17  2 29.9980000  0  6 26 27  2  7 19 15                  -0.001626618
 -15013445.189 9 -11678360.61748  22166616.471    22166620.3984   22166625.6764
      1261.372         982.887
  -2033107.221 9  -1576585.70848  20116745.886    20116749.2484   20116754.5184
     -1050.865        -818.856
  -5911240.312 9  -4595724.28148  20558396.381    20558399.5224   20558404.7964
       448.494         349.476
 -18035694.962 9 -14024647.26648  20107055.004    20107058.6044   20107064.3854
      2013.479        1568.945
   9953352.087 9   7751547.07746  23300202.984    23300206.7864   23300213.6744
     -2635.825       -2053.890
 -10607781.788 9  -8255620.85547  23051266.002    23051269.3124   23051275.5374
       577.863         450.283
 97  4 29 17  2 59.9980000  0  6 26 27  2  7 19 15                  -0.001637024
 -15051017.264 9 -11707637.56448  22159466.715    22159470.7164   22159475.9364
      1242.735         968.365
  -2001357.356 9  -1551845.57848  20122787.732    20122791.0834   20122796.3164
     -1066.662        -831.165
  -5924637.604 9  -4606163.72448  20555847.018    20555850.1204   20555855.3894
       444.087         346.042
 -18095875.767 9 -14071541.38348  20095603.066    20095606.5644   20095612.3054
      1997.916        1556.818
  10032522.182 9   7813238.01646  23315268.794    23315272.4044   23315279.1784
     -2642.681       -2059.232
 -10624840.208 9  -8268913.12447  23048020.133    23048023.1674   23048029.4584
       558.739         435.381
 97  4 29 17  3 29.9980000  0  6 26 27  2  7 19 15                  -0.001647403
 -15088024.527 9 -11736474.39548  22152424.537    22152428.5294   22152433.7434
      1223.882         953.674
  -1969112.846 9  -1526720.01048  20128923.705    20128927.0434   20128932.2684
     -1083.555        -844.329
  -5937895.279 9  -4616494.38048  20553324.115    20553327.2504   20553332.5814
       439.069         342.132
 -18155581.275 9 -14118065.14248  20084241.508    20084244.9764   20084250.7074
      1981.944        1544.372
  10111892.447 9   7875084.93546  23330372.484    23330376.0744   23330382.7484
     -2648.986       -2064.145
 -10641318.456 9  -8281753.31547  23044884.612    23044887.3764   23044893.8084
       539.203         420.158
 97  4 29 17  3 59.9980000  0  6 26 27  2  7 19 15                  -0.001657772
 -15124471.143 9 -11764874.35148  22145488.973    22145492.9434   22145498.2114
      1206.749         940.324
  -1936368.404 9  -1501204.87948  20135154.705    20135158.0684   20135163.3434
     -1098.696        -856.127
  -5951007.226 9  -4626711.48048  20550828.947    20550832.1054   20550837.4514
       435.707         339.512
 -18214823.224 9 -14164227.68148  20072968.217    20072971.6224   20072977.3344
      1968.211        1533.671
  10191428.803 9   7937061.26146  23345507.453    23345511.2924   23345518.0904
     -2652.715       -2067.051
 -10657220.822 9  -8294144.75647  23041858.587    23041861.2934   23041867.7614
       521.651         406.481
 97  4 29 17  4 29.9980000  0  6 26 27  2  7 19 15                  -0.001668130
 -15160343.822 9 -11792827.09148  22138662.557    22138666.5924   22138671.9044
      1186.936         924.885
  -1903104.146 9  -1475284.70048  20141484.633    20141488.0274   20141493.3164
     -1116.895        -870.308
  -5963940.571 9  -4636789.41648  20548368.016    20548371.0214   20548376.3134
       428.368         333.793
 -18273584.054 9 -14210015.32448  20061786.369    20061789.8104   20061795.5104
      1951.094        1520.333
  10271147.409 9   7999179.59046  23360677.494    23360681.2604   23360688.0444
     -2659.923       -2072.667
 -10672532.333 9  -8306075.78747  23038945.282    23038947.5784   23038954.1094
       501.092         390.461
 97  4 29 17  4 59.9980000  0  6 26 27  2  7 19 15                  -0.001678495
 -15195668.509 9 -11820352.83048  22131940.724    22131944.5344   22131949.8074
      1167.865         910.025
  -1869335.735 9  -1448971.67948  20147910.657    20147913.9684   20147919.2554
     -1134.615        -884.115
  -5976688.845 9  -4646723.13448  20545942.076    20545945.1114   20545950.3964
       421.220         328.223
 -18331867.060 9 -14255430.63648  20050695.491    20050698.9544   20050704.6184
      1934.007        1507.018
  10351041.571 9   8061434.74346  23375881.234    23375884.6334   23375891.4204
     -2666.869       -2078.080
 -10687267.832 9  -8317557.98747  23036140.810    23036143.4144   23036150.0344
       480.891         374.720
 97  4 29 17  5 29.9980000  0  6 26 27  2  7 19 15                  -0.001688861
 -15230436.966 9 -11847445.13748  22125324.542    22125328.3124   22125333.5844
      1149.694         895.865
  -1835050.999 9  -1422256.31948  20154434.875    20154438.1844   20154443.4314
     -1151.178        -897.022
  -5989221.094 9  -4656488.52448  20543557.219    20543560.2994   20543565.6124
       414.087         322.665
 -18389642.493 9 -14300450.43348  20039701.195    20039704.6654   20039710.2904
      1917.386        1494.067
  10431145.802 9   8123853.57246  23391123.866    23391128.0344   23391134.9604
     -2673.701       -2083.403
 -10701401.820 9  -8328571.45747  23033451.417    23033453.8944   23033460.3784
       461.007         359.226
 97  4 29 17  5 59.9980000  0  6 26 27  2  7 19 15                  -0.001699230
 -15264669.294 9 -11874119.67648  22118810.204    22118814.0544   22118819.3884
      1132.565         882.518
  -1800295.700 9  -1395174.28648  20161048.663    20161051.9524   20161057.1574
     -1165.772        -908.394
  -6001559.570 9  -4666102.92548  20541209.502    20541212.3844   20541217.6684
       408.580         318.374
 -18446933.299 9 -14345092.60548  20028799.022    20028802.5614   20028808.1514
      1901.929        1482.023
  10511447.534 9   8186426.30446  23406405.325    23406408.9564   23406416.0274
     -2679.870       -2088.210
 -10714953.817 9  -8339131.44047  23030872.828    23030875.0544   23030881.4304
       442.435         344.755
 97  4 29 17  6 29.9980000  0  6 26 27  2  7 19 15                  -0.001709591
 -15298366.860 9 -11900377.51548  22112397.892    22112401.6154   22112406.9574
      1114.668         868.572
  -1765085.734 9  -1367737.97148  20167749.165    20167752.1914   20167757.4164
     -1180.807        -920.109
  -6013711.231 9  -4675571.75548  20538897.058    20538900.0004   20538905.2814
       402.385         313.547
 -18503732.898 9 -14389352.01648  20017990.592    20017993.9284   20017999.5124
      1885.455        1469.186
  10591967.639 9   8249169.20146  23421728.096    23421731.4984   23421738.5634
     -2687.459       -2094.124
 -10727922.835 9  -8349237.17147  23028404.907    23028407.2244   23028413.4124
       422.924         329.551
 97  4 29 17  6 59.9980000  0  6 26 27  2  7 19 15                  -0.001719937
 -15331526.610 9 -11926216.28148  22106087.909    22106091.5294   22106096.8874
      1095.274         853.460
  -1729435.609 9  -1339958.67048  20174533.164    20174536.1914   20174541.4414
     -1196.454        -932.302
  -6025690.518 9  -4684906.26848  20536617.631    20536620.4504   20536625.6834
       395.730         308.361
 -18560043.615 9 -14433230.47948  20007275.024    20007278.3684   20007283.8944
      1867.999        1455.584
  10672709.669 9   8312085.02846  23437092.937    23437096.2934   23437103.3954
     -2695.894       -2100.697
 -10740309.182 9  -8358888.87247  23026047.650    23026050.3284   23026056.3844
       402.094         313.320
 97  4 29 17  7 29.9980000  0  6 26 27  2  7 19 15                  -0.001730256
 -15364130.817 9 -11951622.15548  22099883.589    22099887.1854   22099892.5304
      1077.114         839.310
  -1693343.715 9  -1311835.13748  20181401.297    20181404.2644   20181409.5194
     -1210.881        -943.544
  -6037494.952 9  -4694104.52648  20534371.399    20534374.1504   20534379.4024
       390.071         303.951
 -18615857.257 9 -14476721.61248  19996654.226    19996657.3894   19996662.9144
      1851.788        1442.952
  10753671.426 9   8375172.03446  23452499.026    23452502.8004   23452510.0414
     -2702.537       -2105.873
 -10752097.605 9  -8368074.64747  23023804.487    23023807.0954   23023813.1374
       382.596         298.127
 97  4 29 17  7 59.9980000  0  6 26 27  2  7 19 15                  -0.001740559
 -15396185.944 9 -11976600.18248  22093783.627    22093787.3034   22093792.6394
      1058.408         824.734
  -1656817.789 9  -1283373.39748  20188351.789    20188354.9394   20188360.2004
     -1225.888        -955.237
  -6049133.174 9  -4703173.26948  20532156.526    20532159.4264   20532164.6764
       384.142         299.331
 -18671186.973 9 -14519835.65748  19986125.142    19986128.4774   19986134.0334
      1835.371        1430.159
  10834825.183 9   8438408.66746  23467941.808    23467945.8254   23467953.1794
     -2709.167       -2111.039
 -10763299.236 9  -8376803.19147  23021672.989    23021675.4584   23021681.5284
       362.835         282.728
 97  4 29 17  8 29.9980000  0  6 26 27  2  7 19 15                  -0.001750845
 -15427676.893 9 -12001138.58148  22087791.064    22087794.7594   22087800.0964
      1041.028         811.191
  -1619821.508 9  -1254545.14848  20195391.894    20195395.0904   20195400.3944
     -1240.653        -966.743
  -6060582.771 9  -4712095.03348  20529977.613    20529980.5874   20529985.8694
       379.136         295.431
 -18726022.343 9 -14562564.49848  19975690.305    19975693.6174   19975699.1874
      1820.437        1418.522
  10916182.955 9   8501804.29546  23483423.514    23483427.6444   23483435.0954
     -2714.484       -2115.182
 -10773900.956 9  -8385064.27947  23019655.108    23019657.9954   23019664.0804
       344.113         268.140
 97  4 29 17  8 59.9980000  0  6 26 27  2  7 19 15                  -0.001761133
 -15458623.366 9 -12025252.71648  22081902.094    22081905.8344   22081911.1924
      1022.155         796.484
  -1582351.746 9  -1225347.94848  20202522.088    20202525.3414   20202530.7054
     -1257.346        -979.750
  -6071854.058 9  -4720877.85548  20527832.738    20527835.7254   20527841.0264
       372.335         290.131
 -18780389.131 9 -14604928.20948  19965344.584    19965347.9494   19965353.5444
      1804.084        1405.780
  10997710.041 9   8565331.86846  23498937.554    23498941.6654   23498949.2454
     -2720.613       -2119.958
 -10783921.685 9  -8392872.64847  23017748.312    23017751.0664   23017757.1684
       323.999         252.467
 97  4 29 17  9 29.9980000  0  6 26 27  2  7 19 15                  -0.001771425
 -15489018.168 9 -12048936.97648  22076117.986    22076121.9074   22076127.3174
      1003.854         782.224
  -1544384.175 9  -1195762.84148  20209747.090    20209750.3004   20209755.7454
     -1274.136        -992.833
  -6082931.457 9  -4729509.59448  20525724.670    20525727.7654   20525733.1014
       365.893         285.111
 -18834278.069 9 -14646919.57148  19955089.837    19955093.2304   19955098.8324
      1788.256        1393.446
  11079410.502 9   8628994.51146  23514484.728    23514488.7404   23514496.3344
     -2726.496       -2124.542
 -10793350.980 9  -8400220.16447  23015954.117    23015956.6234   23015962.7804
       304.360         237.164
 97  4 29 17  9 59.9980000  0  6 26 27  2  7 19 15                  -0.001781708
 -15518849.567 9 -12072182.22848  22070441.354    22070445.2134   22070450.6254
       985.678         768.061
  -1505899.924 9  -1165775.13448  20217070.342    20217073.6194   20217079.1024
     -1290.793       -1005.813
  -6093809.931 9  -4737986.32948  20523654.428    20523657.6704   20523663.0374
       360.108         280.604
 -18887683.297 9 -14688534.01648  19944927.170    19944930.5634   19944936.1734
      1772.812        1381.412
  11161308.627 9   8692811.15246  23530069.700    23530073.4474   23530081.1604
     -2732.548       -2129.258
 -10802187.053 9  -8407105.42147  23014272.345    23014275.1314   23014281.4004
       285.384         222.377
 97  4 29 17 10 29.9980000  0  6 26 27  2  7 19 15                  -0.001791976
 -15548118.209 9 -12094988.96648  22064871.823    22064875.5994   22064880.9964
       966.545         753.152
  -1466892.705 9  -1135379.91948  20224493.063    20224496.4864   20224501.9334
     -1308.526       -1019.631
  -6104496.339 9  -4746313.40548  20521620.886    20521624.1314   20521629.4934
       353.259         275.267
 -18940600.554 9 -14729768.22748  19934857.334    19934860.7104   19934866.3624
      1755.918        1368.248
  11243409.963 9   8756786.20746  23545693.059    23545696.8994   23545704.4884
     -2739.776       -2134.890
 -10810427.557 9  -8413526.60147  23012704.516    23012707.0334   23012713.3994
       264.928         206.437
 97  4 29 17 10 59.9980000  0  6 26 27  2  7 19 15                  -0.001802237
 -15576837.098 9 -12117367.31948  22059406.753    22059410.5914   22059415.9664
       948.079         738.763
  -1427395.917 9  -1104603.21848  20232009.097    20232012.5184   20232017.9454
     -1324.497       -1032.076
  -6115004.346 9  -4754501.46348  20519621.246    20519624.5294   20519629.8634
       347.417         270.714
 -18993031.900 9 -14770623.80548  19924879.773    19924883.2994   19924888.9804
      1739.497        1355.452
  11325696.982 8   8820905.90546  23561352.104    23561355.7174   23561363.0524
     -2746.166       -2139.870
 -10818082.419 9  -8419491.43247  23011247.757    23011250.3694   23011256.8234
       245.335         191.170
 97  4 29 17 11 29.9980000  0  6 26 27  2  7 19 15                  -0.001812485
 -15605005.204 9 -12139316.49648  22054046.582    22054050.3794   22054055.7474
       929.617         724.377
  -1387432.102 9  -1073462.60348  20239613.831    20239617.3924   20239622.8114
     -1339.962       -1044.126
  -6125347.963 9  -4762561.42748  20517652.995    20517656.2494   20517661.5774
       341.870         266.392
 -19044972.907 9 -14811097.30248  19914995.727    19914999.2774   19915004.9374
      1723.040        1342.629
  11408178.107 9   8885176.83046  23577047.559    23577051.3384   23577058.7824
     -2752.772       -2145.017
 -10825152.634 9  -8425000.69547  23009902.343    23009905.0094   23009911.3664
       225.815         175.960
 97  4 29 17 11 59.9980000  0  6 26 27  2  7 19 15                  -0.001822720
 -15632624.300 9 -12160837.87948  22048790.977    22048794.6254   22048799.9464
       912.541         711.071
  -1347006.476 9  -1041962.13048  20247306.523    20247310.1264   20247315.5904
     -1354.215       -1055.232
  -6135525.819 9  -4770492.23448  20515716.327    20515719.4764   20515724.7854
       337.531         263.011
 -19096421.238 9 -14851186.89548  19905205.398    19905208.9984   19905214.6584
      1707.744        1330.710
  11490852.239 9   8949598.14746  23592780.220    23592783.6464   23592791.0254
     -2757.790       -2148.927
 -10831640.056 9  -8430055.82347  23008667.861    23008670.4344   23008676.8534
       207.480         161.673
 97  4 29 17 12 29.9980000  0  6 26 27  2  7 19 15                  -0.001832945
 -15659696.812 9 -12181933.34948  22043639.237    22043642.9174   22043648.2284
       894.058         696.668
  -1306123.991 9  -1010105.66448  20255086.180    20255089.7704   20255095.2884
     -1369.478       -1067.126
  -6145540.083 9  -4778295.55848  20513810.527    20513813.7884   20513819.1164
       331.926         258.644
 -19147380.089 9 -14890895.07848  19895508.220    19895511.8074   19895517.4594
      1691.350        1317.935
  11573705.647 8   9014159.21646  23608546.356    23608550.3354   23608557.5394
     -2763.937       -2153.717
 -10837537.431 9  -8434651.18947  23007545.511    23007548.1654   23007554.6384
       187.519         146.119
 97  4 29 17 12 59.9980000  0  6 26 27  2  7 19 15                  -0.001843152
 -15686218.117 9 -12202599.29948  22038592.317    22038596.1044   22038601.3904
       875.562         682.256
  -1264793.211 9   -977899.87748  20262951.238    20262954.7494   20262960.3094
     -1384.516       -1078.844
  -6155398.115 9  -4785977.14948  20511934.654    20511937.8764   20511943.2244
       326.894         254.723
 -19197859.342 9 -14930229.54848  19885902.265    19885905.8664   19885911.5714
      1675.463        1305.556
  11656740.295 9   9078861.46946  23624347.278    23624351.3554   23624358.6324
     -2770.100       -2158.519
 -10842846.294 9  -8438787.97847  23006535.403    23006537.9204   23006544.4094
       167.831         130.777
 97  4 29 17 13 29.9980000  0  6 26 27  2  7 19 15                  -0.001853338
 -15712187.698 9 -12222835.34048  22033650.476    22033654.2574   22033659.5424
       857.057         667.837
  -1223009.860 9   -945341.44148  20270902.150    20270905.8684   20270911.4214
     -1399.802       -1090.755
  -6165112.135 9  -4793546.51748  20510086.138    20510089.3934   20510094.7104
       321.864         250.803
 -19247870.399 9 -14969199.19448  19876385.381    19876389.0784   19876394.7784
      1659.829        1293.373
  11739948.184 9   9143698.68546  23640181.158    23640185.3544   23640192.7484
     -2775.674       -2162.863
 -10847566.659 9  -8442466.18747  23005636.860    23005639.6424   23005646.1664
       148.118         115.417
 97  4 29 17 13 59.9980000  0  6 26 27  2  7 19 15                  -0.001863513
 -15737612.186 9 -12242646.63448  22028812.335    22028816.1424   22028821.4224
       838.239         653.173
  -1180777.829 9   -912433.38748  20278938.640    20278942.4034   20278947.9294
     -1415.153       -1102.717
  -6174683.711 9  -4801004.89648  20508264.736    20508267.9724   20508273.2834
       316.653         246.743
 -19297419.885 9 -15007809.17148  19866956.476    19866960.1274   19866965.8304
      1643.822        1280.900
  11823308.617 8   9208654.80046  23656044.494    23656048.2924   23656055.7144
     -2781.256       -2167.212
 -10851705.609 9  -8445691.32847  23004848.495    23004852.0184   23004858.4234
       128.132          99.843
 97  4 29 17 14 29.9980000  0  6 26 27  2  7 19 15                  -0.001873666
 -15762476.571 9 -12262021.48948  22024080.748    22024084.5844   22024089.8464
       820.567         639.403
  -1138102.698 9   -879180.05748  20287059.351    20287063.2384   20287068.7674
     -1428.714       -1113.284
  -6184107.544 9  -4808348.14448  20506471.375    20506474.6674   20506480.0194
       312.750         243.701
 -19346495.006 9 -15046049.51748  19857617.816    19857621.4304   19857627.1364
      1628.911        1269.281
  11906825.962 8   9273733.14846  23671938.160    23671941.2944   23671948.8524
     -2785.492       -2170.513
 -10855254.087 9  -8448456.37547  23004173.391    23004176.8034   23004183.0604
       109.672          85.459
 97  4 29 17 14 59.9980000  0  6 26 27  2  7 19 15                  -0.001883814
 -15786791.664 9 -12280968.31848  22019453.588    22019457.5884   22019462.8764
       801.267         624.364
  -1095000.705 9   -845594.10348  20295261.419    20295265.2584   20295270.8274
     -1444.045       -1125.230
  -6193390.254 9  -4815581.43048  20504704.992    20504708.2594   20504713.5984
       306.799         239.064
 -19395094.895 9 -15083919.55348  19848369.485    19848373.1554   19848378.8284
      1611.823        1255.966
  11990489.905 8   9338925.76546  23687858.673    23687862.0384   23687869.6244
     -2791.363       -2175.088
 -10858230.990 9  -8450776.03647  23003606.621    23003610.2784   23003616.5084
        89.480          69.725
 97  4 29 17 15 29.9980000  0  6 26 27  2  7 19 15                  -0.001893962
 -15810558.596 9 -12299488.00648  22014930.937    22014934.8864   22014940.1954
       783.136         610.236
  -1051458.927 9   -811665.45848  20303547.134    20303551.0164   20303556.5824
     -1458.925       -1136.825
  -6202512.704 9  -4822689.83848  20502969.062    20502972.3234   20502977.6504
       301.125         234.643
 -19443206.034 9 -15121408.74148  19839214.296    19839217.8934   19839223.5554
      1595.474        1243.226
  12074302.695 8   9404234.30445  23703807.317    23703811.0934   23703818.9274
     -2796.450       -2179.052
 -10860628.660 9  -8452644.34047  23003150.538    23003154.0364   23003160.3414
        70.271          54.757
 97  4 29 17 15 59.9980000  0  6 26 27  2  7 19 15                  -0.001904107
 -15833774.704 9 -12317578.48248  22010513.005    22010517.0364   22010522.3364
       764.839         595.978
  -1007455.501 9   -777377.09448  20311921.030    20311924.6184   20311930.1844
     -1474.532       -1148.986
  -6211450.402 9  -4829654.28148  20501268.297    20501271.5634   20501276.8544
       294.913         229.802
 -19490814.549 9 -15158506.27548  19830154.602    19830158.3014   19830163.9794
      1578.729        1230.178
  12158288.859 9   9469678.01546  23719788.990    23719793.1254   23719800.9304
     -2802.552       -2183.807
 -10862438.965 9  -8454054.97947  23002806.350    23002809.5774   23002815.8584
        50.596          39.425
 97  4 29 17 16 29.9980000  0  6 26 27  2  7 19 15                  -0.001914257
 -15856457.520 9 -12335253.41448  22006196.859    22006200.6554   22006205.9284
       747.472         582.446
   -962985.412 9   -742725.10048  20320383.513    20320387.0314   20320392.5654
     -1490.211       -1161.203
  -6220207.494 9  -4836477.99548  20499601.894    20499605.1434   20499610.4354
       288.943         225.150
 -19537941.078 9 -15195228.23548  19821186.750    19821190.4234   19821196.1334
      1563.123        1218.018
  12242453.883 8   9535261.06045  23735805.099    23735809.2834   23735817.1404
     -2808.493       -2188.436
 -10863672.212 9  -8455015.94547  23002571.275    23002574.9984   23002581.2274
        31.584          24.611
 97  4 29 17 16 59.9980000  0  6 26 27  2  7 19 15                  -0.001924413
 -15878621.612 9 -12352524.14848  22001978.997    22001982.9644   22001988.2164
       729.504         568.445
   -918031.265 9   -707695.91948  20328937.922    20328941.5534   20328947.0284
     -1507.442       -1174.630
  -6228776.076 9  -4843154.81548  20497971.288    20497974.5954   20497979.8954
       281.562         219.399
 -19584606.183 9 -15231590.64648  19812306.752    19812310.3534   19812316.0834
      1547.117        1205.546
  12326803.013 8   9600987.61745  23751856.627    23751860.5634   23751868.4524
     -2815.493       -2193.891
 -10864326.219 9  -8455525.55547  23002446.720    23002450.5544   23002456.7704
        11.181           8.712
 97  4 29 17 17 29.9980000  0  6 26 27  2  7 19 15                  -0.001934574
 -15900271.893 9 -12369394.49948  21997859.012    21997863.0724   21997868.3514
       713.233         555.766
   -872577.282 9   -672277.25548  20337587.631    20337591.1754   20337596.6294
     -1523.179       -1186.893
  -6237142.289 9  -4849673.94848  20496379.227    20496382.5834   20496387.8654
       275.695         214.827
 -19630812.611 9 -15267595.64548  19803513.981    19803517.5724   19803523.2854
      1532.818        1194.404
  12411343.052 8   9666862.84445  23767944.327    23767947.9224   23767956.1764
     -2820.917       -2198.117
 -10864388.537 9  -8455574.11047  23002435.365    23002438.6714   23002444.9304
        -7.514          -5.855
 97  4 29 17 17 59.9980000  0  6 26 27  2  7 19 15                  -0.001944754
 -15921424.487 9 -12385877.03948  21993833.876    21993837.8854   21993843.2024
       696.190         542.486
   -826653.144 9   -636492.23548  20346326.525    20346330.2474   20346335.7164
     -1539.162       -1199.347
  -6245327.070 9  -4856051.70248  20494821.698    20494825.0834   20494830.3474
       269.349         209.882
 -19676584.297 9 -15303261.87948  19794803.934    19794807.5144   19794813.2324
      1517.815        1182.713
  12496045.224 8   9732864.45645  23784061.833    23784066.1074   23784074.4754
     -2826.424       -2202.408
 -10863884.333 9  -8455181.23247  23002531.210    23002534.6024   23002540.8454
       -26.886         -20.950
 97  4 29 17 18 29.9980000  0  6 26 27  2  7 19 15                  -0.001954948
 -15942066.384 9 -12401961.64348  21989905.849    21989909.8774   21989915.1854
       679.739         529.667
   -780253.544 9   -600336.72648  20355155.978    20355159.8034   20355165.3214
     -1554.240       -1211.096
  -6253324.605 9  -4862283.55448  20493299.835    20493303.1934   20493308.4944
       263.731         205.505
 -19721903.341 9 -15338575.41148  19786180.059    19786183.5834   19786189.2974
      1503.078        1171.230
  12580893.932 8   9798980.30246  23800208.471    23800212.4634   23800220.6584
     -2830.268       -2205.404
 -10862802.114 9  -8454337.94847  23002737.258    23002740.5874   23002746.7694
       -45.502         -35.456
 97  4 29 17 18 59.9980000  0  6 26 27  2  7 19 15                  -0.001965157
 -15962180.635 9 -12417635.08848  21986078.246    21986082.2354   21986087.5564
       661.706         515.615
   -733381.390 9   -563812.99648  20364075.472    20364079.3274   20364084.8774
     -1570.006       -1223.381
  -6261134.380 9  -4868369.09648  20491813.737    20491817.0304   20491822.3364
       257.500         200.649
 -19766736.986 9 -15373510.70348  19777648.484    19777652.0084   19777657.7304
      1486.157        1158.044
  12665874.447 8   9865198.73445  23816380.001    23816383.8564   23816392.0184
     -2834.596       -2208.776
 -10861132.944 9  -8453037.29947  23003055.070    23003058.2014   23003064.3194
       -65.270         -50.860
 97  4 29 17 19 29.9980000  0  6 26 27  2  7 19 15                  -0.001975386
 -15981764.313 9 -12432895.10448  21982351.529    21982355.5684   21982360.9344
       644.050         501.857
   -686064.473 9   -526942.69548  20373079.506    20373083.4634   20373089.0444
     -1583.994       -1234.281
  -6268784.787 9  -4874330.45948  20490357.913    20490361.2304   20490366.5314
       252.874         197.045
 -19811070.123 9 -15408055.99048  19769212.222    19769215.7134   19769221.4264
      1469.834        1145.325
  12750959.675 8   9931498.82146  23832571.434    23832575.3474   23832583.0774
     -2837.451       -2211.001
 -10858890.507 9  -8451289.95447  23003481.652    23003484.8144   23003491.0524
       -83.887         -65.366
 97  4 29 17 19 59.9980000  0  6 26 27  2  7 19 15                  -0.001985617
 -16000790.451 9 -12447720.67348  21978731.038    21978735.0534   21978740.4014
       625.619         487.495
   -638313.643 9   -489734.28648  20382166.131    20382170.1514   20382175.7414
     -1598.348       -1245.466
  -6276279.436 9  -4880170.45248  20488931.796    20488935.0694   20488940.3384
       247.923         193.187
 -19854891.306 9 -15442202.35348  19760873.299    19760876.8464   19760882.5004
      1452.702        1131.976
  12836155.277 8   9997884.86345  23848784.039    23848787.6514   23848795.2204
     -2841.133       -2213.870
 -10856065.560 9  -8449088.70647  23004019.661    23004022.3864   23004028.6154
      -103.414         -80.582
 97  4 29 17 20 29.9980000  0  6 26 27  2  7 19 15                  -0.001995848
 -16019263.542 9 -12462115.29348  21975215.607    21975219.7674   21975225.0714
       605.614         471.907
   -590133.013 9   -452190.96548  20391334.769    20391338.6414   20391344.1854
     -1613.970       -1257.639
  -6283629.988 9  -4885898.16148  20487533.132    20487536.3244   20487541.5964
       241.951         188.533
 -19898196.477 9 -15475946.62648  19752632.616    19752636.1214   19752641.7684
      1434.158        1117.526
  12921469.859 8  10064363.70645  23865019.118    23865022.6464   23865029.8544
     -2846.958       -2218.409
 -10852653.743 9  -8446430.17147  23004668.689    23004671.6594   23004677.8704
      -124.347         -96.894
 97  4 29 17 20 59.9980000  0  6 26 27  2  7 19 15                  -0.002006054
 -16037171.658 9 -12476069.67048  21971807.863    21971811.9834   21971817.2674
       588.571         458.627
   -541524.856 9   -414314.51448  20400584.929    20400588.5494   20400594.0224
     -1626.425       -1267.344
  -6290846.332 9  -4891521.29748  20486159.947    20486163.1384   20486168.3574
       239.222         186.407
 -19940990.497 9 -15509292.60348  19744489.212    19744492.6864   19744498.3214
      1419.182        1105.856
  13006940.623 9  10130964.17445  23881283.899    23881287.1794   23881294.5994
     -2850.896       -2221.477
 -10848647.564 9  -8443308.48547  23005430.970    23005434.0054   23005440.2384
      -142.568        -111.092
 97  4 29 17 21 29.9970000  0  7  4 26 27  2  7 19 15               -0.002016245
  -1778793.31418  -1364092.13356  24494368.392    24494372.2385   24494379.6535
      3909.110        3046.060
 -16054547.973 9 -12489609.65848  21968501.474    21968505.3454   21968510.6554
       569.573         443.823
   -492522.174 9   -376130.64048  20409910.039    20409913.5094   20409918.9454
     -1640.969       -1278.677
  -6297950.221 9  -4897056.80548  20484808.189    20484811.3494   20484816.5214
       233.926         182.280
 -19983321.049 9 -15542277.43448  19736434.134    19736437.4594   19736443.0994
      1402.709        1093.020
  13092562.402 8  10197682.41745  23897577.098    23897580.5974   23897587.8644
     -2857.738       -2226.809
 -10844071.489 9  -8439742.72447  23006302.266    23006304.8704   23006311.1074
      -162.833        -126.883
 97  4 29 17 21 59.9970000  0  7  4 26 27  2  7 19 15               -0.002026406
  -1896123.027 9  -1455517.83046  24472041.279    24472045.3274   24472052.4944
      3912.860        3048.982
 -16071373.519 9 -12502720.48048  21965299.658    21965303.5764   21965308.8434
       552.291         430.357
   -443078.768 9   -337603.34448  20419318.828    20419322.3104   20419327.7744
     -1655.374       -1289.902
  -6304893.953 9  -4902467.51248  20483486.943    20483490.0234   20483495.1534
       229.033         178.467
 -20025170.363 9 -15574887.27348  19728470.447    19728473.7904   19728479.3844
      1387.336        1081.041
  13178393.965 8  10264564.04245  23913909.883    23913913.7054   23913921.3564
     -2864.106       -2231.771
 -10838895.866 9  -8435709.79247  23007287.189    23007289.7874   23007296.0084
      -182.120        -141.912
 97  4 29 17 22 29.9970000  0  7  4 26 27  2  7 19 15               -0.002036552
  -2013559.495 9  -1547026.75146  24449694.020    24449697.9334   24449705.1704
      3916.804        3052.055
 -16087676.660 9 -12515424.23148  21962197.473    21962201.2234   21962206.4194
       535.139         416.991
   -393190.319 9   -298729.25748  20428812.504    20428815.7924   20428821.2694
     -1670.000       -1301.299
  -6311681.169 9  -4907756.26348  20482195.515    20482198.4924   20482203.5814
       223.901         174.468
 -20066557.774 9 -15607137.19048  19720594.785    19720598.0224   19720603.5964
      1372.404        1069.406
  13264420.390 8  10331597.44845  23930280.415    23930284.1314   23930291.6114
     -2870.405       -2236.679
 -10833141.256 9  -8431225.70447  23008381.909    23008384.8744   23008391.0994
      -200.998        -156.622
 97  4 29 17 22 59.9970000  0  7  4 26 27  2  7 19 15               -0.002046592
  -2131082.836 9  -1638603.37146  24427329.997    24427333.9234   24427341.3204
      3918.833        3053.636
 -16103438.609 9 -12527706.28048  21959198.047    21959201.7764   21959206.9764
       516.492         402.461
   -342834.616 9   -259491.07848  20438394.783    20438398.1754   20438403.6214
     -1686.287       -1313.990
  -6318271.050 9  -4912891.24248  20480941.545    20480944.4774   20480949.5694
       216.044         168.346
 -20107475.536 9 -15639021.14848  19712808.493    19712811.6524   19712817.1844
      1356.140        1056.732
  13350655.012 8  10398793.21345  23946690.818    23946694.0334   23946701.3834
     -2877.473       -2242.187
 -10826792.780 9  -8426278.87247  23009590.103    23009592.9504   23009599.1194
      -221.448        -172.557
 97  4 29 17 23 29.9970000  0  7  4 26 27  2  7 19 15               -0.002056737
  -2248697.308 8  -1730250.97945  24404948.441    24404952.5174   24404959.8994
      3921.603        3055.794
 -16118657.425 9 -12539565.10348  21956302.268    21956305.7544   21956310.9514
       497.431         387.608
   -292000.711 9   -219880.27348  20448068.125    20448071.5764   20448076.9894
     -1703.284       -1327.234
  -6324630.866 9  -4917846.95148  20479731.293    20479734.2374   20479739.3294
       207.426         161.631
 -20147917.770 9 -15670534.56548  19705112.523    19705115.7394   19705121.2494
      1339.329        1043.633
  13437070.086 8  10466129.58846  23963135.226    23963138.4954   23963145.7144
     -2883.906       -2247.199
 -10819849.087 9  -8420868.24146  23010911.676    23010914.3084   23010920.5544
      -241.971        -188.549
 97  4 29 17 23 59.9970000  0  7  4 26 27  2  7 19 15               -0.002066884
  -2366423.226 8  -1821985.39745  24382545.779    24382550.0274   24382557.3084
      3926.327        3059.476
 -16133330.400 9 -12550998.59648  21953509.954    21953513.5534   21953518.7944
       480.395         374.334
   -240679.707 9   -179889.91048  20457834.208    20457837.6674   20457843.0654
     -1718.423       -1339.031
  -6330758.925 9  -4922622.07148  20478565.239    20478568.1414   20478573.2014
       200.974         156.603
 -20187884.335 9 -15701677.33448  19697507.189    19697510.3744   19697515.8394
      1324.709        1032.241
  13523636.451 8  10533583.75345  23979608.948    23979611.6914   23979619.1094
     -2887.340       -2249.875
 -10812316.339 9  -8414998.60246  23012345.155    23012347.7434   23012353.9604
      -260.565        -203.038
 97  4 29 17 24 29.9970000  0  7  4 26 27  2  7 19 15               -0.002077010
  -2484258.363 8  -1913804.93845  24360122.903    24360126.7804   24360134.1204
      3930.186        3062.483
 -16147445.018 9 -12561997.01348  21950824.021    21950827.6454   21950832.8754
       461.342         359.487
   -188869.854 9   -139518.62548  20467693.273    20467696.7584   20467702.1974
     -1734.610       -1351.644
  -6336665.774 9  -4927224.81048  20477441.189    20477444.1144   20477449.1874
       193.717         150.948
 -20227372.221 9 -15732447.10648  19689992.893    19689996.0794   19690001.5224
      1308.550        1019.649
  13610335.705 9  10601141.59345  23996106.727    23996110.0944   23996117.2874
     -2891.846       -2253.386
 -10804185.537 9  -8408662.92946  23013892.000    23013895.0074   23013901.2244
      -280.753        -218.769
 97  4 29 17 24 59.9970000  0  7  4 26 27  2  7 19 15               -0.002087113
  -2602221.738 9  -2005724.38446  24337675.403    24337679.0504   24337686.3684
      3934.184        3065.598
 -16160999.114 9 -12572558.65048  21948244.459    21948248.3674   21948253.5884
       442.531         344.829
   -136598.367 9    -98787.62148  20477640.315    20477643.6984   20477649.1564
     -1749.882       -1363.544
  -6342377.364 9  -4931675.40448  20476354.347    20476357.2334   20476362.3344
       187.526         146.124
 -20266383.117 9 -15762845.19748  19682569.350    19682572.5454   19682577.9594
      1292.266        1006.961
  13697144.803 8  10668784.97745  24012625.335    24012629.2584   24012636.7804
     -2895.323       -2256.096
 -10795462.591 9  -8401865.85746  23015551.672    23015554.8934   23015561.1054
      -300.567        -234.208
 97  4 29 17 25 29.9970000  0  7  4 26 27  2  7 19 15               -0.002097183
  -2720300.249 8  -2097733.55246  24315206.144    24315209.5854   24315216.7664
      3938.240        3068.758
 -16173994.465 9 -12582684.90648  21945771.834    21945775.4574   21945780.7044
       424.480         330.764
    -83874.004 9    -57703.73048  20487673.577    20487676.8364   20487682.2904
     -1764.355       -1374.822
  -6347922.528 9  -4935996.31348  20475299.114    20475302.0144   20475307.1294
       182.804         142.445
 -20304897.326 9 -15792856.26048  19675240.279    19675243.5324   19675248.9654
      1275.944         994.242
  13784067.941 8  10736517.19546  24029166.515    24029170.3274   24029177.9274
     -2899.049       -2258.999
 -10786145.803 9  -8394606.05146  23017324.947    23017327.7924   23017334.0324
      -319.911        -249.281
 97  4 29 17 25 59.9970000  0  7  4 26 27  2  7 19 15               -0.002107236
  -2838486.492 8  -2189826.68146  24292716.055    24292719.4424   24292726.6294
      3941.234        3071.091
 -16186445.435 9 -12592386.97348  21943402.504    21943406.1154   21943411.3804
       406.174         316.499
    -30722.865 9    -16287.28548  20497788.032    20497791.1974   20497796.6524
     -1778.496       -1385.841
  -6353332.454 9  -4940211.84348  20474269.686    20474272.5774   20474277.6874
       178.348         138.972
 -20342919.953 9 -15822484.27648  19668004.782    19668008.0424   19668013.4754
      1259.313         981.283
  13871110.534 8  10804342.54245  24045730.650    24045733.9964   24045741.5754
     -2903.442       -2262.422
 -10776247.045 9  -8386892.76447  23019208.445    23019211.5564   23019217.7564
      -339.566        -264.597
 97  4 29 17 26 29.9970000  0  7  4 26 27  2  7 19 15               -0.002117272
  -2956751.981 8  -2281981.53045  24270210.835    24270214.0634   24270221.3974
      3943.648        3072.972
 -16198340.100 9 -12601655.55248  21941138.698    21941142.6484   21941147.8904
       387.182         301.700
     22855.592 9     25462.14248  20507983.707    20507986.8394   20507992.3514
     -1793.027       -1397.164
  -6358601.729 9  -4944317.78048  20473266.966    20473269.8704   20473274.9814
       173.112         134.892
 -20380424.389 9 -15851708.50548  19660867.786    19660871.1564   19660876.6304
      1241.337         967.276
  13958306.248 8  10872287.12746  24062323.927    24062326.9474   24062334.7304
     -2909.253       -2266.950
 -10765750.645 9  -8378713.78347  23021205.741    23021209.0064   23021215.2584
      -359.812        -280.373
 97  4 29 17 26 59.9970000  0  7  4 26 27  2  7 19 15               -0.002127293
  -3075080.211 8  -2374185.27145  24247693.546    24247696.8164   24247704.2574
      3945.464        3074.388
 -16209663.291 9 -12610478.83348  21938984.105    21938987.9714   21938993.1974
       368.310         286.995
     76871.612 9     67552.52248  20518262.472    20518265.7344   20518271.3104
     -1807.678       -1408.580
  -6363700.542 9  -4948290.88448  20472296.601    20472299.5704   20472304.7054
       167.221         130.302
 -20417386.226 9 -15880509.93048  19653834.266    19653837.5664   19653843.0334
      1223.421         953.315
  14045682.927 8  10940372.84945  24078951.080    24078954.1854   24078961.8144
     -2915.480       -2271.803
 -10754644.121 9  -8370059.36646  23023319.580    23023322.5354   23023328.8114
      -380.081        -296.167
 97  4 29 17 27 29.9970000  0  8  4 26 27  9  2  7 19 15            -0.002137314
  -3193471.007 9  -2466437.80045  24225164.885    24225167.8214   24225175.2284
      3947.580        3076.036
 -16220434.403 9 -12618871.92348  21936934.604    21936938.3174   21936943.5774
       349.851         272.611
    131328.838 9    109986.70148  20528625.319    20528628.6244   20528634.2234
     -1822.737       -1420.315
   -268378.67818   -188346.92755  24474189.002           0.0005          0.0005
      3880.253        3023.574
  -6368620.673 9  -4952124.76148  20471360.259    20471363.2934   20471368.4314
       160.842         125.331
 -20453827.223 9 -15908905.50648  19646899.728    19646903.0874   19646908.5494
      1206.357         940.018
  14133240.433 8  11008599.41845  24095611.559    24095615.7984   24095623.7134
     -2921.325       -2276.357
 -10742939.456 9  -8360938.88046  23025546.789    23025549.9124   23025556.0954
      -400.045        -311.723
 97  4 29 17 27 59.9970000  0  8  4 26 27  9  2  7 19 15            -0.002147327
  -3311949.988 8  -2558759.02546  24202618.097    24202622.0254   24202629.4294
      3951.003        3078.704
 -16230658.784 9 -12626838.97948  21934988.870    21934992.6654   21934997.9934
       331.853         258.587
    186226.590 9    152764.14448  20539071.918    20539075.3774   20539080.9224
     -1837.179       -1431.568
   -384789.172 8   -279056.15555  24452040.336           0.0005   24452049.0675
      3880.391        3023.681
  -6373360.287 9  -4955817.96948  20470458.401    20470461.4344   20470466.5254
       155.175         120.916
 -20489784.494 9 -15936924.15248  19640057.296    19640060.6094   19640066.0884
      1190.838         927.926
  14220953.146 8  11076946.88845  24112302.213    24112306.8194   24112315.1684
     -2925.981       -2279.985
 -10730651.873 9  -8351364.15146  23027885.126    23027888.0754   23027894.3374
      -419.108        -326.578
 97  4 29 17 28 29.9970000  0  8  4 26 27  9  2  7 19 15            -0.002157319
  -3430525.992 8  -2651155.82245  24180054.089    24180057.8634   24180065.2224
      3954.134        3081.143
 -16240328.812 9 -12634374.07548  21933148.670    21933152.4814   21933157.8394
       312.765         243.713
    241581.842 9    195898.08248  20549605.631    20549609.1694   20549614.6944
     -1853.260       -1444.099
   -501190.112 8   -369758.20245  24429887.915    24429887.7065   24429896.6444
      3879.797        3023.218
  -6377909.312 9  -4959362.66948  20469592.736    20469595.7844   20469600.8314
       148.046         115.361
 -20525262.194 9 -15964569.11048  19633306.146    19633309.4114   19633314.8884
      1174.521         915.211
  14308820.125 9  11145414.65946  24129024.119    24129027.3564   24129035.5804
     -2931.588       -2284.354
 -10717777.200 9  -8341331.96246  23030335.172    23030338.0274   23030344.2914
      -439.217        -342.247
 97  4 29 17 28 59.9970000  0  8  4 26 27  9  2  7 19 15            -0.002167271
  -3549208.622 8  -2743635.67345  24157469.519    24157473.3164   24157480.5924
      3957.429        3083.711
 -16249438.003 9 -12641472.15948  21931415.243    21931419.0474   21931424.4084
       294.074         229.149
    297403.431 9    239395.40248  20560228.257    20560231.6834   20560237.2164
     -1868.817       -1456.221
   -617587.189 8   -460457.20555  24407735.268    24407739.2835   24407746.4755
      3879.282        3022.817
  -6382261.964 9  -4962754.35248  20468764.505    20468767.4814   20468772.5704
       141.665         110.388
 -20560280.151 9 -15991855.82248  19626642.488    19626645.7104   19626651.1854
      1159.410         903.436
  14396831.285 8  11213994.74646  24145772.284    24145775.5064   24145783.8404
     -2936.378       -2288.087
 -10704316.617 9  -8330843.19846  23032896.712    23032899.5114   23032905.7334
      -458.794        -357.502
 97  4 29 17 29 29.9970000  0  8  4 26 27  9  2  7 19 15            -0.002177177
  -3667986.907 8  -2836190.06645  24134866.324    24134870.2804   24134877.7234
      3960.590        3086.174
 -16257991.328 9 -12648137.10148  21929787.798    21929791.4334   21929796.7974
       275.507         214.681
    353695.639 9    283259.44248  20570940.348    20570943.7544   20570949.3374
     -1884.474       -1468.421
   -733969.154 8   -551144.44845  24385589.013    24385592.4214   24385599.3024
      3878.944        3022.554
  -6386427.440 9  -4966000.18248  20467971.774    20467974.8034   20467979.8904
       135.532         105.609
 -20594840.840 9 -16018786.22148  19620065.738    19620069.0254   19620074.5014
      1143.972         891.407
  14484980.722 9  11282682.59946  24162546.510    24162549.9054   24162558.2144
     -2940.908       -2291.617
 -10690267.626 9  -8319895.93347  23035570.387    23035573.0104   23035579.2034
      -478.427        -372.800
 97  4 29 17 29 59.9970000  0  8  4 26 27  9  2  7 19 15            -0.002187039
  -3786865.166 8  -2928822.39645  24112244.376    24112248.4734   24112255.9354
      3963.504        3088.445
 -16265983.154 9 -12654364.51148  21928266.939    21928270.6474   21928276.0404
       256.568         199.923
    410447.552 9    327481.69248  20581739.947    20581743.2734   20581748.9374
     -1899.885       -1480.430
   -850343.863 9   -641826.03545  24363443.101    24363447.0084   24363453.9174
      3878.375        3022.110
  -6390418.181 9  -4969109.85448  20467212.424    20467215.4134   20467220.5034
       129.541         100.941
 -20628931.613 9 -16045350.45148  19613578.468    19613581.7444   19613587.2454
      1127.661         878.697
  14573268.761 9  11351478.43946  24179347.149    24179350.6004   24179358.8314
     -2945.906       -2295.511
 -10675629.105 9  -8308489.30447  23038356.241    23038358.7054   23038364.9414
      -498.397        -388.361
 97  4 29 17 30 29.9970000  0  8  4 26 27  9  2  7 19 15            -0.002196876
  -3905830.059 8  -3021522.24045  24089606.096    24089610.0664   24089617.5534
      3966.316        3090.636
 -16273425.180 9 -12660163.51148  21926850.812    21926854.4564   21926859.8674
       238.616         185.935
    467657.480 9    372060.82948  20592626.753    20592629.9824   20592635.6544
     -1915.074       -1492.265
   -966704.914 9   -732497.00245  24341300.681    24341304.3254   24341310.9964
      3877.981        3021.803
  -6394226.853 9  -4972077.65648  20466487.660    20466490.6524   20466495.7634
       123.441          96.188
 -20662529.914 9 -16071530.93648  19607184.882    19607188.1674   19607193.6834
      1111.134         865.819
  14661697.789 8  11420384.10545  24196175.082    24196178.2074   24196186.4654
     -2950.335       -2298.962
 -10660397.804 9  -8296620.76447  23041254.330    23041257.1584   23041263.3964
      -518.060        -403.683
 97  4 29 17 30 59.9970000  0  8  4 26 27  9  2  7 19 15            -0.002206708
  -4024861.985 8  -3114274.27145  24066954.918    24066958.9094   24066966.4374
      3968.341        3092.214
 -16280332.766 9 -12665546.05448  21925536.170    21925539.9924   21925545.4364
       221.216         172.376
    525312.809 9    416987.03548  20603598.144    20603601.4774   20603607.0944
     -1929.410       -1503.436
  -1083041.985 9   -823149.25545  24319162.282    24319166.0944   24319172.6604
      3877.012        3021.048
  -6397856.723 9  -4974906.12748  20465796.949    20465799.8884   20465805.0264
       117.769          91.768
 -20695629.302 9 -16097322.65348  19600886.275    19600889.5894   19600895.0804
      1094.610         852.943
  14750251.982 9  11489387.29545  24213026.252    24213029.6524   24213037.5184
     -2954.124       -2301.915
 -10644576.693 9  -8284292.64746  23044264.796    23044267.7964   23044274.1104
      -537.434        -418.780
 97  4 29 17 31 29.9970000  0  8  4 26 27  9  2  7 19 15            -0.002216551
  -4143945.229 8  -3207066.28245  24044293.815    24044297.9724   24044305.7644
      3970.142        3093.617
 -16286716.481 9 -12670520.39748  21924321.528    21924325.2544   21924330.6424
       203.658         158.695
    583406.284 9    462254.64448  20614652.956    20614656.3064   20614661.8754
     -1944.039       -1514.836
  -1199340.376 9   -913771.35546  24297030.918    24297035.2934   24297041.8424
      3875.603        3019.950
  -6401300.436 9  -4977589.54748  20465141.603    20465144.5764   20465149.7014
       111.089          86.563
 -20728218.200 9 -16122716.58448  19594684.916    19594688.1454   19594693.6174
      1077.513         839.620
  14838926.864 8  11558484.58946  24229900.815    24229903.8644   24229911.6854
     -2958.226       -2305.111
 -10628167.371 9  -8271506.18346  23047387.206    23047390.3214   23047396.7444
      -557.093        -434.098
 97  4 29 17 31 59.9970000  0  8  4 26 27  9  2  7 19 15            -0.002226403
  -4263071.715 8  -3299892.00145  24021624.702    24021628.8454   24021636.5344
      3971.483        3094.662
 -16292563.292 9 -12675076.36448  21923209.082    21923212.6224   21923217.9594
       186.079         144.997
    641947.875 9    507871.43848  20625793.054    20625796.4214   20625801.9684
     -1958.882       -1526.402
  -1315575.324 9  -1004344.01946  24274912.978    24274916.5704   24274923.1434
      3873.327        3018.177
  -6404525.662 9  -4980102.71648  20464527.896    20464530.8244   20464535.9694
       103.620          80.743
 -20760287.370 9 -16147705.53848  19588582.376    19588585.5724   19588591.0544
      1060.332         826.233
  14927729.853 8  11627681.63445  24246799.488    24246802.5234   24246810.3484
     -2962.135       -2308.157
 -10611160.694 9  -8258254.25146  23050623.711    23050626.6454   23050632.9854
      -576.870        -449.509
 97  4 29 17 32 29.9970000  0  8  4 26 27  9  2  7 19 15            -0.002236282
  -4382239.109 8  -3392749.64945  23998948.222    23998951.8504   23998959.6404
      3972.663        3095.582
 -16297896.059 9 -12679231.78548  21922194.241    21922197.8534   21922203.1444
       168.997         131.686
    700932.682 9    553833.59648  20637017.509    20637020.8854   20637026.4504
     -1973.727       -1537.969
  -1431747.238 9  -1094867.56946  24252806.083    24252809.8224   24252816.3274
      3871.165        3016.492
  -6407527.832 9  -4982442.07748  20463956.610    20463959.5314   20463964.6924
        96.391          75.110
 -20791848.157 9 -16172298.35048  19582576.645    19582579.8124   19582585.2474
      1043.579         813.178
  15016644.802 8  11696965.89646  24263719.781    24263722.6044   24263730.2874
     -2965.711       -2310.944
 -10593566.236 9  -8244544.31646  23053971.991    23053974.8114   23053981.0914
      -596.401        -464.728
 97  4 29 17 32 59.9970000  0  8  4 26 27  9  2  7 19 15            -0.002246187
  -4501470.479 8  -3485657.11145  23976258.618    23976262.7244   23976270.4674
      3974.598        3097.089
 -16302732.913 9 -12683000.77248  21921273.760    21921277.4384   21921282.7394
       151.869         118.339
    760334.674 9    600120.83648  20648321.464    20648324.7354   20648330.3204
     -1988.039       -1549.121
  -1547874.029 9  -1185355.94146  24230707.632    24230711.6514   24230718.1094
      3869.166        3014.935
  -6410337.306 9  -4984631.28448  20463421.974    20463424.8854   20463430.0554
        89.344          69.619
 -20822937.926 9 -16196524.12848  19576660.514    19576663.6304   19576669.0424
      1027.489         800.641
  15105646.506 8  11766317.82445  24280656.019    24280659.0404   24280666.5054
     -2969.368       -2313.793
 -10575410.256 9  -8230396.83646  23057426.932    23057429.7964   23057436.0834
      -615.581        -479.674
 97  4 29 17 33 29.9970000  0  8  4 26 27  9  2  7 19 15            -0.002256089
  -4620740.086 8  -3578594.36845  23953562.003    23953566.3194   23953574.1504
      3977.273        3099.174
 -16307033.864 9 -12686352.16448  21920455.314    21920459.0234   21920464.3454
       135.316         105.441
    820196.345 9    646766.26448  20659712.804    20659716.0524   20659721.6974
     -2002.297       -1560.231
  -1663930.839 9  -1275789.78646  24208623.723    24208626.7064   24208633.1934
      3868.334        3014.286
  -6412911.189 9  -4986636.91248  20462932.247    20462935.1174   20462940.2614
        82.803          64.522
 -20853523.970 9 -16220357.40248  19570840.181    19570843.2594   19570848.6604
      1012.029         788.594
  15194781.451 8  11835773.56345  24297618.085    24297621.0274   24297628.3084
     -2972.671       -2316.367
 -10556657.785 9  -8215784.54746  23060995.448    23060998.2744   23061004.5694
      -634.244        -494.216
 97  4 29 17 33 59.9970000  0  8  4 26 27  9  2  7 19 15            -0.002265993
  -4740073.779 8  -3671581.59645  23930854.210    23930857.6944   23930865.5134
      3978.289        3099.965
 -16310824.200 9 -12689305.68148  21919734.035    21919737.7384   21919743.0384
       117.340          91.434
    880498.404 9    693754.85248  20671187.829    20671191.1814   20671196.7974
     -2017.707       -1572.239
  -1779946.985 8  -1366191.95246  24186546.105    24186549.6134   24186556.0414
      3866.185        3012.612
  -6415285.862 9  -4988487.31048  20462480.448    20462483.2384   20462488.3624
        75.632          58.934
 -20883631.130 9 -16243817.51348  19565111.075    19565114.0414   19565119.4524
       995.139         775.433
  15284028.024 9  11905316.25646  24314601.770    24314604.1454   24314611.5494
     -2977.064       -2319.790
 -10537327.648 9  -8200722.14146  23064673.964    23064676.6954   23064682.9884
      -654.414        -509.933
 97  4 29 17 34 29.9970000  0  8  4 26 27  9  2  7 19 15            -0.002275872
  -4859450.368 8  -3764602.21645  23908137.459    23908140.9464   23908148.8324
      3980.408        3101.617
 -16314073.416 9 -12691837.54548  21919115.749    21919119.4344   21919124.7304
        99.430          77.478
    941256.721 9    741098.96248  20682749.842    20682753.1574   20682758.7044
     -2032.442       -1583.721
  -1895898.542 8  -1456543.76146  24164480.189    24164484.7424   24164491.1444
      3864.141        3011.019
  -6417460.117 9  -4990181.54148  20462066.763    20462069.5264   20462074.6214
        69.665          54.284
 -20913241.249 9 -16266890.32748  19559476.544    19559479.4554   19559484.8134
       979.063         762.906
  15373410.698 8  11974965.10746  24331609.925    24331613.1004   24331620.5494
     -2981.442       -2323.202
 -10517398.205 9  -8185192.72446  23068466.545    23068469.1804   23068475.4484
      -673.981        -525.180
 97  4 29 17 34 59.9970000  0  8  4 26 27  9  2  7 19 15            -0.002285742
  -4978880.584 8  -3857664.64545  23885410.677    23885414.1034   23885421.9224
      3982.036        3102.885
 -16316768.895 9 -12693937.92648  21918602.836    21918606.5274   21918611.8024
        80.648          62.843
   1002454.343 9    788785.38748  20694395.529    20694398.7374   20694404.2024
     -2047.028       -1595.087
  -2011778.548 8  -1546839.80646  24142429.198    24142433.4764   24142440.0074
      3861.502        3008.963
  -6419445.955 9  -4991728.95348  20461688.898    20461691.6524   20461696.7424
        63.133          49.195
 -20942364.569 9 -16289583.81248  19553934.523    19553937.4824   19553942.8384
       962.732         750.181
  15462933.849 8  12044723.31845  24348644.002    24348648.7634   24348656.3744
     -2986.538       -2327.172
 -10496875.761 9  -8169201.23846  23072372.081    23072374.4914   23072380.7374
      -693.877        -540.683
 97  4 29 17 35 29.9970000  0  8  4 26 27  9  2  7 19 15            -0.002295543
  -5098374.389 8  -3950776.64345  23862672.158    23862675.3814   23862682.7784
      3984.491        3104.798
 -16318908.856 9 -12695605.44048  21918195.901    21918199.3394   21918204.5884
        62.385          48.612
   1064076.396 9    836802.53448  20706122.054    20706125.0724   20706130.4794
     -2060.643       -1605.696
  -2127583.774 9  -1637077.59846  24120392.229    24120396.4264   24120403.0084
      3859.129        3007.113
  -6421252.171 9  -4993136.40148  20461345.222    20461347.9484   20461353.0454
        57.645          44.918
 -20971006.713 9 -16311902.36348  19548484.220    19548487.0544   19548492.4364
       947.016         737.935
  15552609.381 8  12114600.28445  24365710.113    24365713.5454   24365721.1594
     -2991.335       -2330.910
 -10475762.487 9  -8152749.37246  23076389.772    23076392.2404   23076398.4344
      -713.301        -555.819
 97  4 29 17 35 59.9970000  0  8  4 26 27  9  2  7 19 15            -0.002305332
  -5217943.389 8  -4043947.22145  23839918.696    23839922.1194   23839929.5664
      3985.968        3105.949
 -16320505.625 9 -12696849.68148  21917892.178    21917895.5544   21917900.7684
        43.408          33.824
   1126092.249 9    885126.55048  20717923.323    20717926.3434   20717931.6864
     -2074.359       -1616.384
  -2243322.046 9  -1727263.21146  24098368.703    24098372.2094   24098378.8464
      3856.191        3004.824
  -6422901.507 9  -4994421.59548  20461031.424    20461034.0994   20461039.2334
        51.591          40.201
 -20999181.057 9 -16333856.38948  19543122.763    19543125.6194   19543131.0144
       930.641         725.175
  15642420.223 8  12184582.74245  24382800.584    24382804.0774   24382811.6704
     -2996.541       -2334.967
 -10454078.432 9  -8135852.74146  23080516.075    23080518.6044   23080524.8364
      -732.920        -571.106
 97  4 29 17 36 29.9970000  0  7  4 26 27  9  2  7 15               -0.002315093
  -5337553.584 8  -4137149.90445  23817157.637    23817160.9544   23817168.3964
      3987.397        3107.062
 -16321536.019 9 -12697652.59348  21917696.296    21917699.5034   21917704.7414
        24.777          19.307
   1188518.117 9    933770.05648  20729802.647    20729805.5914   20729811.0144
     -2087.949       -1626.973
  -2358976.469 9  -1817383.50246  24076360.400    24076363.7084   24076370.5164
      3853.652        3002.846
  -6424368.038 9  -4995564.35448  20460752.325    20460755.0674   20460760.2004
        45.533          35.480
 -21026866.646 9 -16355429.56948  19537854.415    19537857.2424   19537862.6124
       914.484         712.585
 -10431810.308 9  -8118500.99646  23084753.859    23084756.1044   23084762.4404
      -752.239        -586.160
 97  4 29 17 36 59.9970000  0  7  4 26 27  9  2  7 15               -0.002324839
  -5457207.577 8  -4230386.74145  23794388.808    23794391.6914   23794398.7524
      3989.557        3108.746
 -16322023.309 9 -12698032.31648  21917603.410    21917606.7534   21917612.0404
         7.724           6.019
   1251343.712 9    982725.03748  20741757.830    20741760.8994   20741766.3984
     -2100.659       -1636.877
  -2474574.734 9  -1907460.04446  24054362.296    24054366.0534   24054372.8384
      3852.955        3002.303
  -6425657.454 9  -4996569.09548  20460507.020    20460509.7224   20460514.8304
        40.509          31.565
 -21054074.466 9 -16376630.46248  19532676.831    19532679.7654   19532685.1354
       899.409         700.838
 -10408970.102 9  -8100703.45546  23089099.881    23089102.5074   23089108.8644
      -770.447        -600.348
 97  4 29 17 37 29.9970000  0  7  4 26 27  9  2  7 15               -0.002334555
  -5576872.556 8  -4323632.09545  23771616.662    23771620.1554   23771627.1434
      3988.814        3108.167
 -16321953.175 9 -12697977.67548  21917616.795    21917620.1084   21917625.3504
       -11.649          -9.077
   1314612.282 9   1032025.18848  20753797.429    20753800.5244   20753806.0534
     -2116.528       -1649.243
  -2590114.326 9  -1997490.88146  24032376.514    24032379.5034   24032386.2934
      3850.444        3000.346
  -6426747.546 9  -4997418.52148  20460299.502    20460302.2894   20460307.3994
        32.799          25.558
 -21080782.600 9 -16397441.98648  19527594.453    19527597.3954   19527602.7554
       881.878         687.178
 -10385536.819 9  -8082443.78046  23093559.272    23093561.8294   23093568.0624
      -791.034        -616.390
 97  4 29 17 37 59.9970000  0  7  4 26 27  9  2  7 15               -0.002344245
  -5696552.598 8  -4416889.22945  23748842.707    23748845.7754   23748852.8914
      3990.449        3109.441
 -16321342.987 9 -12697502.21948  21917732.939    21917736.2644   21917741.4284
       -28.442         -22.163
   1378325.738 9   1081672.00548  20765921.591    20765924.8374   20765930.3844
     -2130.405       -1660.056
  -2705623.082 9  -2087497.69446  24010396.220    24010398.7594   24010405.5964
      3850.682        3000.531
  -6427645.159 9  -4998117.96348  20460128.670    20460131.4734   20460136.6094
        27.764          21.634
 -21107006.068 9 -16417875.85048  19522604.428    19522607.2494   19522612.6104
       867.165         675.713
 -10361525.179 9  -8063733.42846  23098128.774    23098131.1774   23098137.3574
      -809.116        -630.480
 97  4 29 17 38 29.9970000  0  7  4 26 27  9  2  7 15               -0.002353910
  -5816263.300 8  -4510170.24245  23726062.118    23726065.4874   23726072.6664
      3990.790        3109.706
 -16320202.264 9 -12696613.35748  21917949.995    21917953.3844   21917958.4884
       -47.125         -36.721
   1442482.774 9   1131664.46548  20778130.338    20778133.5124   20778139.1074
     -2146.141       -1672.318
  -2821106.220 9  -2177484.55346  23988419.838    23988423.0304   23988429.7554
      3848.576        2998.890
  -6428371.031 9  -4998683.58248  20459990.584    20459993.3774   20459998.5024
        21.092          16.435
 -21132773.886 9 -16437954.66248  19517700.924    19517703.7924   19517709.1474
       851.071         663.172
 -10336943.753 9  -8044579.08246  23102806.480    23102808.8884   23102815.0854
      -829.151        -646.092
 97  4 29 17 38 59.9970000  0  7  4 26 27  9  2  7 15               -0.002363545
  -5936009.152 8  -4603478.62145  23703275.092    23703278.5434   23703285.7434
      3992.856        3111.316
 -16318524.667 9 -12695306.14948  21918269.110    21918272.6594   21918277.8044
       -64.100         -49.948
   1507085.519 9   1182004.23348  20790423.837    20790427.0014   20790432.6324
     -2160.068       -1683.170
  -2936545.161 9  -2267436.94746  23966452.558    23966455.6854   23966462.2974
      3847.871        2998.341
  -6428921.695 9  -4999112.67248  20459885.826    20459888.5604   20459893.7094
        16.267          12.676
 -21158081.927 9 -16457675.20648  19512884.970    19512887.7974   19512893.1454
       836.725         651.994
 -10311788.121 9  -8024977.29746  23107593.906    23107595.7974   23107602.0064
      -847.280        -660.218
 97  4 29 17 39 29.9970000  0  7  4 26 27  9  2  7 15               -0.002373150
  -6055788.004 8  -4696812.75045  23680481.848    23680485.3984   23680492.4894
      3992.988        3111.419
 -16316305.498 9 -12693576.93548  21918691.330    21918694.9184   21918700.1664
       -82.964         -64.647
   1572129.347 9   1232687.71248  20802801.445    20802804.4244   20802810.0494
     -2175.259       -1695.007
  -3051926.045 9  -2357344.09246  23944495.957    23944499.4114   23944505.9924
      3844.671        2995.848
  -6429293.706 9  -4999402.55148  20459814.990    20459817.7504   20459822.9094
         9.205           7.173
 -21182931.273 9 -16477038.32448  19508156.263    19508159.1134   19508164.4344
       820.525         639.370
 -10286061.321 9  -8004930.43746  23112489.282    23112491.3974   23112497.5774
      -867.149        -675.701
 97  4 29 17 39 59.9970000  0  7  4 26 27  9  2  7 15               -0.002382738
  -6175598.327 8  -4790171.38445  23657682.882    23657686.3564   23657693.2994
      3993.533        3111.844
 -16313557.140 9 -12691435.37548  21919214.291    21919217.8174   21919223.2004
      -100.891         -78.616
   1637583.733 9   1283691.10048  20815257.023    20815260.0184   20815265.6354
     -2188.985       -1705.703
  -3167231.811 9  -2447192.69046  23922553.095    23922557.5304   23922563.9774
      3841.594        2993.450
  -6429489.171 9  -4999554.86848  20459777.821    20459780.5654   20459785.6934
         3.045           2.373
 -21207318.168 9 -16496041.08748  19503515.615    19503518.4194   19503523.7354
       804.570         626.938
 -10259769.988 9  -7984443.68946  23117492.233    23117494.4224   23117500.6534
      -886.301        -690.624
 97  4 29 17 40 29.9970000  0  7  4 26 27  9  2  7 15               -0.002392293
  -6295406.138 9  -4883528.04646  23634884.093    23634887.6234   23634894.6844
      3993.395        3111.736
 -16310270.780 9 -12688874.58448  21919839.686    21919843.1454   21919848.6204
      -118.328         -92.204
   1703449.742 9   1335015.23148  20827790.983    20827793.9464   20827799.5934
     -2202.297       -1716.076
  -3282441.845 9  -2536966.66446  23900630.803    23900633.7694   23900640.1874
      3838.869        2991.326
  -6429482.501 9  -4999549.67348  20459779.076    20459781.8174   20459786.9744
        -3.871          -3.016
 -21231212.413 9 -16514659.97148  19498968.629    19498971.4934   19498976.8254
       787.851         613.910
 -10232901.637 9  -7963507.29746  23122605.289    23122607.4254   23122613.5824
      -905.185        -705.339
 97  4 29 17 40 59.9970000  0  7  4 26 27  9  2  7 15               -0.002401872
  -6415202.541 9  -4976875.82946  23612087.561    23612091.1454   23612098.2854
      3992.884        3111.338
 -16306462.363 9 -12685907.00248  21920564.537    21920567.8794   21920573.3034
      -135.765        -105.791
   1769712.433 9   1386648.46948  20840400.371    20840403.3614   20840409.0264
     -2215.524       -1726.382
  -3397578.573 9  -2626683.52446  23878720.746    23878723.9554   23878730.4304
      3836.709        2989.643
  -6429259.543 9  -4999375.94248  20459821.565    20459824.2734   20459829.4024
       -11.246          -8.763
 -21254595.920 9 -16532880.87448  19494518.978    19494521.7884   19494527.0774
       770.761         600.593
 -10205465.618 9  -7942128.58846  23127825.726    23127828.4194   23127834.6654
      -924.188        -720.146
 97  4 29 17 41 29.9970000  0  7  4 26 27  9  2  7 15               -0.002411450
  -6534982.956 9  -5070211.18346  23589294.261    23589297.6894   23589304.8144
      3992.531        3111.063
 -16302141.588 9 -12682540.18648  21921386.740    21921390.1164   21921395.4584
      -152.147        -118.556
   1836370.940 9   1438590.13448  20853085.069    20853088.0124   20853093.7764
     -2228.447       -1736.452
  -3512653.442 9  -2716352.21146  23856822.317    23856826.0584   23856832.4264
      3834.923        2988.252
  -6428816.269 9  -4999030.53548  20459906.008    20459908.6684   20459913.7634
       -18.315         -14.271
 -21277469.872 9 -16550704.72348  19490166.140    19490168.9844   19490174.2734
       754.100         587.610
 -10177461.411 9  -7920307.13946  23133155.001    23133157.4354   23133163.7174
      -942.831        -734.673
 97  4 29 17 41 59.9970000  0  7  4 26 27  9  2  7 15               -0.002421032
  -6654750.355 9  -5163536.38946  23566503.722    23566506.7534   23566513.7734
      3991.906        3110.576
 -16297322.838 9 -12678785.33148  21922303.847    21922307.2304   21922312.4154
      -169.084        -131.754
   1903431.447 9   1490845.05348  20865846.405    20865849.2124   20865854.9784
     -2242.347       -1747.283
  -3627673.995 9  -2805978.57546  23834935.659    23834938.4054   23834944.7864
      3833.237        2986.938
  -6428158.054 9  -4998517.64448  20460031.185    20460033.8974   20460039.0144
       -25.530         -19.893
 -21299830.536 9 -16568128.60848  19485911.096    19485913.9044   19485919.1534
       736.837         574.159
 -10148889.491 9  -7898043.33846  23138592.360    23138594.5294   23138600.7604
      -961.907        -749.538
 97  4 29 17 42 29.9970000  0  7  4 26 27  9  2  7 15               -0.002430622
  -6774512.907 9  -5256857.81946  23543713.580    23543716.6874   23543723.7304
      3992.041        3110.681
 -16292007.989 9 -12674643.90748  21923315.310    21923318.7014   21923323.8394
      -185.714        -144.712
   1970906.241 9   1543422.77848  20878686.865    20878689.3054   20878694.9934
     -2256.370       -1758.210
  -3742656.495 9  -2895575.28846  23813054.514    23813057.9934   23813064.2894
      3831.737        2985.769
  -6427292.810 9  -4997843.43248  20460195.971    20460198.5474   20460203.6524
       -32.384         -25.234
 -21321693.715 9 -16585164.84148  19481750.713    19481753.4844   19481758.7234
       720.328         561.294
 -10119756.569 9  -7875342.35146  23144136.401    23144138.3294   23144144.5184
      -980.737        -764.211
 97  4 29 17 42 59.9970000  0  7  4 26 27  9  2  7 15               -0.002440206
  -6894285.120 9  -5350186.76346  23520921.406    23520924.7944   23520931.8524
      3992.302        3110.885
 -16286187.986 9 -12670108.85348  21924422.794    21924426.2234   21924431.3784
      -202.858        -158.071
   2038808.888 9   1596333.90148  20891608.366    20891610.7944   20891616.3874
     -2271.099       -1769.688
  -3857581.076 9  -2985126.90845  23791185.243    23791188.6484   23791194.7294
      3829.179        2983.776
  -6426222.914 9  -4997009.74448  20460399.593    20460402.1744   20460407.2624
       -39.356         -30.667
 -21343069.823 9 -16601821.53848  19477682.964    19477685.7384   19477690.9804
       704.297         548.803
 -10090056.573 9  -7852199.49146  23149788.209    23149790.0654   23149796.2654
      -999.827        -779.086
 97  4 29 17 43 29.9970000  0  7  4 26 27  9  2  7 15               -0.002449774
  -7014074.508 9  -5443529.12146  23498126.039    23498129.6164   23498136.7524
      3992.713        3111.205
 -16279868.278 9 -12665184.42048  21925625.329    21925628.7634   21925634.0314
      -219.497        -171.037
   2107145.799 9   1649583.41348  20904612.466    20904614.9164   20904620.4604
     -2285.527       -1780.930
  -3972425.169 8  -3074615.76645  23769331.987    23769334.4154   23769340.4434
      3826.130        2981.400
  -6424956.598 9  -4996023.00548  20460640.595    20460643.1424   20460648.2384
       -45.847         -35.725
 -21363980.133 9 -16618115.27948  19473703.859    19473706.6204   19473711.8644
       688.831         536.751
 -10059792.291 9  -7828616.95046  23155546.927    23155549.0974   23155555.3464
     -1018.604        -793.717
 97  4 29 17 43 59.9970000  0  7  4 26 27  9  2  7 15               -0.002459319
  -7133866.974 9  -5536873.86546  23475330.580    23475333.9124   23475341.0094
      3992.135        3110.755
 -16273028.071 9 -12659854.40348  21926927.125    21926930.3964   21926935.6894
      -237.654        -185.185
   2175917.305 9   1703171.56948  20917699.051    20917701.7024   20917707.2354
     -2300.313       -1792.452
  -4087164.315 8  -3164022.83345  23747496.909    23747500.0904   23747506.1274
      3821.932        2978.129
  -6423485.798 9  -4994876.93148  20460920.558    20460923.0434   20460928.1174
       -53.337         -41.561
 -21384415.536 9 -16634038.96348  19469815.222    19469817.8804   19469823.1494
       672.512         524.035
 -10028958.647 9  -7804590.77246  23161413.685    23161416.3994   23161422.8334
     -1038.105        -808.913
 97  4 29 17 44 29.9970000  0  7  4 26 27  9  2  7 15               -0.002468834
  -7253660.304 9  -5630219.25446  23452534.675    23452537.7964   23452544.9944
      3993.647        3111.933
 -16265662.366 9 -12654114.91248  21928328.661    21928332.0044   21928337.3194
      -253.866        -197.818
   2245112.510 9   1757089.87348  20930866.537    20930869.1144   20930874.6714
     -2313.105       -1802.419
  -4201782.905 9  -3253335.98246  23725684.424    23725688.8584   23725694.9784
      3818.722        2975.628
  -6421801.613 9  -4993564.58348  20461241.096    20461243.5524   20461248.6314
       -59.309         -46.215
 -21404382.290 9 -16649597.46648  19466015.638    19466018.3444   19466023.5774
       658.005         512.731
  -9997557.627 9  -7780122.48546  23167389.396    23167391.7984   23167398.2074
     -1055.806        -822.706
 97  4 29 17 44 59.9970000  0  7  4 26 27  9  2  7 15               -0.002478327
  -7373469.887 9  -5723577.32546  23429735.984    23429738.8434   23429746.0144
      3994.054        3112.250
 -16257785.315 9 -12647976.96448  21929827.826    21929831.0654   21929836.2934
      -270.602        -210.859
   2314717.453 9   1811327.46248  20944111.793    20944114.5404   20944120.1224
     -2326.574       -1812.915
  -4316271.805 9  -3342548.05546  23703898.370    23703902.3324   23703908.5434
      3814.557        2972.382
  -6419912.122 9  -4992092.25348  20461600.682    20461603.1124   20461608.1874
       -65.992         -51.422
 -21423879.689 9 -16664790.24048  19462305.390    19462308.1014   19462313.3584
       642.380         500.556
  -9965595.464 9  -7755216.93246  23173471.630    23173474.0324   23173480.3504
     -1074.401        -837.196
 97  4 29 17 45 29.9970000  0  7  4 26 27  9  2  7 15               -0.002487806
  -7493284.635 9  -5816939.39546  23406936.061    23406938.7514   23406946.0564
      3993.935        3112.157
 -16249408.498 9 -12641449.59548  21931422.085    21931425.1344   21931430.3544
      -287.577        -224.086
   2384719.203 9   1865874.24948  20957432.475    20957435.4144   20957441.0834
     -2339.735       -1823.170
  -4430640.526 9  -3431666.49046  23682135.015    23682138.6944   23682144.9264
      3810.597        2969.296
  -6417833.532 9  -4990472.57248  20461996.261    20461998.6834   20462003.7564
       -72.171         -56.237
 -21442907.805 9 -16679617.34148  19458684.603    19458687.1764   19458692.3984
       626.544         488.216
  -9933079.784 9  -7729880.07646  23179659.465    23179661.6134   23179667.9244
     -1092.879        -851.594
 97  4 29 17 45 59.9970000  0  7  4 26 27  9  2  7 15               -0.002497275
  -7613100.359 9  -5910302.21446  23384135.730    23384138.4484   23384145.6304
      3993.214        3111.595
 -16240524.388 9 -12634526.94048  21933112.526    21933115.7024   21933120.9334
      -305.078        -237.723
   2455109.161 9   1920723.53448  20970827.261    20970830.1764   20970835.8844
     -2353.533       -1833.922
  -4544907.181 9  -3520705.40946  23660390.829    23660394.4084   23660400.7194
      3806.682        2966.246
  -6415576.812 9  -4988714.09348  20462425.699    20462428.1104   20462433.1694
       -78.869         -61.456
 -21461464.685 9 -16694077.24848  19455153.225    19455155.8614   19455161.0794
       610.125         475.422
  -9900014.755 9  -7704115.15146  23185951.704    23185953.6784   23185959.9294
     -1112.008        -866.500
 97  4 29 17 46 29.9970000  0  7  4 26 27  9  2  7 15               -0.002506732
  -7732913.171 9  -6003662.79046  23361335.730    23361338.7564   23361345.8934
      3993.987        3112.198
 -16231135.560 9 -12627210.99448  21934899.052    21934902.2994   21934907.5484
      -321.271        -250.341
   2525905.616 9   1975889.56948  20984299.457    20984302.2984   20984308.0464
     -2366.502       -1844.028
  -4659076.404 9  -3609668.37446  23638665.008    23638668.6034   23638675.0334
      3804.358        2964.435
  -6413139.407 9  -4986814.82148  20462889.470    20462891.9294   20462897.0114
       -83.896         -65.374
 -21479550.283 9 -16708169.92048  19451711.705    19451714.2784   19451719.4734
       595.176         463.774
  -9866392.477 9  -7677916.03246  23192349.510    23192351.7864   23192358.1864
     -1129.810        -880.371
 97  4 29 17 46 59.9970000  0  7  4 26 27  9  2  7 15               -0.002516171
  -7852710.224 9  -6097011.07646  23338538.748    23338542.0684   23338549.1394
      3992.396        3110.958
 -16221224.880 9 -12619488.40448  21936784.916    21936788.2324   21936793.5094
      -339.459        -264.514
   2597112.487 9   2031375.40448  20997849.612    20997852.5284   20997858.2884
     -2380.558       -1854.980
  -4773155.757 8  -3698561.29446  23616957.005    23616959.8954   23616966.3994
      3801.095        2961.892
  -6410529.503 9  -4984781.12948  20463386.111    20463388.5684   20463393.6864
       -90.140         -70.239
 -21497159.641 9 -16721891.50248  19448360.772    19448363.3494   19448368.5194
       578.823         451.031
  -9832210.437 9  -7651280.72146  23198853.758    23198856.4494   23198862.8414
     -1149.016        -895.337
 97  4 29 17 47 29.9970000  0  7  4 26 27  9  2  7 15               -0.002525602
  -7972488.621 9  -6190344.81046  23315745.187    23315748.9184   23315756.1354
      3991.889        3110.563
 -16210787.678 9 -12611355.53848  21938771.120    21938774.3714   21938779.7144
      -357.328        -278.437
   2668707.780 9   2087163.90748  21011473.687    21011476.6874   21011482.4074
     -2393.464       -1865.037
  -4887177.216 9  -3787409.12246  23595257.578    23595262.2904   23595268.8604
      3799.246        2960.451
  -6407764.724 9  -4982626.75848  20463912.156    20463914.6944   20463919.8184
       -95.359         -74.306
 -21514311.967 9 -16735256.95248  19445096.855    19445099.3804   19445104.5584
       563.566         439.142
  -9797484.890 9  -7624221.89746  23205461.581    23205464.5814   23205470.9194
     -1167.076        -909.410
 97  4 29 17 47 59.9970000  0  7  4 26 27  9  2  7 15               -0.002535015
  -8092245.850 9  -6283662.06946  23292956.448    23292959.7694   23292967.0054
      3991.627        3110.359
 -16199811.314 9 -12602802.54648  21940859.833    21940863.0824   21940868.4894
      -374.552        -291.859
   2740698.453 9   2143260.49648  21025173.136    21025176.0864   21025181.8044
     -2406.214       -1874.972
  -5001134.743 9  -3876207.18146  23573572.098    23573577.0094   23573583.3534
      3797.528        2959.113
  -6404823.921 9  -4980335.22648  20464471.848    20464474.3074   20464479.4054
      -101.030         -78.725
 -21530995.814 9 -16748257.36048  19441921.970    19441924.5484   19441929.7344
       548.363         427.296
  -9762206.166 9  -7596732.02046  23212174.863    23212177.9964   23212184.3004
     -1185.135        -923.482
 97  4 29 17 48 29.9970000  0  7  4 26 27  9  2  7 15               -0.002544420
  -8211986.304 9  -6376966.23846  23270170.048    23270173.7764   23270181.1814
      3991.414        3110.193
 -16188311.594 9 -12593841.75048  21943048.192    21943051.3944   21943056.7734
      -391.571        -305.120
   2813073.685 9   2199656.74148  21038945.741    21038948.6274   21038954.3754
     -2418.365       -1884.440
  -5115028.292 9  -3964955.37646  23551900.122    23551903.7844   23551910.0474
      3795.679        2957.672
  -6401706.684 9  -4977906.21448  20465064.998    20465067.4934   20465072.5874
      -106.359         -82.877
 -21547218.302 9 -16760898.26048  19438834.915    19438837.5394   19438842.7504
       533.513         415.724
  -9726380.905 9  -7568816.29146  23218992.488    23218995.2634   23219001.6364
     -1202.793        -937.241
 97  4 29 17 48 59.9970000  0  7  4 26 27  9  2  7 15               -0.002553823
  -8331710.804 9  -6470257.98146  23247387.449    23247390.9864   23247398.3454
      3990.107        3109.174
 -16176304.270 9 -12584485.41448  21945333.036    21945336.3694   21945341.7084
      -408.864        -318.595
   2885807.383 9   2256332.31548  21052786.672    21052789.3914   21052795.1884
     -2430.918       -1894.222
  -5228858.029 9  -4053653.85046  23530239.279    23530242.6424   23530248.9314
      3792.767        2955.403
  -6398423.792 9  -4975348.12048  20465689.695    20465692.2364   20465697.2954
      -112.761         -87.866
 -21562994.827 9 -16773191.65748  19435832.590    19435835.3354   19435840.5704
       518.113         403.724
  -9690024.932 9  -7540487.01346  23225910.353    23225913.5114   23225919.9854
     -1221.096        -951.503
 97  4 29 17 49 29.9970000  0  7  4 26 27  9  2  7 15               -0.002563216
  -8451406.143 9  -6563527.00746  23224610.338    23224613.7134   23224620.9874
      3989.359        3108.591
 -16163793.821 9 -12574737.03548  21947713.956    21947717.0394   21947722.4074
      -425.270        -331.379
   2958917.818 9   2313301.44148  21066699.121    21066701.8714   21066707.6664
     -2443.487       -1904.016
  -5342602.490 9  -4142285.82946  23508594.297    23508597.8054   23508604.1384
      3789.795        2953.087
  -6394944.491 9  -4972636.98348  20466351.886    20466354.3474   20466359.4034
      -119.512         -93.126
 -21578318.878 9 -16785132.47348  19432916.512    19432919.2654   19432924.4944
       503.258         392.149
  -9653123.867 9  -7511732.97346  23232932.517    23232935.5704   23232942.0764
     -1239.207        -965.616
 97  4 29 17 49 59.9970000  0  7  4 26 27  9  2  7 15               -0.002572593
  -8571068.706 9  -6656770.50446  23201839.244    23201842.6834   23201849.8634
      3987.935        3107.482
 -16150799.567 9 -12564611.66548  21950186.637    21950189.7934   21950195.1824
      -441.165        -343.765
   3032409.221 9   2370567.42848  21080684.217    21080686.8744   21080692.6934
     -2456.219       -1913.937
  -5456248.902 9  -4230841.38546  23486968.365    23486971.5334   23486977.8584
      3786.477        2950.502
  -6391251.309 9  -4969759.18848  20467054.713    20467057.1694   20467062.2074
      -126.922         -98.900
 -21593197.995 9 -16796726.58448  19430085.045    19430087.8414   19430093.0894
       488.466         380.623
  -9615681.618 9  -7482557.24546  23240057.976    23240060.7114   23240067.2044
     -1257.131        -979.583
 97  4 29 17 50 29.9970000  0  7  4 26 27  9  2  7 15               -0.002581949
  -8690679.361 9  -6749973.52546  23179078.197    23179081.5324   23179088.6774
      3986.087        3106.042
 -16137322.591 9 -12554110.13548  21952751.378    21952754.4864   21952759.8124
      -457.287        -356.328
   3106290.555 9   2428137.26048  21094743.824    21094746.1004   21094751.9104
     -2469.232       -1924.077
  -5569788.343 9  -4319313.57246  23465363.753    23465365.5324   23465371.9914
      3782.696        2947.555
  -6387331.523 9  -4966704.80948  20467800.647    20467803.1024   20467808.1124
      -134.407        -104.733
 -21607633.624 9 -16807975.11948  19427338.245    19427340.8444   19427346.0834
       473.856         369.238
  -9577698.959 9  -7452960.41346  23247285.744    23247288.5534   23247295.1554
     -1275.055        -993.549
 97  4 29 17 50 59.9970000  0  7  4 26 27  9  2  7 15               -0.002591277
  -8810225.425 9  -6843126.25046  23156329.724    23156332.7094   23156339.7664
      3983.575        3104.084
 -16123357.410 9 -12543228.19648  21955408.970    21955412.0324   21955417.3564
      -473.879        -369.256
   3180570.782 9   2486017.91948  21108878.927    21108881.2034   21108887.0224
     -2482.940       -1934.758
  -5683202.219 9  -4407687.98246  23443781.234    23443783.6494   23443789.9194
      3778.178        2944.035
  -6383175.611 9  -4963466.44148  20468591.547    20468593.9584   20468598.9534
      -142.737        -111.224
 -21621617.771 9 -16818871.84348  19424677.250    19424679.7314   19424684.9584
       458.066         356.935
  -9539171.959 9  -7422939.40046  23254618.170    23254620.0474   23254626.5934
     -1293.663       -1008.049
 97  4 29 17 51 29.9970000  0  7  4 26 27  9  2  7 15               -0.002600594
  -8929716.962 9  -6936236.47446  23133591.278    23133594.2144   23133601.1154
      3981.911        3102.788
 -16108918.001 9 -12531976.73048  21958156.935    21958159.8484   21958165.0494
      -489.279        -381.256
   3255236.623 9   2544199.05147  21123087.251    21123089.7194   21123095.5004
     -2495.293       -1944.384
  -5796498.912 9  -4495971.09246  23422221.039    23422223.9294   23422230.1874
      3774.307        2941.018
  -6378791.610 9  -4960050.34348  20469425.895    20469428.2154   20469433.1764
      -149.944        -116.839
 -21635140.891 9 -16829409.33248  19422103.923    19422106.3744   19422111.5924
       442.868         345.092
  -9500109.371 9  -7392501.05246  23262050.840    23262053.3824   23262059.8714
     -1311.079       -1021.620
 97  4 29 17 51 59.9970000  0  7  4 26 27  9  2  7 15               -0.002609894
  -9049136.145 9  -7029290.31946  23110866.879    23110869.4784   23110876.3324
      3978.823        3100.381
 -16093999.693 9 -12520352.08948  21960995.950    21960998.7094   21961003.8754
      -505.871        -394.185
   3330285.757 9   2602678.85847  21137368.698    21137371.2034   21137376.9284
     -2508.545       -1954.710
  -5909655.319 9  -4584144.91346  23400688.609    23400691.0554   23400697.1934
      3768.874        2936.785
  -6374181.059 9  -4956457.70848  20470303.378    20470305.5994   20470310.5554
      -157.924        -123.058
 -21648179.402 9 -16839569.20248  19419622.902    19419625.2484   19419630.4654
       425.780         331.777
  -9460506.952 9  -7361642.05846  23269587.336    23269589.6114   23269595.9894
     -1329.758       -1036.175
 97  4 29 17 52 29.9970000  0  7  4 26 27  9  2  7 15               -0.002619197
  -9168506.985 9  -7122306.50346  23088150.849    23088153.9614   23088160.7394
      3978.829        3100.386
 -16078619.661 9 -12508367.67248  21963922.327    21963925.3864   21963930.6344
      -519.955        -405.160
   3405690.371 9   2661435.65347  21151717.919    21151720.2524   21151725.9864
     -2518.789       -1962.693
  -6022678.858 9  -4672215.18546  23379181.356    23379183.3934   23379189.5574
      3765.597        2934.231
  -6369381.947 9  -4952718.14748  20471216.628    20471218.8454   20471223.7814
      -162.372        -126.524
 -21660743.619 9 -16849359.49148  19417231.988    19417234.3484   19417239.5704
       411.402         320.573
  -9420381.693 9  -7330375.65446  23277222.877    23277225.2894   23277231.6074
     -1345.797       -1048.673
 97  4 29 17 52 59.9970000  0  7  4 26 27  9  2  7 15               -0.002628509
  -9287836.728 9  -7215290.67246  23065442.824    23065446.2244   23065453.0084
      3976.278        3098.398
 -16062773.905 9 -12496020.34048  21966937.561    21966940.7414   21966946.0374
      -536.666        -418.181
   3481441.041 9   2720462.11247  21166132.641    21166135.1184   21166140.8734
     -2531.326       -1972.462
  -6135561.317 9  -4760175.47646  23357699.303    23357702.4544   23357708.7104
      3759.966        2929.844
  -6364407.146 9  -4948841.68448  20472163.250    20472165.4944   20472170.4674
      -169.297        -131.920
 -21672824.317 9 -16858773.01248  19414933.040    19414935.4844   19414940.6724
       393.897         306.933
  -9379729.912 9  -7298698.99146  23284957.757    23284961.0504   23284967.4494
     -1364.497       -1063.244
 97  4 29 17 53 29.9970000  0  7  4 26 27  9  2  7 15               -0.002637800
  -9407083.507 9  -7308210.19246  23042751.024    23042754.2784   23042761.0854
      3974.357        3096.901
 -16046421.705 9 -12483278.38448  21970049.313    21970052.4374   21970057.7224
      -552.651        -430.637
   3557574.053 9   2779786.49647  21180619.881    21180622.7094   21180628.5294
     -2543.354       -1981.834
  -6248277.736 9  -4848006.36646  23336249.667    23336253.1454   23336259.5184
      3755.376        2926.267
  -6359223.743 9  -4944802.67348  20473149.576    20473151.8574   20473156.8444
      -175.439        -136.706
 -21684389.418 9 -16867784.76748  19412732.169    19412734.6604   19412739.8454
       378.228         294.723
  -9338516.554 9  -7266584.69246  23292801.512    23292803.8194   23292810.2574
     -1382.168       -1077.014
 97  4 29 17 53 59.9970000  0  7  4 26 27  9  2  7 15               -0.002647080
  -9526279.617 9  -7401090.24046  23020068.824    23020071.9004   23020078.6334
      3973.039        3095.875
 -16029583.843 9 -12470157.99048  21973253.650    21973256.6034   21973261.8054
      -568.900        -443.299
   3634069.285 9   2839393.12047  21195176.489    21195179.3184   21195185.1484
     -2555.351       -1991.183
  -6360867.515 9  -4935738.61646  23314825.745    23314828.0604   23314834.3224
      3751.727        2923.424
  -6353859.962 9  -4940623.11348  20474170.221    20474172.5694   20474177.5644
      -181.160        -141.164
 -21695496.720 9 -16876439.79948  19410618.420    19410620.9654   19410626.1834
       363.384         283.156
  -9296775.607 8  -7234059.32246  23300744.576    23300746.8094   23300753.3264
     -1399.626       -1090.618
 97  4 29 17 54 29.9970000  0  7  4 26 27  9  2  7 15               -0.002656350
  -9645427.826 9  -7493932.97146  22997395.671    22997398.6554   22997405.2824
      3970.360        3093.787
 -16012255.919 9 -12456655.73248  21976550.845    21976553.9644   21976559.1294
      -585.932        -456.570
   3710936.583 9   2899289.66047  21209803.997    21209806.7634   21209812.5404
     -2568.828       -2001.684
  -6473350.161 9  -5023387.39946  23293420.724    23293423.3434   23293429.5564
      3747.506        2920.135
  -6348322.596 9  -4936308.29648  20475223.954    20475226.3304   20475231.2894
      -187.689        -146.251
 -21706165.359 9 -16884753.01948  19408588.318    19408590.7774   19408595.9844
       348.294         271.398
  -9254509.350 9  -7201124.61346  23308787.596    23308789.7614   23308796.4164
     -1417.854       -1104.821
 97  4 29 17 54 59.9970000  0  7  4 26 27  9  2  7 15               -0.002665598
  -9764513.354 9  -7586726.83246  22974734.275    22974737.3794   22974743.9634
      3967.391        3091.474
 -15994441.271 9 -12442774.19848  21979940.808    21979943.9894   21979949.1244
      -602.915        -469.804
   3788188.947 9   2959486.27147  21224504.670    21224507.4954   21224513.2544
     -2582.577       -2012.398
  -6585729.202 9  -5110955.45446  23272035.396    23272038.3704   23272044.4624
      3743.177        2916.761
  -6342601.440 9  -4931850.25948  20476312.691    20476315.0504   20476319.9764
      -194.949        -151.908
 -21716408.863 9 -16892734.96148  19406639.006    19406641.5064   19406646.7254
       333.357         259.759
  -9211720.261 9  -7167782.49246  23316930.350    23316932.2894   23316938.9304
     -1436.051       -1119.001
 97  4 29 17 55 29.9970000  0  7  4 26 27  9  2  7 15               -0.002674813
  -9883524.234 9  -7679462.55246  22952087.141    22952090.3474   22952096.8694
      3965.269        3089.820
 -15976138.700 9 -12428512.46648  21983423.570    21983426.8584   21983432.0034
      -618.638        -482.055
   3865841.035 9   3019994.34147  21239281.514    21239284.2664   21239289.9834
     -2595.694       -2022.619
  -6697992.002 9  -5198432.94646  23250672.701    23250675.5124   23250681.4954
      3739.418        2913.832
  -6336678.061 9  -4927234.64648  20477439.956    20477442.2594   20477447.1714
      -201.477        -156.995
 -21726231.391 9 -16900388.87848  19404769.931    19404772.3694   19404777.5524
       319.976         249.332
  -9168402.471 9  -7134028.39746  23325173.457    23325175.6294   23325182.1024
     -1453.298       -1132.440
 97  4 29 17 55 59.9970000  0  7  4 26 27  9  2  7 15               -0.002683992
 -10002460.079 9  -7772139.75546  22929454.344    22929457.4684   22929464.1204
      3963.380        3088.348
 -15957358.406 9 -12413878.48848  21986997.426    21987000.5934   21987005.8064
      -633.603        -493.717
   3943894.930 9   3080815.51247  21254134.853    21254137.4214   21254143.1434
     -2608.246       -2032.399
  -6810122.372 9  -5285807.22846  23229335.584    23229337.7194   23229343.6404
      3735.587        2910.847
  -6330551.093 9  -4922460.40048  20478605.946    20478608.2134   20478613.1344
      -207.290        -161.525
 -21735633.716 9 -16907715.36348  19402980.739    19402983.1464   19402988.3224
       306.419         238.768
  -9124558.057 8  -7099863.96546  23333517.299    23333519.0444   23333525.4844
     -1469.998       -1145.453
 97  4 29 17 56 29.9970000  0  7  4 26 27  9  2  7 15               -0.002693144
 -10121314.841 9  -7864753.80546  22906836.753    22906840.1194   22906846.8174
      3959.437        3085.276
 -15938110.668 9 -12398880.26948  21990660.245    21990663.3734   21990668.4784
      -650.509        -506.890
   4022345.643 9   3141945.89347  21269063.355    21269066.0964   21269071.7964
     -2622.578       -2043.567
  -6922107.646 9  -5373068.40546  23208025.606    23208027.5914   23208033.5464
      3729.343        2905.982
  -6324227.421 9  -4917532.87248  20479809.396    20479811.5964   20479816.5484
      -215.256        -167.732
 -21744605.907 9 -16914706.67448  19401273.365    19401275.8184   19401280.9484
       290.773         226.576
  -9080192.504 8  -7065293.47346  23341958.810    23341961.4074   23341967.9934
     -1488.523       -1159.888
 97  4 29 17 56 59.9970000  0  7  4 26 27  9  2  7 15               -0.002702260
 -10240079.175 9  -7957297.36346  22884236.459    22884239.9864   22884246.7314
      3958.004        3084.159
 -15918368.036 9 -12383496.42248  21994417.344    21994420.2994   21994425.3474
      -665.781        -518.790
   4101191.652 9   3203384.29147  21284067.317    21284070.0324   21284075.7234
     -2634.023       -2052.485
  -7033925.133 9  -5460198.85647  23186746.921    23186749.3674   23186755.4044
      3725.137        2902.704
  -6317676.062 9  -4912427.92548  20481056.084    20481058.2804   20481063.2194
      -221.527        -172.618
 -21753119.889 9 -16921340.94648  19399653.371    19399655.6934   19399660.8044
       276.543         215.488
  -9035292.674 9  -7030306.59946  23350503.608    23350505.6654   23350512.1154
     -1504.976       -1172.708
 97  4 29 17 57 29.9970000  0  7  4 26 27  9  2  7 15               -0.002711362
 -10358768.992 9  -8049782.86546  22861650.892    22861654.1694   22861660.7624
      3955.055        3081.861
 -15898142.033 9 -12367735.91847  21998266.101    21998269.1834   21998274.1844
      -682.250        -531.623
   4180404.220 9   3265108.31547  21299141.520    21299143.7654   21299149.4254
     -2646.393       -2062.124
  -7145600.936 9  -5547218.94047  23165495.963    23165498.2494   23165504.0874
      3720.347        2898.972
  -6310920.868 9  -4907164.14548  20482341.597    20482343.7794   20482348.7124
      -228.409        -177.981
 -21761177.698 9 -16927619.75348  19398120.042    19398122.3414   19398127.4264
       261.047         203.413
  -8989876.981 9  -6994917.73046  23359146.373    23359147.9674   23359154.4224
     -1522.333       -1186.234
 97  4 29 17 57 59.9970000  0  7  4 26 27  9  2  7 15               -0.002720459
 -10477379.292 9  -8142206.39546  22839080.405    22839083.3184   22839089.9384
      3951.985        3079.469
 -15877428.659 9 -12351595.64047  22002207.760    22002210.7624   22002215.8154
      -698.970        -544.652
   4259969.611 9   3327107.26847  21314282.135    21314284.6484   21314290.2714
     -2658.241       -2071.357
  -7257142.202 9  -5634134.16746  23144270.574    23144272.7164   23144278.4284
      3715.552        2895.235
  -6303969.046 9  -4901747.14948  20483664.551    20483666.6804   20483671.5974
      -235.317        -183.364
 -21768773.596 9 -16933538.63348  19396674.667    19396676.9234   19396682.0154
       245.069         190.963
  -8943950.697 8  -6959131.05346  23367885.842    23367887.5114   23367893.8094
     -1539.722       -1199.783
 97  4 29 17 58 29.9970000  0  7  4 26 27  9  2  7 15               -0.002729559
 -10595917.247 9  -8234573.56146  22816522.929    22816526.2724   22816532.9624
      3950.151        3078.040
 -15856225.053 9 -12335073.37347  22006242.491    22006245.6834   22006250.7144
      -714.760        -556.956
   4339871.821 9   3389368.69047  21329487.094    21329489.5964   21329495.2374
     -2668.799       -2079.584
  -7368563.078 9  -5720955.57246  23123068.047    23123069.8944   23123075.6604
      3712.201        2892.624
  -6296816.455 9  -4896173.71248  20485025.670    20485027.8154   20485032.6724
      -241.813        -188.426
 -21775907.751 9 -16939097.71548  19395317.193    19395319.4054   19395324.4494
       230.241         179.409
  -8897513.160 9  -6922945.98446  23376722.339    23376724.2954   23376730.5974
     -1556.384       -1212.767
 97  4 29 17 58 59.9970000  0  7  4 26 27  9  2  7 15               -0.002738669
 -10714388.968 9  -8326889.09646  22793978.027    22793981.7164   22793988.4604
      3948.418        3076.689
 -15834557.152 9 -12318189.30947  22010365.880    22010368.9374   22010373.9634
      -729.045        -568.087
   4420090.780 9   3451876.91647  21344752.516    21344754.7964   21344760.4694
     -2678.675       -2087.279
  -7479882.543 9  -5807697.95846  23101884.644    23101886.3244   23101892.0754
      3709.601        2890.598
  -6289464.210 9  -4890444.70348  20486424.834    20486426.9134   20486431.7564
      -247.710        -193.021
 -21782598.102 9 -16944310.97348  19394044.089    19394046.2834   19394051.3044
       216.335         168.573
  -8850574.519 9  -6886370.44846  23385654.887    23385656.5454   23385662.8254
     -1572.358       -1225.214
 97  4 29 17 59 29.9970000  0  7  4 26 27  9  2  7 15               -0.002747777
 -10832767.386 9  -8419131.95746  22771451.606    22771455.0474   22771461.7154
      3944.981        3074.011
 -15812429.875 9 -12300947.29847  22014576.536    22014579.5994   22014584.5744
      -744.634        -580.234
   4500648.376 9   3514649.02247  21360082.219    21360084.4194   21360090.1564
     -2690.434       -2096.442
  -7591082.832 9  -5894347.49247  23080723.842    23080725.5474   23080731.2674
      3705.015        2887.025
  -6281897.112 9  -4884548.27648  20487864.842    20487866.9224   20487871.7314
      -255.530        -199.114
 -21788836.622 9 -16949172.15548  19392856.911    19392859.1444   19392864.1544
       201.011         156.632
  -8803121.296 9  -6849393.92446  23394684.647    23394686.6924   23394692.9234
     -1589.841       -1238.837
 97  4 29 17 59 59.9970000  0  7  4 26 27  9  2  7 15               -0.002756893
 -10951075.462 9  -8511319.99046  22748938.216    22748941.6874   22748948.3414
      3942.884        3072.377
 -15789870.382 9 -12283368.49847  22018869.477    22018872.5144   22018877.4944
      -758.567        -591.091
   4581526.530 9   3577670.90047  21375472.703    21375475.0084   21375480.8484
     -2700.780       -2104.504
  -7702168.765 9  -5980907.91947  23059584.215    23059586.5644   23059592.2784
      3701.311        2884.138
  -6274110.619 9  -4878480.89148  20489346.618    20489348.6704   20489353.4774
      -262.732        -204.726
 -21794646.712 9 -16953699.49548  19391751.414    19391753.5434   19391758.5124
       186.992         145.708
  -8755170.290 9  -6812029.51446  23403809.178    23403811.5284   23403817.6784
     -1606.143       -1251.540
 97  4 29 18  0 29.9970000  0  7  4 26 27  9  2  7 15               -0.002766008
 -11069302.160 9  -8603444.63846  22726440.715    22726443.9244   22726450.4574
      3938.990        3069.343
 -15766883.904 9 -12265456.97347  22023243.645    22023246.6844   22023251.6834
      -773.605        -602.809
   4662730.488 9   3640946.67547  21390925.301    21390927.6234   21390933.5314
     -2712.613       -2113.724
  -7813128.047 9  -6067369.64647  23038469.522    23038471.6544   23038477.3824
      3696.044        2880.034
  -6266101.382 9  -4872239.93748  20490870.724    20490872.7884   20490877.6034
      -270.947        -211.127
 -21800026.201 9 -16957891.29748  19390727.725    19390729.8354   19390734.8184
       171.846         133.906
  -8706718.159 8  -6774274.64645  23413028.960    23413031.7904   23413037.8014
     -1623.714       -1265.232
 97  4 29 18  0 59.9970000  0  7  4 26 27  9  2  7 15               -0.002775111
 -11187414.954 9  -8695480.48546  22703964.582    22703967.6864   22703974.2354
      3934.690        3065.992
 -15743455.665 9 -12247201.22947  22027702.038    22027704.9164   22027709.9524
      -789.007        -614.811
   4744278.556 9   3704490.57547  21406443.287    21406445.7544   21406451.7144
     -2724.470       -2122.964
  -7923936.123 9  -6153713.52746  23017383.344    23017385.5004   23017391.3664
      3690.448        2875.674
  -6257861.203 9  -4865819.03148  20492438.693    20492440.8484   20492445.6854
      -278.917        -217.338
 -21804959.830 9 -16961735.68348  19389788.831    19389790.9564   19389795.9814
       156.394         121.865
  -8657759.339 9  -6736124.97946  23422345.642    23422348.2144   23422354.3564
     -1640.843       -1278.579
 97  4 29 18  1 29.9970000  0  7  4 26 27  9  2  7 15               -0.002784196
 -11305403.137 9  -8787419.25246  22681512.095    22681515.2414   22681521.7594
      3930.895        3063.035
 -15719558.189 9 -12228579.84547  22032249.340    22032252.4334   22032257.5204
      -804.295        -626.723
   4826177.652 9   3768308.00247  21422028.252    21422030.6924   21422036.6274
     -2735.707       -2131.720
  -8034569.202 9  -6239921.06546  22996330.744    22996332.5984   22996338.5414
      3684.847        2871.309
  -6249387.969 9  -4859216.51748  20494051.104    20494053.2434   20494058.0974
      -286.165        -222.986
 -21809427.071 9 -16965216.65048  19388938.544    19388940.8144   19388945.9194
       141.297         110.102
  -8608287.955 9  -6697575.86046  23431760.373    23431762.3374   23431768.6724
     -1657.441       -1291.512
 97  4 29 18  1 59.9970000  0  7  4 26 27  9  2  7 15               -0.002793270
 -11423269.455 9  -8879263.07446  22659082.755    22659085.9844   22659092.5204
      3926.370        3059.509
 -15695210.420 9 -12209607.58047  22036882.709    22036885.7104   22036890.7814
      -819.531        -638.596
   4908411.370 9   3832386.17947  21437676.785    21437679.2454   21437685.2024
     -2747.032       -2140.544
  -8145038.362 9  -6326000.90346  22975308.919    22975311.0034   22975316.9424
      3679.213        2866.919
  -6240705.929 9  -4852451.30548  20495703.111    20495705.3584   20495710.3004
      -292.938        -228.263
 -21813453.489 9 -16968354.11948  19388172.166    19388174.5994   19388179.7414
       126.608          98.656
  -8558325.804 8  -6658644.34746  23441267.330    23441269.8134   23441276.3154
     -1673.887       -1304.328
 97  4 29 18  2 29.9970000  0  7  4 26 27  9  2  7 15               -0.002802319
 -11540993.482 9  -8970996.00846  22636680.242    22636683.6294   22636690.3434
      3921.815        3055.960
 -15670395.945 9 -12190271.64947  22041604.677    22041607.7694   22041612.8144
      -834.838        -650.523
   4991000.156 9   3896741.03247  21453392.743    21453395.3514   21453401.3084
     -2759.043       -2149.904
  -8255327.872 9  -6411940.73647  22954322.124    22954323.5914   22954329.4844
      3673.336        2862.340
  -6231821.806 9  -4845528.62048  20497393.662    20497395.9634   20497400.9634
      -299.675        -233.513
 -21817034.326 9 -16971144.37648  19387490.754    19387493.2174   19387498.3464
       111.978          87.255
  -8507864.292 8  -6619323.81245  23450869.258    23450872.2884   23450878.9124
     -1690.440       -1317.226
 97  4 29 18  2 59.9970000  0  7  4 26 27  9  2  7 15               -0.002811346
 -11658595.075 9  -9062633.55746  22614301.365    22614304.7494   22614311.4064
      3918.954        3053.730
 -15645131.750 9 -12170585.28847  22046412.153    22046415.3534   22046420.4834
      -848.669        -661.301
   5073947.230 9   3961375.07047  21469176.980    21469179.6164   21469185.6144
     -2770.080       -2158.504
  -8365448.931 9  -6497749.30347  22933366.566    22933368.2544   22933374.1194
      3668.674        2858.707
  -6222731.882 9  -4838445.57148  20499123.385    20499125.7084   20499130.7404
      -305.631        -238.154
 -21820188.745 9 -16973602.35848  19386890.328    19386892.9304   19386898.0774
        98.995          77.139
  -8456914.395 8  -6579622.66145  23460563.879    23460567.5194   23460574.3684
     -1705.716       -1329.129
 97  4 29 18  3 29.9970000  0  7  4 26 27  9  2  7 15               -0.002820347
 -11776078.760 9  -9154179.22746  22591944.792    22591948.2834   22591954.9194
      3914.802        3050.495
 -15619429.438 9 -12150557.53347  22051303.194    22051306.3834   22051311.5624
      -863.213        -672.634
   5157257.702 9   4026292.26647  21485030.581    21485033.1034   21485039.1504
     -2782.414       -2168.115
  -8475393.777 9  -6583420.55046  22912444.098    22912446.3694   22912452.2864
      3662.651        2854.014
  -6213435.508 9  -4831201.65448  20500892.337    20500894.7544   20500899.7884
      -312.549        -243.545
 -21822926.159 9 -16975735.40348  19386369.378    19386371.9544   19386377.1184
        85.094          66.307
  -8405473.869 8  -6539539.21946  23470352.604    23470356.2814   23470363.1814
     -1722.130       -1341.919
 97  4 29 18  3 59.9970000  0  7  4 26 27  9  2  7 15               -0.002829324
 -11893448.348 9  -9245635.99046  22569609.535    22569613.4234   22569620.0744
      3911.092        3047.604
 -15593293.279 9 -12130191.71647  22056276.831    22056280.0164   22056285.1904
      -878.162        -684.282
   5240931.331 9   4091492.45347  21500953.097    21500955.7744   21500961.8284
     -2794.573       -2177.589
  -8585166.508 9  -6668957.69047  22891554.521    22891557.2504   22891563.1814
      3656.641        2849.331
  -6203939.270 9  -4823801.99548  20502699.456    20502701.8864   20502706.8854
      -319.366        -248.857
 -21825250.304 9 -16977546.42448  19385927.197    19385929.6464   19385934.7884
        70.884          55.234
  -8353542.714 8  -6499073.44145  23480235.220    23480238.5664   23480245.2694
     -1738.768       -1354.884
 97  4 29 18  4 29.9970000  0  7  4 26 27  9  2  7 15               -0.002838283
 -12010720.842 9  -9337017.09946  22547293.460    22547297.1754   22547303.8174
      3907.392        3044.721
 -15566719.385 9 -12109484.80347  22061333.736    22061336.8884   22061341.9914
      -892.915        -695.778
   5324958.970 9   4156968.49347  21516943.253    21516945.8014   21516951.8224
     -2806.549       -2186.921
  -8694766.457 9  -6754360.21747  22870698.325    22870701.1354   22870706.9364
      3650.635        2844.651
  -6194243.500 9  -4816246.86048  20504544.476    20504546.9714   20504551.9594
      -326.542        -254.448
 -21827149.370 9 -16979026.21448  19385565.765    19385568.2364   19385573.3864
        56.236          43.820
  -8301119.905 8  -6458224.53745  23490211.809    23490214.2224   23490221.0254
     -1755.482       -1367.908
 97  4 29 18  4 59.9970000  0  7  4 26 27  9  2  7 15               -0.002847232
 -12127881.196 9  -9428310.81646  22524999.090    22525002.3394   22525008.8454
      3903.401        3041.611
 -15539706.706 9 -12088435.98947  22066474.097    22066477.2584   22066482.3764
      -907.686        -707.288
   5409320.495 9   4222704.69447  21532996.786    21532999.3254   21533005.3384
     -2817.204       -2195.224
  -8804199.080 9  -6839632.35547  22849873.675    22849876.8674   22849882.5624
      3645.095        2840.334
  -6184346.490 9  -4808534.91748  20506427.820    20506430.3324   20506435.2994
      -332.853        -259.366
 -21828619.451 9 -16980171.73148  19385285.899    19385288.5034   19385293.6374
        42.014          32.738
  -8248208.623 8  -6416995.02145  23500280.443    23500282.9314   23500289.7324
     -1771.609       -1380.475
 97  4 29 18  5 29.9970000  0  7  4 26 27  9  2  7 15               -0.002856175
 -12244911.775 9  -9519503.40246  22502728.725    22502732.1104   22502738.6164
      3898.682        3037.934
 -15512241.821 9 -12067034.80647  22071700.688    22071703.7304   22071708.7154
      -923.340        -719.486
   5493989.624 9   4288680.60047  21549108.863    21549111.3844   21549117.3574
     -2827.373       -2203.148
  -8913462.857 9  -6924772.90347  22829081.749    22829084.6594   22829090.2734
      3639.170        2835.717
  -6174263.562 9  -4800678.10348  20508346.545    20508349.0384   20508354.0334
      -339.469        -264.521
 -21829656.297 9 -16980979.66148  19385088.651    19385091.1874   19385096.3514
        27.169          21.171
  -8194813.479 8  -6375388.51145  23510441.817    23510443.9864   23510450.5374
     -1788.003       -1393.249
 97  4 29 18  5 59.9970000  0  7  4 26 27  9  2  7 15               -0.002865115
 -12361813.128 9  -9610595.32146  22480482.960    22480486.5204   22480492.9894
      3894.073        3034.343
 -15484316.240 9 -12045274.62147  22077015.066    22077017.8374   22077022.7884
      -938.902        -731.612
   5578945.304 9   4354879.78147  21565275.387    21565277.9614   21565283.9004
     -2837.112       -2210.737
  -9022562.247 9  -7009785.33947  22808321.528    22808323.6914   22808329.3364
      3633.418        2831.235
  -6163982.092 9  -4792666.57748  20510303.149    20510305.5704   20510310.5334
      -346.760        -270.202
 -21830263.247 9 -16981452.61348  19384973.125    19384975.6834   19384980.8504
        12.655           9.861
  -8140940.638 8  -6333409.79346  23520692.941    23520695.7474   23520702.2464
     -1804.111       -1405.801
 97  4 29 18  6 29.9970000  0  7  4 26 27  9  2  7 15               -0.002874086
 -12478568.402 9  -9701573.39646  22458265.037    22458268.7384   22458275.1604
      3888.446        3029.958
 -15455937.231 9 -12023161.13247  22082415.335    22082418.2104   22082423.2144
      -954.233        -743.558
   5664189.533 9   4421303.80647  21581496.615    21581499.4804   21581505.3724
     -2847.047       -2218.478
  -9131490.006 9  -7094664.07047  22787593.225    22787595.3954   22787601.0504
      3627.252        2826.430
  -6153479.157 9  -4784482.48148  20512301.854    20512304.2424   20512309.1874
      -354.605        -276.315
 -21830446.089 9 -16981595.09348  19384938.473    19384940.8944   19384946.0684
        -1.584          -1.234
  -8086590.898 9  -6291059.39646  23531036.269    23531038.1784   23531044.6964
     -1820.370       -1418.470
 97  4 29 18  6 59.9970000  0  7  4 26 27  9  2  7 15               -0.002882999
 -12595164.194 9  -9792427.22446  22436078.016    22436081.2744   22436087.5544
      3884.007        3026.499
 -15427099.500 9 -12000690.19347  22087903.110    22087905.9384   22087910.8564
      -968.915        -754.999
   5749726.908 9   4487956.26247  21597774.126    21597776.7874   21597782.6114
     -2856.424       -2225.785
  -9240232.988 9  -7179398.81147  22766900.519    22766902.3134   22766907.9414
      3621.371        2821.848
  -6142748.088 9  -4776120.62248  20514343.962    20514346.3104   20514351.2424
      -361.629        -281.789
 -21830209.321 9 -16981410.59848  19384983.681    19384986.0154   19384991.1304
       -14.945         -11.645
  -8031761.600 8  -6248335.27546  23541470.024    23541471.8044   23541478.4344
     -1835.743       -1430.449
 97  4 29 18  7 29.9970000  0  7  4 26 27  9  2  7 15               -0.002891880
 -12711614.682 9  -9883167.82146  22413918.501    22413921.4204   22413927.7344
      3880.080        3023.439
 -15397804.688 9 -11977863.09647  22093477.838    22093480.5724   22093485.4484
      -983.359        -766.254
   5835573.775 9   4554849.87147  21614110.075    21614112.9704   21614118.7384
     -2866.226       -2233.423
  -9348770.299 9  -7263973.29547  22746246.256    22746248.3854   22746253.9384
      3615.159        2817.007
  -6131773.912 9  -4767569.32748  20516432.423    20516434.6604   20516439.5804
      -369.411        -287.853
 -21829547.244 9 -16980894.70148  19385109.687    19385112.0394   19385117.1104
       -28.604         -22.289
  -7976447.642 8  -6205233.51445  23551995.444    23551997.9674   23552004.3984
     -1851.276       -1442.553
 97  4 29 18  7 59.9970000  0  7  4 26 27  9  2  7 15               -0.002900734
 -12827935.896 9  -9973807.69746  22391783.272    22391786.1864   22391792.3734
      3874.968        3019.456
 -15368075.882 9 -11954697.80947  22099135.056    22099137.8104   22099142.6174
      -998.096        -777.737
   5921745.725 9   4621996.79247  21630508.249    21630510.9514   21630516.7954
     -2878.385       -2242.897
  -9457106.942 9  -7348391.42247  22725630.047    22725632.5654   22725638.1034
      3607.660        2811.164
  -6120558.614 9  -4758830.14748  20518566.724    20518568.8464   20518573.7954
      -377.657        -294.278
 -21828459.913 9 -16980047.42748  19385316.755    19385318.9944   19385324.0264
       -43.595         -33.970
  -7920654.121 8  -6161758.11845  23562613.482    23562614.8314   23562621.6934
     -1868.066       -1455.636
 97  4 29 18  8 29.9970000  0  7  4 26 27  9  2  7 15               -0.002909573
 -12944134.172 9 -10064351.75946  22369671.147    22369674.3524   22369680.5514
      3871.663        3016.880
 -15337941.864 9 -11931216.78647  22104869.318    22104872.1234   22104876.9574
     -1010.853        -787.678
   6008258.319 9   4689409.15247  21646971.499    21646973.7954   21646979.6654
     -2888.945       -2251.126
  -9565245.519 9  -7432655.21347  22705051.826    22705054.4684   22705059.9144
      3601.749        2806.558
  -6109146.303 9  -4749937.45448  20520738.407    20520740.5604   20520745.4844
      -383.090        -298.512
 -21826951.716 9 -16978872.22148  19385603.786    19385606.0074   19385611.0364
       -56.867         -44.312
  -7864386.567 8  -6117913.40445  23573319.605    23573321.7384   23573329.2604
     -1883.064       -1467.322
 97  4 29 18  8 59.9970000  0  7  4 26 27  9  2  7 15               -0.002918407
 -13060212.601 9 -10154802.45447  22347582.552    22347585.3544   22347591.4784
      3867.007        3013.252
 -15307403.072 9 -11907420.34047  22110680.642    22110683.4734   22110688.2804
     -1024.808        -798.552
   6095109.479 9   4757085.33947  21663498.893    21663501.0034   21663506.9624
     -2900.973       -2260.498
  -9673191.848 9  -7516769.18547  22684510.841    22684512.8864   22684518.3434
      3594.878        2801.204
  -6097553.030 9  -4740903.74348  20522944.676    20522946.7264   20522951.6424
      -389.738        -303.692
 -21825025.817 9 -16977371.52248  19385970.361    19385972.5124   19385977.5144
       -71.336         -55.586
  -7807649.755 8  -6073702.95246  23584116.784    23584118.5814   23584125.8014
     -1899.280       -1479.958
 97  4 29 18  9 29.9970000  0  7  4 26 27  9  2  7 15               -0.002927235
 -13176148.596 9 -10245142.14146  22325520.901    22325523.5484   22325529.5514
      3862.412        3009.672
 -15276457.261 9 -11883306.74747  22116569.412    22116572.2544   22116577.0934
     -1037.809        -808.682
   6182311.282 9   4825034.75247  21680093.177    21680094.9804   21680100.9894
     -2911.937       -2269.042
  -9780942.657 9  -7600730.81447  22664006.864    22664008.5464   22664014.0344
      3589.127        2796.722
  -6085766.367 9  -4731719.34648  20525187.666    20525189.6724   20525194.5514
      -395.511        -308.190
 -21822670.361 9 -16975536.10248  19386418.706    19386420.7724   19386425.7454
       -85.143         -66.345
  -7750435.978 8  -6029120.84146  23595004.901    23595006.2484   23595013.3084
     -1914.499       -1491.817
 97  4 29 18  9 59.9970000  0  7  4 26 27  9  2  7 15               -0.002936061
 -13291925.774 9 -10335358.09246  22303489.402    22303491.9184   22303497.8844
      3856.099        3004.752
 -15245112.042 9 -11858881.91947  22122534.203    22122537.0684   22122541.8554
     -1051.787        -819.574
   6269852.349 9   4893248.52947  21696751.639    21696753.5774   21696759.5274
     -2923.813       -2278.296
  -9888514.088 9  -7684552.67747  22643537.120    22643538.4004   22643543.7974
      3582.390        2791.473
  -6073797.951 9  -4722393.32648  20527465.372    20527467.2354   20527472.0664
      -402.353        -313.522
 -21819900.210 9 -16973377.54648  19386946.024    19386947.9414   19386952.9084
       -99.328         -77.398
  -7692754.664 8  -5984174.40246  23605981.465    23605982.7334   23605989.7874
     -1930.840       -1504.551
 97  4 29 18 10 29.9970000  0  7  4 26 27  9  2  7 15               -0.002944868
 -13407524.170 9 -10425434.72547  22281491.475    22281494.3284   22281500.1924
      3849.978        2999.983
 -15213354.212 9 -11834135.58347  22128577.385    22128580.3214   22128585.1454
     -1065.907        -830.577
   6357712.711 9   4961711.10047  21713470.995    21713472.8954   21713478.8084
     -2933.829       -2286.101
  -9995900.487 9  -7768230.36647  22623101.721    22623103.5124   22623108.7164
      3576.311        2786.736
  -6061616.741 9  -4712901.48648  20529783.416    20529785.2604   20529790.0784
      -410.394        -319.788
 -21816728.255 9 -16970905.89648  19387549.646    19387551.5804   19387556.5374
      -112.624         -87.759
  -7634608.554 8  -5938865.81146  23617045.850    23617047.5534   23617054.7154
     -1946.159       -1516.488
 97  4 29 18 10 59.9970000  0  7  4 26 27  9  2  7 15               -0.002953641
 -13522935.488 9 -10515365.57747  22259529.353    22259532.3074   22259538.1774
      3842.788        2994.380
 -15181166.859 9 -11809054.55347  22134702.492    22134705.4034   22134710.2814
     -1081.116        -842.428
   6445873.742 9   5030407.95747  21730247.687    21730249.3654   21730255.3464
     -2944.885       -2294.716
 -10103104.909 9  -7851766.24647  22602700.694    22602703.1304   22602708.3274
      3569.095        2781.113
  -6049173.754 9  -4703205.67048  20532151.228    20532153.1004   20532157.9454
      -420.373        -327.563
 -21813151.177 9 -16968118.56348  19388230.261    19388232.2634   19388237.2564
      -127.186         -99.106
  -7576002.449 9  -5893198.75346  23628198.375    23628199.9354   23628206.9284
     -1962.298       -1529.063
 97  4 29 18 11 29.9970000  0  7  4 26 27  9  2  7 15               -0.002962372
 -13638151.148 9 -10605143.97147  22237604.745    22237607.5354   22237613.3404
      3837.358        2990.149
 -15148552.489 9 -11783640.77047  22140908.953    22140911.7524   22140916.6354
     -1094.159        -852.591
   6534336.787 9   5099340.15147  21747081.021    21747083.3464   21747089.3034
     -2953.578       -2301.489
 -10210106.344 9  -7935143.95147  22582338.964    22582341.3384   22582346.5484
      3563.412        2776.685
  -6036456.310 9  -4693295.98748  20534571.334    20534573.1564   20534578.0204
      -428.312        -333.750
 -21809160.053 9 -16965008.59548  19388989.749    19388991.7094   19388996.7114
      -139.807        -108.941
  -7516930.230 9  -5847168.46946  23639440.168    23639441.1884   23639448.0774
     -1976.709       -1540.293
 97  4 29 18 11 59.9970000  0  7  4 26 27  9  2  7 15               -0.002971066
 -13753180.434 9 -10694777.13847  22215715.469    22215718.1814   22215723.9294
      3831.040        2985.226
 -15115517.489 9 -11757899.23547  22147195.417    22147198.1364   22147203.0504
     -1108.422        -863.705
   6623087.997 9   5168496.88347  21763969.809    21763972.2204   21763978.1414
     -2963.420       -2309.158
 -10316910.459 9  -8018367.90547  22562014.571    22562017.0864   22562022.3324
      3556.556        2771.342
  -6023467.913 9  -4683175.17348  20537042.869    20537044.7564   20537049.6564
      -437.658        -341.032
 -21804764.130 9 -16961583.19848  19389826.287    19389828.2294   19389833.2114
      -153.672        -119.744
  -7457400.730 9  -5800781.85846  23650767.329    23650769.2644   23650776.2764
     -1992.219       -1552.378
 97  4 29 18 12 29.9970000  0  7  4 26 27  9  2  7 15               -0.002979746
 -13868036.799 9 -10784275.55047  22193859.050    22193861.7314   22193867.4334
      3826.189        2981.446
 -15082064.129 9 -11731831.70247  22153561.499    22153564.1734   22153569.0964
     -1121.550        -873.935
   6712115.881 9   5237869.21547  21780911.593    21780913.7204   21780919.5884
     -2971.830       -2315.712
 -10423522.543 9  -8101442.20847  22541726.738    22541729.4134   22541734.6774
      3551.010        2767.021
  -6010220.367 9  -4672852.42848  20539563.813    20539565.6804   20539570.6074
      -445.034        -346.780
 -21799952.074 9 -16957833.54848  19390741.933    19390743.9404   19390748.9164
      -167.077        -130.190
  -7397421.208 9  -5754044.60646  23662181.026    23662183.0894   23662190.1244
     -2006.392       -1563.422
 97  4 29 18 12 59.9970000  0  7  4 26 27  9  2  7 15               -0.002988437
 -13982724.571 9 -10873642.59447  22172034.176    22172037.3274   22172043.0564
      3820.186        2976.768
 -15048203.434 9 -11705446.76847  22160004.924    22160007.7164   22160012.6964
     -1135.269        -884.625
   6801430.397 9   5307464.89547  21797907.158    21797909.7324   21797915.6064
     -2981.855       -2323.523
 -10529935.026 9  -8184361.00147  22521477.059    22521479.8034   22521485.0254
      3543.705        2761.329
  -5996759.675 9  -4662363.59448  20542125.211    20542127.1614   20542132.1114
      -451.523        -351.836
 -21794714.205 9 -16953752.08948  19391738.620    19391740.6784   19391745.6504
      -181.369        -141.326
  -7336990.218 9  -5706955.56546  23673681.353    23673682.7854   23673689.8044
     -2021.712       -1575.360
 97  4 29 18 13 29.9970000  0  7  4 26 27  9  2  7 15               -0.002997145
 -14097236.923 9 -10962872.95547  22150243.427    22150246.2554   22150251.9304
      3813.816        2971.805
 -15013936.580 9 -11678745.35147  22166525.744    22166528.5294   22166533.6114
     -1149.369        -895.612
   6891029.663 9   5377282.45547  21814957.352    21814959.8614   21814965.8534
     -2991.672       -2331.173
 -10636142.664 9  -8267120.16747  22501266.676    22501269.1324   22501274.3754
      3536.769        2755.924
  -5983126.876 9  -4651740.64548  20544719.437    20544721.4304   20544726.3634
      -457.535        -356.521
 -21789060.253 9 -16949346.41248  19392814.522    19392816.6034   19392821.5774
      -195.711        -152.502
  -7276111.272 9  -5659517.49246  23685266.108    23685267.7824   23685274.7684
     -2036.935       -1587.222
 97  4 29 18 13 59.9970000  0  7  4 26 27  9  2  7 15               -0.003005883
 -14211573.604 9 -11051966.42247  22128485.585    22128488.5644   22128494.2674
      3808.769        2967.872
 -14979258.567 9 -11651723.54547  22173125.004    22173127.5844   22173132.7424
     -1162.227        -905.631
   6980918.531 9   5447325.68847  21832062.509    21832065.0534   21832071.1974
     -3000.704       -2338.211
 -10742161.317 9  -8349732.06647  22481092.261    22481094.3844   22481099.6264
      3531.110        2751.514
  -5969324.896 9  -4640985.87648  20547345.867    20547347.8894   20547352.8234
      -462.409        -360.319
 -21782990.609 9 -16944616.81548  19393969.500    19393971.5924   19393976.6224
      -208.746        -162.659
  -7214793.144 9  -5611737.18846  23696934.297    23696936.2374   23696943.1994
     -2050.739       -1597.978
 97  4 29 18 14 29.9960000  0  7  4 26 27  9  2  7 15               -0.003014645
 -14325735.070 9 -11140923.35547  22106760.939    22106764.2204   22106769.9374
      3802.096        2962.672
 -14944186.657 9 -11624394.80347  22179798.890    22179801.7004   22179806.7534
     -1176.116        -916.454
   7071085.518 9   5517585.63247  21849220.799    21849223.2584   21849229.4644
     -3010.893       -2346.150
 -10847976.075 9  -8432185.09347  22460956.555    22460958.4714   22460963.7134
      3523.176        2745.332
  -5955364.416 9  -4630107.59648  20550002.438    20550004.5204   20550009.4314
      -468.678        -365.204
 -21776517.784 9 -16939573.05748  19395201.022    19395203.3224   19395208.3684
      -222.867        -173.662
  -7153045.920 9  -5563622.47346  23708684.238    23708686.3504   23708693.3104
     -2066.050       -1609.909
 97  4 29 18 14 59.9960000  0  7  4 26 27  9  2  7 15               -0.003023400
 -14439705.114 9 -11229731.13547  22085073.016    22085076.4334   22085082.1744
      3795.886        2957.833
 -14908699.316 9 -11596742.34947  22186552.056    22186554.8564   22186559.7904
     -1189.716        -927.051
   7161558.213 9   5588083.77647  21866437.027    21866439.7104   21866445.8924
     -3020.597       -2353.712
 -10953558.172 9  -8514456.81547  22440864.533    22440866.7454   22440872.0844
      3515.686        2739.495
  -5941211.421 9  -4619079.30248  20552695.545    20552697.7254   20552702.6764
      -475.063        -370.179
 -21769634.358 9 -16934209.34548  19396510.892    19396513.1694   19396518.2514
      -235.952        -183.859
  -7090847.455 9  -5515156.14346  23720520.149    23720522.4124   23720529.2434
     -2080.501       -1621.170
 97  4 29 18 15 29.9960000  0  7  4 26 27  9  2  7 15               -0.003032136
 -14553478.948 9 -11318386.01947  22063422.676    22063425.9534   22063431.7364
      3789.467        2952.831
 -14872795.895 9 -11568765.68947  22193384.249    22193387.1024   22193392.1264
     -1203.263        -937.608
   7252329.907 9   5658814.91847  21883710.268    21883713.0514   21883719.2534
     -3030.503       -2361.431
 -11058912.640 9  -8596551.17047  22420815.688    22420818.3934   22420823.7734
      3508.377        2733.800
  -5926838.226 9  -4607879.43048  20555430.698    20555432.8604   20555437.8554
      -482.988        -376.354
 -21762346.165 9 -16928530.23548  19397897.752    19397900.0304   19397905.1164
      -249.558        -194.461
  -7028207.025 9  -5466345.42346  23732440.542    23732442.4504   23732449.3064
     -2095.170       -1632.600
 97  4 29 18 15 59.9960000  0  7  4 26 27  9  2  7 15               -0.003040850
 -14667067.114 9 -11406896.23047  22041807.268    22041810.7494   22041816.6314
      3783.072        2947.848
 -14836499.367 9 -11540482.71347  22200291.230    22200294.0374   22200299.2624
     -1216.492        -947.916
   7343398.411 9   5729777.33047  21901040.115    21901042.8664   21901049.0244
     -3040.513       -2369.231
 -11164044.975 9  -8678472.44447  22400809.319    22400812.3594   22400817.7164
      3500.420        2727.600
  -5912217.299 9  -4596486.51348  20558212.924    20558215.1254   20558220.1474
      -491.664        -383.115
 -21754653.939 9 -16922536.29948  19399361.407    19399363.7704   19399368.8454
      -263.132        -205.038
  -6965127.696 9  -5417192.72146  23744444.133    23744446.0274   23744453.0224
     -2110.167       -1644.286
 97  4 29 18 16 29.9960000  0  7  4 26 27  9  2  7 15               -0.003049544
 -14780472.154 9 -11495263.75047  22020227.221    22020230.4924   22020236.3514
      3776.824        2942.980
 -14799813.432 9 -11511896.30747  22207272.112    22207274.9954   22207280.3924
     -1229.723        -958.226
   7434742.798 9   5800954.73447  21918422.717    21918425.2414   21918431.3754
     -3049.729       -2376.412
 -11268957.023 9  -8760222.05547  22380845.153    22380848.2734   22380853.6394
      3493.203        2721.976
  -5897350.896 9  -4584902.32048  20561042.002    20561044.1154   20561049.1414
      -499.840        -389.486
 -21746565.579 9 -16916233.68348  19400900.646    19400902.9484   19400908.0144
      -276.529        -215.477
  -6901612.251 9  -5367700.22846  23756530.737    23756532.5384   23756539.6944
     -2124.733       -1655.636
 97  4 29 18 16 59.9960000  0  7  4 26 27  9  2  7 15               -0.003058226
 -14893690.426 9 -11583485.73647  21998682.672    21998685.8384   21998691.6224
      3770.396        2937.971
 -14762737.478 9 -11483005.98747  22214327.543    22214330.3524   22214335.7204
     -1242.446        -968.140
   7526364.914 9   5872348.53747  21935858.137    21935860.4564   21935866.5784
     -3059.056       -2383.680
 -11373661.238 9  -8841809.73447  22360920.672    22360923.7574   22360929.1074
      3486.435        2716.703
  -5882248.367 9  -4573134.13448  20563915.992    20563918.0694   20563923.1084
      -507.486        -395.444
 -21738088.528 9 -16909628.19848  19402513.824    19402516.1224   19402521.1564
      -289.211        -225.359
  -6837667.198 9  -5317872.97346  23768698.951    23768700.9344   23768708.1294
     -2138.903       -1666.678
 97  4 29 18 17 29.9960000  0  7  4 26 27  9  2  7 15               -0.003066900
 -15006716.439 9 -11671557.89147  21977174.649    21977177.7094   21977183.4144
      3764.452        2933.339
 -14725296.332 9 -11453831.09547  22221452.431    22221455.1784   22221460.4724
     -1253.755        -976.952
   7618266.247 9   5943959.91147  21953346.367    21953348.7574   21953354.8924
     -3067.879       -2390.555
 -11478164.256 9  -8923240.63247  22341034.388    22341037.4634   22341042.8424
      3480.090        2711.758
  -5866918.728 9  -4561188.97448  20566833.165    20566835.2294   20566840.2434
      -514.710        -401.073
 -21729231.792 9 -16902726.85648  19404199.288    19404201.5544   19404206.5714
      -301.423        -234.875
  -6773300.494 9  -5267717.19046  23780946.919    23780949.5664   23780956.7754
     -2152.435       -1677.222
 97  4 29 18 17 59.9960000  0  7  4 26 27  9  2  7 15               -0.003075548
 -15119540.341 9 -11759472.56047  21955705.022    21955708.0294   21955713.6804
      3757.367        2927.818
 -14687490.602 9 -11424372.11347  22228646.503    22228649.2214   22228654.4794
     -1266.464        -986.855
   7710452.427 9   6015793.24247  21970889.047    21970891.2204   21970897.3674
     -3077.493       -2398.046
 -11582443.356 9  -9004497.03047  22321190.651    22321193.7334   22321199.1704
      3471.986        2705.444
  -5851354.058 9  -4549060.67948  20569795.118    20569797.1224   20569802.1244
      -522.417        -407.078
 -21719993.378 9 -16895528.10048  19405957.366    19405959.6064   19405964.5944
      -314.228        -244.853
  -6708507.649 9  -5217229.31546  23793276.884    23793279.2574   23793286.4974
     -2166.799       -1688.415
 97  4 29 18 18 29.9960000  0  7  4 26 27  9  2  7 15               -0.003084165
 -15232146.312 9 -11847217.42547  21934276.847    21934279.7714   21934285.3944
      3750.041        2922.110
 -14649299.632 9 -11394612.94747  22235913.904    22235916.6894   22235921.9614
     -1279.158        -996.746
   7802924.821 9   6087849.60547  21988486.031    21988488.1284   21988494.3074
     -3087.237       -2405.639
 -11686468.917 9  -9085555.88647  22301395.521    22301398.3784   22301403.7994
      3463.196        2698.594
  -5835570.621 9  -4536761.91148  20572798.755    20572800.6574   20572805.6034
      -529.566        -412.649
 -21710367.683 9 -16888027.56348  19407789.273    19407791.3224   19407796.3214
      -327.212        -254.970
  -6643288.914 9  -5166409.56046  23805687.865    23805690.0604   23805697.2904
     -2180.868       -1699.378
